GFSSW_925_spd_000.txt.gz
Wind_Speed
22 22 21 20 18 18 20 21 23 22 21 20 20 21 20 21 21 7 10 10 8 11 15 13 12 9 10 8 8 4 6 4 5 4 11 14 10 7 7 12 8 10 7 22 26
23 23 24 21 19 20 20 21 22 23 22 22 21 22 22 19 13 16 14 14 19 18 19 19 13 12 9 8 6 8 7 5 4 1 12 15 11 13 9 13 10 11 8 27 26
23 23 25 25 22 21 22 22 22 22 23 22 22 22 21 13 11 3 2 4 20 21 16 17 12 13 12 9 9 8 11 6 1 2 12 17 12 12 10 12 12 16 16 25 27
25 25 25 25 24 24 25 25 24 24 24 23 23 21 12 4 6 4 5 8 7 16 13 17 14 15 13 13 11 10 10 9 4 7 11 17 15 12 10 4 13 14 19 25 23
26 25 25 25 25 25 27 28 27 25 23 23 22 15 3 8 14 8 9 6 12 19 19 19 19 18 16 12 10 12 11 8 8 8 12 14 14 10 12 9 11 15 20 24 22
26 27 27 28 27 28 28 29 29 28 25 21 16 3 5 15 2 5 7 7 8 21 21 21 15 19 10 11 12 4 8 8 9 11 12 14 10 11 12 13 12 18 22 23 23
27 28 29 28 29 30 29 31 31 30 26 15 8 3 7 18 4 9 8 8 10 19 16 26 20 17 14 10 12 8 11 5 9 13 10 13 11 14 12 13 13 18 19 21 21
29 30 31 31 31 29 30 30 31 23 11 4 6 4 8 4 5 12 13 12 10 15 17 15 26 15 17 6 7 14 14 12 11 15 9 15 12 17 15 16 15 17 18 20 22
29 31 33 33 32 34 32 28 17 5 2 9 3 6 7 4 8 5 11 10 11 12 9 14 17 16 16 14 15 15 14 13 12 14 7 16 7 16 15 16 15 15 18 19 19
31 33 35 35 33 34 30 14 3 3 3 4 6 6 7 5 11 2 6 10 12 15 10 15 12 14 15 16 17 18 17 11 14 15 13 17 10 5 13 17 16 17 17 19 20
31 34 36 37 36 31 16 5 4 6 9 10 7 14 7 6 6 6 8 15 11 17 14 18 19 21 23 21 20 17 15 13 16 14 17 15 13 10 11 14 16 17 18 19 20
31 34 37 37 37 13 10 7 3 5 12 16 23 23 24 13 10 18 17 16 14 17 18 15 22 22 22 21 23 20 18 17 14 8 15 12 14 12 13 16 17 19 19 19 19
32 35 39 36 22 4 11 1 3 9 8 10 9 10 8 18 12 14 24 21 20 21 21 19 19 20 19 22 23 22 21 18 16 11 15 10 14 14 16 15 16 17 20 21 21
32 35 39 42 3 15 3 5 7 7 6 6 7 7 9 6 8 14 29 21 17 23 21 20 19 23 17 23 22 23 22 19 16 12 13 16 12 14 15 16 17 20 21 21 22
34 33 37 25 16 6 2 4 10 4 6 8 9 8 8 9 3 7 20 24 21 18 21 20 23 21 23 23 24 24 21 20 20 15 18 15 10 13 5 14 19 23 24 24 24
38 37 38 11 10 15 12 8 3 7 9 7 9 12 11 13 5 5 14 19 16 20 17 23 16 20 21 21 22 19 16 12 17 15 18 24 15 15 13 15 16 16 23 25 24
41 41 33 14 5 2 4 5 6 10 4 10 10 13 11 7 10 11 18 21 18 20 21 20 22 16 19 21 23 23 17 11 15 15 15 18 20 16 12 12 16 16 18 23 24
45 37 15 14 9 15 7 7 14 5 18 4 5 11 13 9 9 14 16 19 25 22 15 18 20 27 17 28 25 26 25 16 23 15 14 21 16 18 19 18 21 14 13 20 24
43 19 14 7 13 11 8 15 10 16 10 14 14 15 16 14 7 10 19 20 23 25 23 20 25 24 25 18 27 28 25 26 25 20 16 17 14 22 17 15 16 14 13 17 23
25 20 13 7 10 12 9 24 20 15 9 13 17 12 13 17 14 13 16 16 20 24 22 15 13 24 23 20 25 29 21 24 20 26 23 20 18 11 18 19 17 14 16 18 20
14 6 4 3 13 8 14 22 21 24 16 18 18 20 13 15 14 12 8 11 16 19 22 22 13 15 23 27 28 20 23 21 23 21 19 18 19 16 16 15 15 12 14 15 18
8 5 4 7 8 10 16 19 12 17 22 24 17 20 19 16 16 14 12 9 8 16 24 22 15 15 19 27 29 26 25 26 17 27 20 22 18 12 13 17 21 21 15 10 13
5 8 7 9 8 13 15 15 15 21 21 21 27 22 19 18 20 17 16 12 9 10 14 20 18 14 19 19 18 27 31 27 26 20 26 20 18 16 9 12 14 12 14 8 8
5 4 6 7 11 12 16 13 19 16 19 24 21 19 23 23 19 10 12 13 10 16 8 6 18 22 16 22 21 25 26 30 30 23 23 26 21 21 18 16 17 15 16 10 9
5 4 2 6 6 5 11 14 14 15 14 14 21 22 19 20 21 20 17 10 10 8 6 6 15 16 21 21 19 24 28 28 31 32 29 23 29 24 22 20 18 19 17 12 12
4 5 5 10 12 14 12 13 14 14 9 16 16 19 21 20 19 17 21 18 17 14 15 13 11 10 17 22 24 22 26 27 26 27 31 33 31 24 26 23 24 22 21 15 16
5 9 5 9 8 7 11 13 9 6 11 16 15 11 9 8 9 10 10 13 14 12 13 14 13 10 16 15 20 24 27 27 29 27 24 25 28 30 27 22 25 23 20 18 18

GFSSW_925_spd_003.txt.gz
Wind_Speed
22 20 20 20 20 21 23 23 22 21 20 20 21 23 22 23 20 6 12 11 12 13 12 12 16 14 15 16 16 14 9 1 6 18 15 11 11 7 11 13 11 4 18 23 26
23 23 22 23 21 21 23 25 25 24 23 21 20 22 22 22 18 23 20 17 18 15 15 19 15 14 13 14 13 8 8 8 8 17 17 10 12 12 12 14 13 8 24 27 26
23 23 23 23 22 22 24 27 26 26 25 24 22 21 21 17 17 9 10 2 22 23 20 19 17 14 17 17 14 13 12 20 10 8 12 13 11 12 12 12 16 15 21 23 25
25 25 25 24 23 23 25 26 26 26 27 26 24 22 15 7 7 9 5 7 7 19 21 19 18 17 19 17 15 14 16 13 6 7 5 13 13 12 8 13 15 16 20 23 22
25 27 28 28 26 25 26 26 27 26 25 26 25 21 7 9 17 10 7 5 11 17 22 18 20 19 20 18 15 12 10 4 4 8 9 13 11 11 9 8 15 18 20 22 21
25 26 28 29 28 29 27 29 28 27 25 25 22 9 7 18 10 6 7 11 14 20 23 21 17 18 18 21 17 12 12 9 4 10 10 10 12 9 13 11 16 19 20 21 22
27 28 30 31 31 29 30 30 31 29 25 20 13 5 12 19 5 7 12 12 13 18 18 25 24 18 19 18 17 13 10 13 10 9 11 12 14 13 18 14 17 18 18 20 21
28 30 32 33 33 32 33 31 29 25 16 8 4 7 9 9 10 15 14 15 14 16 20 17 23 21 20 18 21 19 17 16 14 14 12 16 18 17 15 17 17 18 17 19 22
30 29 33 33 33 36 37 29 22 12 3 7 5 8 12 9 11 15 17 17 16 15 16 13 14 21 16 17 16 16 17 20 13 16 14 16 12 18 18 18 17 17 17 18 20
32 31 34 33 33 39 34 15 12 0 1 5 10 7 11 14 13 10 10 15 14 13 12 16 13 18 19 18 17 19 21 20 18 17 13 16 8 19 17 17 17 17 17 18 20
34 33 34 37 37 35 21 6 5 7 15 13 7 11 4 8 8 12 12 14 17 16 17 19 17 23 26 25 23 22 20 19 16 24 19 18 16 15 15 14 16 19 18 19 20
35 35 36 38 37 14 9 8 7 8 13 19 26 27 27 18 13 19 16 15 18 19 20 16 24 24 24 25 24 27 23 18 12 17 21 18 19 18 19 15 15 17 20 20 21
35 36 38 39 22 5 15 11 3 14 9 17 25 23 24 22 24 21 23 22 19 23 23 24 22 25 26 26 26 25 24 20 17 25 22 15 17 17 15 20 16 17 18 22 23
36 37 39 41 11 18 7 2 9 12 7 13 11 9 13 13 16 22 22 27 23 24 24 25 21 25 28 28 26 24 24 25 20 12 13 19 16 21 19 21 20 19 19 21 23
36 39 39 30 19 10 8 8 10 7 7 10 12 18 19 16 12 17 22 26 26 22 18 25 26 25 30 30 29 26 24 24 23 17 20 24 17 11 21 21 22 21 21 22 23
36 38 41 17 14 16 15 12 9 7 14 9 11 15 19 20 14 8 15 23 21 21 23 24 22 27 24 28 23 24 22 23 23 19 19 22 17 19 17 19 16 22 22 22 22
38 40 34 21 10 2 5 8 7 12 4 12 16 19 21 18 19 14 18 24 23 22 22 22 28 23 24 24 25 28 24 16 19 18 20 22 18 18 18 16 20 18 20 24 23
39 35 20 16 12 14 11 9 16 12 28 3 17 20 24 19 18 19 17 20 27 24 16 20 21 29 22 28 28 31 27 19 23 18 18 23 23 21 21 14 9 14 15 20 23
37 22 20 17 14 14 10 16 14 21 17 19 12 20 23 23 20 20 22 22 24 26 24 18 25 20 29 26 27 29 28 27 27 23 20 21 26 24 11 14 19 18 20 14 21
27 25 24 15 10 14 11 27 22 32 15 14 24 19 21 23 21 21 20 20 23 26 26 20 17 23 25 24 27 34 24 26 22 27 25 22 22 16 19 20 20 17 17 13 17
18 6 6 6 11 10 17 23 27 34 29 26 22 24 25 23 25 25 24 23 20 24 25 24 18 16 24 31 31 20 27 23 25 23 21 20 18 20 12 13 20 21 23 16 15
12 7 8 6 10 10 19 26 25 28 23 28 22 25 24 24 20 20 18 23 17 19 26 24 16 15 21 25 27 29 28 32 18 28 20 22 18 14 16 17 15 14 12 11 19
8 12 23 19 14 15 22 27 28 28 27 27 25 29 24 26 23 21 19 21 8 15 19 20 19 16 21 20 24 30 29 31 33 22 26 22 20 21 5 10 15 15 18 19 7
6 6 8 10 13 21 22 23 23 21 21 21 23 26 26 30 25 22 25 23 16 14 5 8 20 23 18 22 19 26 31 31 30 23 22 26 25 22 21 14 13 14 12 12 6
5 9 8 11 10 13 15 20 16 20 20 23 22 28 27 25 27 26 26 20 26 17 13 15 21 23 25 24 19 23 29 30 33 30 28 24 30 26 25 22 19 19 16 18 15
5 6 7 12 19 19 15 19 18 18 16 24 22 23 24 24 22 23 26 23 20 20 20 20 18 18 20 23 24 24 22 30 29 32 33 33 31 25 26 24 18 19 18 18 18
9 16 7 8 16 15 13 17 24 18 14 14 22 16 22 9 16 18 19 16 23 17 22 20 16 17 20 21 18 23 27 25 24 27 27 29 30 27 29 26 24 25 21 21 22

GFSSW_925_spd_006.txt.gz
Wind_Speed
25 24 23 21 21 21 21 23 23 23 23 24 25 24 22 24 25 10 12 16 19 23 10 9 15 21 18 14 19 19 8 9 7 8 14 8 14 8 18 14 22 3 24 29 36
25 26 25 25 23 21 21 24 25 24 23 23 24 25 24 25 20 25 33 26 21 15 13 18 16 17 15 16 17 5 6 5 21 5 12 11 13 12 11 13 11 19 26 31 35
26 26 27 27 26 24 24 26 26 24 24 23 23 24 23 21 13 14 6 16 20 25 21 21 22 17 18 15 18 9 2 15 23 15 12 10 16 11 17 11 16 25 24 23 28
27 26 28 29 28 26 27 27 28 27 25 23 23 24 22 6 6 8 14 6 1 22 23 25 20 19 18 16 18 11 17 17 6 7 12 13 16 11 14 13 20 22 23 23 21
27 27 29 30 29 29 28 29 30 29 27 24 23 22 9 10 23 14 12 8 6 15 24 21 20 19 20 17 20 17 21 20 6 8 6 11 15 15 8 19 21 21 24 23 20
29 29 30 31 30 31 31 34 33 31 29 25 22 13 6 17 15 12 12 10 14 19 23 23 18 17 20 20 21 18 12 12 7 8 8 13 16 14 13 16 20 21 23 22 22
33 31 31 32 33 33 33 36 34 31 29 24 14 5 11 24 16 9 11 15 15 19 20 25 23 18 20 20 21 21 19 8 9 12 8 12 16 11 19 15 20 19 21 21 22
34 34 33 34 36 36 38 35 30 28 25 13 6 7 10 19 21 22 16 18 17 20 21 22 23 20 20 18 22 22 19 15 18 17 10 13 14 14 21 16 19 21 19 20 21
34 34 34 35 38 37 42 35 25 19 10 3 5 10 11 8 20 20 20 20 19 18 19 20 20 20 19 18 18 21 17 21 20 13 15 15 5 5 18 18 19 19 19 19 18
35 36 36 37 38 39 40 27 18 8 2 6 14 9 17 16 17 18 19 21 16 15 17 17 13 15 18 17 16 20 20 18 17 18 18 18 12 10 25 18 17 19 19 19 20
34 37 38 39 36 37 31 10 4 5 10 13 10 13 13 20 22 14 15 19 18 17 18 19 15 20 25 25 22 23 20 22 15 11 17 18 12 16 29 20 20 19 18 19 20
35 37 40 39 36 26 12 8 14 11 14 20 28 27 35 14 11 15 16 15 18 19 20 19 24 24 24 25 26 27 26 23 14 19 20 18 25 28 29 23 21 21 19 19 20
37 38 41 40 33 11 13 22 14 15 10 18 30 28 31 26 23 20 21 19 17 22 23 23 22 23 25 26 27 26 25 22 20 18 23 16 15 23 28 22 18 19 21 20 20
37 37 39 44 12 23 13 8 9 13 7 11 19 22 26 28 30 27 26 23 20 23 24 24 25 25 27 29 27 26 24 26 24 13 13 15 11 12 18 21 20 21 19 22 21
37 37 36 33 24 10 16 15 17 13 7 3 18 5 13 26 6 30 34 26 27 26 21 24 26 27 27 31 29 26 26 25 24 21 19 20 13 12 24 21 25 22 22 22 21
38 39 41 20 12 22 19 19 11 6 11 8 11 13 19 22 23 16 25 27 25 27 26 26 21 27 27 25 29 26 23 24 22 19 17 18 15 19 15 19 19 22 21 21 21
39 42 42 23 10 12 14 8 6 11 8 14 17 16 22 22 27 17 23 26 22 24 24 26 27 25 25 26 26 29 23 16 18 17 17 20 21 11 20 23 21 4 12 22 21
40 41 29 21 20 18 13 8 16 12 27 15 13 20 22 23 25 25 21 22 27 25 18 21 21 26 23 29 25 27 27 17 21 18 19 22 22 17 24 23 11 16 38 25 24
42 27 26 22 24 16 9 15 11 21 17 18 22 19 23 25 25 25 26 23 25 28 24 19 25 20 30 23 27 27 26 27 26 22 18 18 18 23 17 18 18 26 21 18 24
29 31 24 21 18 17 12 29 18 26 23 21 23 22 26 25 28 26 26 27 25 27 26 25 20 21 23 26 29 30 19 23 20 25 25 20 23 11 19 16 20 12 19 13 11
19 8 22 2 17 9 17 23 27 33 33 30 28 28 28 25 27 28 28 24 27 25 26 24 22 20 23 26 26 18 22 24 21 20 17 17 17 15 16 15 19 19 16 15 12
13 9 11 6 11 11 18 27 26 31 32 29 29 31 30 29 27 27 29 27 23 21 26 26 17 19 26 25 28 29 29 27 17 21 19 20 16 17 7 10 10 11 15 13 15
8 13 29 27 15 15 23 30 29 29 29 32 32 30 26 30 27 29 27 26 25 27 25 20 21 16 24 24 25 30 28 25 26 21 21 19 16 21 6 4 11 13 16 12 3
5 6 10 11 17 24 23 26 27 27 26 29 24 28 31 28 28 27 27 29 20 22 7 8 18 26 18 21 18 25 30 28 26 18 21 22 20 25 12 14 11 11 14 9 5
4 7 15 10 17 8 16 22 21 25 23 20 16 19 19 21 26 27 28 29 26 23 14 15 16 21 28 29 25 25 29 29 27 26 22 21 27 18 22 15 18 14 8 8 5
4 7 10 15 22 23 12 19 20 25 19 19 12 22 20 19 15 17 21 24 24 25 19 22 17 18 24 25 27 24 27 28 29 29 27 26 25 21 20 21 8 15 11 13 11
6 12 5 11 18 16 17 20 17 23 20 19 17 17 17 16 22 25 25 27 26 21 22 20 17 16 21 25 23 24 26 22 23 24 25 22 23 17 19 15 14 9 11 15 13

GFSSW_925_spd_009.txt.gz
Wind_Speed
24 25 25 25 25 24 23 24 25 25 23 24 23 22 22 25 29 14 9 21 17 24 13 5 12 17 21 16 10 4 4 2 12 7 7 8 22 20 17 24 17 4 16 27 37
27 26 27 27 27 26 25 26 27 27 27 25 25 23 22 24 21 16 39 28 21 17 22 14 12 14 9 11 12 9 5 15 7 17 6 12 21 14 18 19 11 22 22 34 34
28 28 28 29 28 27 26 27 28 29 29 27 26 24 22 19 6 7 8 14 22 24 19 18 18 13 13 13 16 10 5 6 4 12 8 12 14 12 20 16 23 30 28 26 30
30 29 29 30 30 30 28 29 30 32 30 28 27 24 20 4 5 2 5 8 15 22 24 19 10 10 12 13 16 11 16 7 10 7 6 13 11 16 15 19 26 30 32 25 24
32 31 30 30 32 33 33 32 33 34 32 28 26 23 7 4 13 23 13 11 12 18 20 15 14 13 13 13 15 15 12 13 12 15 7 13 12 17 14 27 26 24 25 26 24
34 34 32 32 33 35 36 33 37 36 31 27 22 12 3 9 18 19 25 17 12 16 17 18 9 14 9 14 12 17 14 14 15 14 13 9 13 11 23 28 27 24 19 20 24
34 35 35 36 35 37 37 37 38 35 31 22 14 4 6 20 8 8 22 20 13 19 10 22 24 12 7 12 16 16 15 15 13 7 6 12 12 2 22 25 27 24 19 15 15
34 36 36 37 38 40 40 41 39 32 25 13 5 5 9 23 22 21 29 30 20 19 21 23 27 12 7 9 14 14 9 7 10 10 8 11 15 18 18 23 24 24 21 18 14
35 37 38 38 40 42 42 43 38 23 11 3 4 5 10 16 13 32 24 19 20 20 25 19 15 10 9 7 7 7 10 10 11 9 6 8 8 18 13 21 21 22 21 19 16
37 39 40 39 41 41 45 41 17 5 0 2 9 3 10 13 17 22 26 27 9 9 10 9 6 7 9 6 10 9 7 11 12 7 11 8 9 9 11 16 21 21 21 20 19
37 40 40 41 41 41 42 13 3 1 6 8 8 7 21 17 14 19 22 15 10 9 12 12 8 16 13 15 12 14 16 17 16 9 10 10 11 12 12 9 8 21 21 22 21
38 40 41 42 41 29 9 4 12 16 14 15 25 26 36 28 11 13 27 12 13 14 10 10 17 12 10 11 17 20 19 19 16 12 8 14 16 18 18 15 14 18 21 23 22
38 41 42 44 36 4 22 21 21 20 6 15 24 18 27 17 23 20 12 12 10 15 15 17 10 17 17 18 19 22 20 18 12 12 12 16 2 6 8 3 8 12 21 22 24
38 41 41 49 7 29 13 27 25 25 5 8 8 9 13 15 13 26 24 10 11 16 14 14 18 19 23 23 20 19 22 21 21 13 8 12 6 6 11 6 6 15 20 22 24
37 40 39 39 21 10 13 26 28 15 5 6 7 12 11 21 9 24 28 15 20 18 10 19 16 20 20 22 19 20 13 21 21 13 7 16 4 7 13 19 29 25 23 23 22
39 41 43 25 16 27 28 31 17 2 9 7 8 9 13 20 17 3 29 22 10 15 15 17 10 17 18 15 21 17 15 17 17 11 11 12 13 6 11 25 26 24 21 23 22
42 44 43 25 8 15 19 9 3 7 8 6 7 10 16 13 23 25 23 26 23 17 20 16 21 22 17 17 14 20 11 12 12 10 8 10 12 9 17 12 25 24 21 19 22
40 44 34 24 21 17 7 2 11 9 14 18 9 10 15 14 18 20 15 20 23 19 9 15 17 24 15 21 18 13 18 13 13 13 9 9 13 8 15 13 21 16 22 19 14
40 27 23 27 20 23 5 9 6 9 9 12 19 13 14 17 12 19 19 22 22 24 17 15 16 9 24 20 18 14 19 15 6 8 6 8 9 13 15 16 19 16 17 23 20
28 18 18 23 13 17 9 16 8 13 24 21 9 8 12 15 15 17 22 19 22 26 24 9 7 19 19 23 18 20 8 13 15 17 18 16 11 12 7 17 15 15 16 19 16
10 6 21 17 24 7 15 11 17 22 24 11 15 25 25 24 19 23 22 23 25 21 23 23 16 19 9 16 22 12 17 13 8 15 13 9 16 8 11 12 19 20 23 20 23
8 5 26 31 6 8 13 16 20 23 24 25 21 26 26 26 28 23 24 22 18 25 22 19 15 14 23 19 20 24 12 13 8 9 6 9 15 10 17 0 21 26 15 13 10
5 8 22 14 5 8 12 21 23 23 22 23 25 23 23 27 25 24 26 26 22 18 21 14 18 11 14 14 19 19 21 12 19 4 13 6 17 18 20 1 4 2 6 9 7
4 5 5 9 5 13 12 12 16 19 20 18 19 19 16 18 17 17 25 20 22 23 15 14 12 26 18 13 6 9 21 22 16 15 14 23 13 15 8 8 9 17 11 6 8
2 5 10 7 11 19 10 11 17 13 13 18 13 17 20 16 20 12 15 23 21 24 13 6 18 18 17 17 18 25 15 25 22 20 15 13 19 13 17 10 10 8 9 9 7
2 4 5 10 13 17 17 12 16 15 9 16 16 18 18 6 18 18 19 17 11 16 20 12 10 10 8 12 21 21 19 19 26 23 19 17 20 7 11 10 6 9 9 11 6
5 7 2 5 11 11 12 16 16 17 10 13 18 12 14 16 14 15 18 20 21 25 24 12 5 4 10 7 8 15 27 20 11 23 21 19 19 8 10 8 4 10 10 9 3

GFSSW_925_spd_012.txt.gz
Wind_Speed
23 23 24 25 25 24 23 23 24 24 25 26 25 22 21 24 26 14 9 28 21 26 13 12 16 16 19 9 6 1 4 7 4 2 10 15 17 14 10 18 8 4 14 26 32
25 24 24 25 25 25 25 24 26 26 27 27 26 23 21 23 21 15 32 27 25 21 20 17 10 13 5 8 7 6 4 6 6 6 8 20 25 18 12 19 7 22 23 30 30
27 29 28 27 28 28 29 29 29 27 29 29 26 23 20 16 5 9 13 7 17 23 20 19 17 6 7 3 7 8 12 16 15 18 20 23 21 16 24 14 27 27 27 26 29
30 31 31 30 30 31 32 32 32 30 31 29 25 20 17 2 6 2 4 5 16 20 16 6 5 6 5 9 8 7 16 12 11 3 19 22 21 16 24 12 25 31 32 26 23
32 33 33 33 33 34 34 35 33 33 33 29 24 16 3 2 13 20 6 2 17 21 14 8 7 5 5 6 3 8 15 13 13 8 11 13 20 20 16 22 22 25 26 26 22
34 35 36 36 35 36 37 37 35 36 35 30 18 6 2 8 14 14 11 18 15 19 12 11 8 9 5 8 7 4 11 12 8 10 9 12 7 10 17 25 25 26 26 23 22
35 36 36 35 36 38 39 38 36 37 37 24 10 4 4 20 7 8 1 23 26 21 6 21 24 2 2 8 6 5 7 12 9 11 5 13 6 15 26 30 28 26 24 23 21
37 38 40 37 37 39 40 41 39 37 23 10 6 7 9 15 17 24 25 28 22 20 24 17 23 8 4 8 8 5 2 4 11 3 13 11 9 19 26 28 27 27 23 23 22
40 40 42 42 40 43 45 40 35 12 3 7 9 6 11 8 8 26 26 19 29 27 25 19 8 7 3 4 5 4 6 6 13 9 9 4 6 18 25 26 26 25 26 22 21
39 40 43 46 46 45 44 32 9 5 7 5 3 2 8 6 5 9 21 30 6 8 4 6 4 6 1 4 7 6 4 6 7 8 8 2 11 18 26 24 25 24 22 22 23
39 40 44 48 46 47 30 8 4 2 3 8 6 7 15 5 14 10 17 14 7 3 8 5 4 13 10 8 6 6 6 9 16 5 4 13 14 24 27 23 23 22 21 20 22
39 41 44 50 51 19 10 4 4 12 12 16 23 26 37 5 7 7 20 9 8 12 5 5 12 7 9 7 10 11 13 18 12 10 2 6 16 18 25 26 26 23 21 22 21
39 40 44 50 36 4 26 7 25 29 5 7 15 15 13 16 15 18 6 9 8 10 11 12 8 12 10 11 10 14 16 17 9 9 1 9 3 6 10 12 16 20 23 23 25
38 40 43 51 7 32 13 24 28 18 4 8 6 8 9 9 9 21 12 12 6 18 9 10 15 13 17 14 10 11 15 16 13 4 4 4 4 5 8 8 17 22 21 21 23
38 40 40 40 21 10 16 30 35 2 5 3 5 5 8 14 6 14 20 6 17 9 8 8 19 17 17 18 16 14 10 12 14 9 4 10 3 7 12 11 13 18 23 23 24
38 40 43 27 17 22 19 34 6 4 8 7 5 7 7 4 3 1 10 3 5 8 10 10 7 14 16 13 18 14 7 9 5 7 7 10 12 6 8 22 17 21 20 26 25
38 40 42 24 7 12 21 6 3 5 5 4 5 7 3 8 8 3 19 17 13 8 15 9 17 7 6 9 9 9 8 7 7 9 11 10 8 10 13 17 25 25 17 16 24
40 40 40 35 30 17 8 4 6 5 9 8 11 11 5 3 7 10 6 18 13 4 4 13 11 14 8 17 9 9 13 11 10 5 6 6 8 7 14 19 26 28 22 17 23
38 35 28 25 13 13 3 4 7 7 5 12 11 5 8 6 14 6 14 16 17 18 11 8 13 3 18 16 14 15 6 15 8 3 2 4 6 7 8 12 24 22 18 20 25
31 14 17 15 9 13 2 4 6 2 11 9 3 4 11 14 11 17 6 7 14 25 21 11 4 9 19 16 16 12 8 5 1 14 18 6 6 12 8 8 10 23 25 26 26
12 4 14 14 24 3 6 7 5 19 9 8 14 13 15 12 9 11 10 15 8 10 23 20 8 11 7 12 15 10 12 3 4 7 11 5 17 8 10 9 10 19 27 29 28
6 4 8 34 4 2 6 7 8 16 20 12 10 17 16 18 18 12 12 8 21 17 13 12 15 16 25 11 13 24 15 12 10 11 9 18 24 2 10 11 9 15 21 27 26
2 4 15 8 4 6 9 8 7 10 6 7 5 8 8 5 7 7 8 11 22 15 8 9 12 14 8 11 3 7 15 18 5 4 18 9 5 8 9 8 4 8 8 8 7
2 4 4 3 1 10 10 7 11 14 8 7 6 5 7 2 3 9 9 9 17 14 24 14 6 12 20 21 6 6 11 16 18 16 14 20 5 5 2 3 6 9 14 14 12
0 4 2 4 5 10 6 9 14 8 6 7 4 8 4 4 4 4 4 8 15 9 16 6 5 5 13 17 20 17 10 19 21 21 21 21 12 9 10 9 10 9 9 7 15
2 3 4 5 4 7 4 3 10 11 9 7 6 12 7 5 6 13 9 2 3 8 11 6 5 8 7 13 25 23 19 22 18 21 20 9 8 11 13 11 8 11 9 10 11
6 8 2 5 4 3 3 9 15 11 11 10 12 5 10 11 16 12 10 8 8 3 9 4 4 8 7 9 16 17 33 21 15 11 16 15 10 10 9 9 11 10 9 10 9

GFSSW_925_spd_015.txt.gz
Wind_Speed
23 23 24 23 22 22 23 23 22 23 21 23 22 20 20 21 23 14 9 25 23 17 19 26 19 20 23 7 6 2 2 4 5 6 4 6 8 10 5 13 5 6 8 19 31
25 25 25 26 25 25 25 26 26 26 23 24 23 20 18 20 18 15 31 25 21 32 26 25 13 19 6 6 5 5 2 6 6 5 11 17 15 17 7 15 1 7 17 29 30
26 27 27 27 27 27 27 27 28 27 25 25 23 19 16 12 5 9 7 9 21 28 27 27 20 13 6 4 6 6 6 7 15 4 17 20 17 11 15 11 9 25 23 24 29
28 29 30 30 29 28 28 28 30 28 27 25 23 17 11 2 6 1 7 3 24 31 24 17 6 8 7 12 10 6 12 12 17 13 17 23 18 7 20 9 19 27 28 26 20
33 34 34 35 35 33 32 34 32 33 29 26 20 12 1 2 12 18 5 7 24 28 21 8 7 8 7 6 8 14 14 6 16 9 19 18 22 15 24 9 21 20 22 24 21
36 37 36 38 39 38 39 37 39 35 31 27 15 3 3 9 13 10 9 13 16 24 14 10 8 8 4 6 8 6 11 7 8 13 15 18 14 10 18 18 20 24 23 21 22
37 38 39 41 43 43 41 47 41 35 30 20 10 7 3 19 6 5 5 8 19 27 8 19 15 8 6 5 3 4 4 5 6 7 12 21 10 17 16 22 24 24 22 21 20
38 39 41 43 46 47 49 44 38 28 14 8 12 9 8 10 11 31 31 29 14 20 24 17 23 7 4 3 7 3 2 2 1 3 5 20 18 13 23 24 23 23 21 21 20
39 41 43 46 49 51 48 39 21 5 3 14 11 5 10 3 6 24 20 11 21 20 18 10 7 6 3 4 3 4 4 5 9 6 6 7 4 11 24 22 22 22 21 20 18
40 41 44 48 50 51 36 17 4 9 8 5 2 1 6 4 5 5 15 25 5 5 2 6 4 4 2 4 8 5 4 4 6 5 8 3 2 19 22 23 24 22 20 19 19
39 42 45 49 52 34 32 5 4 2 2 7 5 5 7 7 8 6 9 12 2 5 8 6 6 9 9 6 5 3 3 5 6 3 2 9 8 20 24 18 19 20 20 20 22
40 42 45 49 49 11 28 4 7 6 13 17 23 23 34 3 5 5 16 8 7 9 6 3 15 8 8 8 8 7 7 12 14 8 8 7 11 23 25 28 27 24 23 23 21
39 41 45 48 32 9 18 4 18 22 5 8 8 8 7 19 11 12 9 8 6 10 9 10 6 10 9 7 8 6 9 11 10 4 2 4 3 12 21 11 14 19 23 23 23
39 41 42 49 7 29 12 21 30 9 4 8 5 7 6 8 8 16 14 11 5 18 8 7 10 10 9 8 9 9 7 9 5 3 3 3 4 5 14 20 17 18 20 22 23
38 40 40 38 18 10 13 31 30 3 6 3 4 7 7 10 3 11 13 5 10 8 9 9 13 16 11 17 8 11 4 8 3 4 0 5 1 7 16 17 18 21 21 22 23
39 41 41 22 16 23 19 33 6 3 9 5 3 3 5 6 5 5 13 3 6 5 5 12 5 13 11 8 13 4 2 5 3 3 6 16 8 10 8 19 21 20 23 25 24
40 41 43 19 8 19 24 7 3 5 5 4 5 5 4 5 5 5 15 16 10 12 14 6 20 5 6 8 6 5 7 3 3 4 11 9 6 14 8 18 28 26 27 28 25
39 40 34 22 18 17 6 4 6 4 6 5 5 9 3 10 3 5 13 18 14 4 7 9 6 15 6 10 11 8 12 6 8 5 8 6 8 7 17 11 21 26 26 23 23
38 35 18 15 19 2 3 4 7 5 3 8 7 6 5 6 7 8 7 13 15 10 10 9 10 4 15 7 16 8 11 13 1 3 2 5 7 5 8 10 10 17 19 22 22
30 14 14 14 23 4 4 4 4 3 6 5 4 4 5 8 8 8 6 3 8 5 4 8 3 7 11 8 9 15 9 4 2 11 13 5 7 6 7 12 9 11 13 17 19
12 5 5 27 10 3 3 6 6 10 5 6 3 4 2 4 4 3 5 5 13 11 10 3 4 7 6 8 15 4 13 4 6 7 9 9 10 8 10 10 11 12 14 17 16
6 4 15 24 5 3 4 13 11 9 9 3 3 4 3 5 3 2 5 5 13 7 5 6 3 14 17 7 19 19 16 9 7 12 6 7 11 4 16 14 11 11 11 14 21
4 3 9 6 4 5 7 7 14 13 6 5 5 5 6 2 2 3 5 6 14 10 6 7 4 2 6 4 3 10 12 13 10 4 21 9 7 6 8 8 9 10 9 11 11
3 4 4 4 2 3 5 4 10 15 6 9 3 3 4 4 5 4 4 3 13 6 11 2 3 4 5 5 4 7 11 20 17 11 17 20 8 5 8 11 10 9 9 10 9
1 3 1 4 4 5 6 5 6 9 8 11 4 7 4 2 2 2 1 7 10 7 6 4 3 3 5 13 14 15 12 25 20 23 16 18 12 14 10 11 11 11 5 7 9
2 2 2 4 3 5 5 5 5 5 4 4 8 12 2 4 4 4 5 2 5 5 6 3 4 6 5 9 10 15 20 25 24 23 18 17 8 9 14 9 7 10 10 10 9
3 4 1 4 3 2 3 2 9 14 6 10 7 11 5 3 5 9 12 10 7 3 3 2 1 5 5 8 11 11 25 20 23 13 17 19 9 8 11 11 12 13 11 11 11

GFSSW_925_spd_018.txt.gz
Wind_Speed
26 25 25 25 25 24 24 23 22 22 22 21 20 21 20 19 20 13 9 23 19 12 27 24 20 18 13 6 3 2 1 3 4 3 3 6 5 5 6 12 4 6 5 13 28
26 27 26 26 26 26 25 24 22 23 23 22 20 20 18 16 17 14 35 21 18 27 31 25 14 19 4 7 5 4 3 6 5 4 3 6 6 9 4 11 3 4 13 30 27
28 29 29 28 28 28 27 27 27 25 24 23 20 19 15 11 5 8 8 7 25 35 35 25 21 8 4 4 7 6 6 5 5 6 5 7 9 6 10 10 9 17 21 25 28
30 31 31 30 30 31 30 31 30 30 26 23 19 17 8 2 6 2 7 9 34 38 31 19 13 6 6 7 6 4 10 9 6 4 4 7 9 7 12 5 7 17 27 23 22
33 33 34 35 35 34 35 37 34 30 27 22 17 12 2 3 11 9 6 12 34 31 28 12 16 6 7 5 6 6 9 6 13 7 10 7 13 9 13 3 14 18 22 21 19
35 36 37 38 40 42 41 41 37 32 27 22 14 6 3 7 9 6 13 17 34 31 19 12 11 9 4 3 8 5 12 16 9 9 5 14 12 11 10 11 16 21 19 20 20
35 37 39 41 43 44 49 43 36 30 25 19 13 11 3 16 5 7 14 24 37 35 9 15 9 13 6 2 8 6 5 6 8 6 7 9 6 18 9 16 18 18 18 18 18
36 38 41 43 46 49 48 35 31 20 8 7 15 12 8 9 16 28 11 17 25 31 17 31 17 4 3 3 5 3 2 4 3 6 3 12 12 18 15 18 19 19 17 17 18
38 41 43 46 49 53 30 29 9 9 9 20 14 5 9 3 8 20 24 14 20 25 21 6 7 5 1 2 4 3 5 6 4 5 4 9 7 17 18 19 17 19 18 17 16
39 42 45 47 49 47 31 7 6 9 10 2 4 1 6 5 5 6 18 21 6 9 5 6 3 5 2 6 12 5 4 4 4 1 5 12 6 7 19 20 20 19 17 18 18
41 42 45 49 50 31 35 3 4 2 3 8 4 5 4 4 5 6 9 12 7 5 8 6 5 13 7 7 6 5 4 4 1 4 3 8 4 11 17 14 17 19 19 19 22
40 42 45 50 47 15 17 5 7 3 11 14 23 18 23 4 4 4 21 8 7 7 8 4 19 9 10 9 8 5 5 8 3 6 2 6 7 11 17 23 23 22 20 22 19
41 43 46 50 30 13 14 7 13 12 5 9 8 7 7 13 11 8 14 7 6 9 14 15 7 12 12 7 9 7 11 5 4 3 2 3 5 4 14 6 14 16 16 18 19
41 42 46 52 8 29 11 9 28 4 4 7 5 6 5 9 6 11 18 7 5 21 8 6 5 13 8 12 10 8 8 6 7 4 4 4 5 5 7 18 18 15 18 19 19
40 42 44 35 14 9 11 26 30 4 6 1 2 9 5 7 1 7 9 2 11 8 9 10 13 14 14 8 8 8 9 9 5 5 4 5 2 6 9 11 16 17 19 21 22
40 43 45 20 15 16 24 30 4 3 9 3 3 1 4 4 4 4 8 2 6 6 1 9 5 13 12 7 10 7 4 5 5 4 5 10 8 5 7 14 19 16 19 21 21
41 45 34 15 10 23 22 5 2 5 6 5 3 5 5 4 2 5 11 14 10 8 8 5 15 3 6 7 4 6 8 2 2 3 10 8 8 14 8 16 17 23 24 24 22
42 41 23 7 27 18 7 4 5 2 4 4 5 7 3 7 4 5 10 16 5 5 6 12 6 20 6 9 9 8 9 6 8 5 6 6 9 6 13 10 17 19 24 22 22
40 32 12 9 29 10 4 2 5 3 5 9 7 4 4 5 1 4 5 10 7 4 8 9 10 3 7 5 16 6 10 9 4 1 2 5 7 5 6 10 8 17 13 15 20
32 14 12 15 22 1 4 4 4 6 13 5 4 4 5 6 5 6 5 7 11 7 4 3 1 6 15 6 6 10 8 4 1 7 6 4 5 6 7 13 12 9 13 16 18
12 4 7 32 4 4 2 5 6 10 11 4 5 6 4 4 5 4 4 6 11 8 8 5 3 2 7 9 19 3 6 3 5 6 6 1 7 8 10 12 13 15 15 16 16
5 4 16 23 5 2 4 7 9 11 7 5 5 4 4 4 3 4 4 4 11 7 4 1 3 6 6 3 8 22 15 9 6 10 3 4 9 4 8 11 12 11 11 13 11
5 3 10 10 4 4 6 6 2 9 10 7 4 4 4 5 2 5 3 4 12 9 4 5 2 2 4 4 2 5 13 9 6 3 15 7 8 15 6 8 10 10 8 8 10
3 5 4 3 2 3 5 5 6 6 5 9 5 5 5 5 4 3 5 5 6 4 8 1 2 3 3 1 2 6 5 9 14 13 17 21 16 5 5 9 8 9 10 10 9
2 3 2 4 4 6 2 4 7 7 6 5 6 11 5 3 4 4 6 5 5 6 4 3 1 2 1 10 6 10 12 10 10 22 15 16 24 11 9 11 13 13 8 8 10
2 1 1 4 6 8 4 4 5 8 3 6 3 13 12 3 3 3 6 2 4 5 4 4 2 2 4 9 11 9 12 12 12 11 10 21 11 9 13 12 8 11 10 10 11
2 4 2 3 2 3 3 4 6 10 8 7 10 13 5 7 4 8 7 8 9 4 2 2 1 2 4 4 8 11 9 16 12 8 12 17 12 7 9 10 14 16 11 13 12

GFSSW_925_spd_021.txt.gz
Wind_Speed
25 26 26 26 25 25 24 24 24 24 23 21 20 19 19 20 19 10 10 16 14 14 24 25 18 19 18 7 2 1 3 3 3 2 3 9 5 7 7 13 5 8 6 17 30
26 27 28 27 27 27 26 25 24 25 24 23 21 18 18 18 15 15 32 24 17 27 28 30 19 21 7 7 5 4 3 4 3 4 5 8 9 11 7 13 6 7 13 27 31
27 28 28 29 28 28 28 26 30 26 24 22 20 18 15 12 6 8 2 9 24 33 27 26 26 15 8 8 8 7 5 6 4 3 5 5 9 8 10 10 12 17 21 27 29
28 29 30 30 30 30 30 34 34 29 25 22 19 14 9 2 6 1 8 12 28 30 29 22 19 13 9 9 13 6 12 11 5 4 2 3 8 8 13 1 13 16 23 26 25
30 31 33 34 34 36 35 40 37 30 26 21 15 9 2 4 11 10 4 19 31 28 32 20 23 14 13 10 9 17 11 10 12 13 13 7 15 9 16 8 12 20 23 25 22
32 34 36 38 39 40 43 42 32 30 26 19 11 4 2 9 9 13 9 28 32 29 29 22 16 12 10 4 16 7 9 13 9 12 8 10 10 7 9 11 15 20 25 25 25
34 36 38 40 43 45 46 33 34 30 23 17 11 8 5 16 5 10 18 27 35 32 25 25 12 16 5 4 12 11 12 15 11 6 6 8 7 16 10 16 17 18 20 23 22
36 38 41 42 47 49 42 33 18 15 5 9 15 10 9 6 24 5 14 12 24 25 27 24 12 18 4 2 2 4 5 9 6 7 5 12 16 14 16 19 18 19 19 21 24
38 40 43 47 48 47 31 24 9 12 12 20 13 6 8 2 8 22 19 13 24 22 13 16 12 8 7 11 8 8 9 11 11 9 3 12 12 6 20 19 20 21 22 21 22
39 42 45 48 49 34 32 3 8 10 10 3 7 4 7 4 7 13 27 22 11 16 11 7 10 12 10 13 15 11 13 12 13 5 11 14 16 3 19 21 21 21 22 22 23
40 42 46 48 47 22 25 2 2 3 3 8 3 5 4 4 8 7 24 21 9 16 15 17 13 22 24 18 16 9 17 12 11 12 7 11 12 11 15 18 19 21 21 22 24
40 42 44 46 39 14 11 5 6 7 13 15 22 19 23 3 3 11 28 18 17 18 16 10 25 21 16 15 18 19 20 15 8 6 5 6 10 9 16 22 24 22 23 24 21
41 42 43 46 24 14 6 8 12 7 6 9 8 8 8 13 7 16 26 14 24 23 28 24 9 20 19 18 20 24 24 19 12 1 4 7 12 7 10 16 17 20 21 22 23
41 42 42 42 6 21 3 10 24 2 5 6 5 5 8 9 10 15 24 15 10 27 21 21 20 23 22 24 22 23 20 17 15 9 13 5 12 7 10 16 16 19 21 23 24
43 43 41 21 10 9 12 26 18 4 6 5 4 8 9 12 1 11 23 10 22 21 15 19 23 19 26 26 22 17 12 17 14 13 10 15 9 13 4 11 18 21 23 24 25
44 43 35 11 11 18 28 25 2 4 9 2 4 5 6 11 3 4 15 12 6 13 22 20 8 24 19 19 21 12 9 8 4 8 15 20 13 17 13 15 14 17 22 23 24
45 41 24 10 8 29 22 4 4 7 6 4 3 5 4 2 7 7 20 26 17 18 17 22 14 10 16 17 18 22 16 7 10 12 16 13 14 20 11 16 19 18 22 24 25
43 38 12 10 21 28 8 4 9 3 5 9 7 11 3 3 2 2 17 23 21 18 16 19 18 22 16 18 14 26 22 9 14 13 12 7 14 12 17 18 18 17 18 20 22
41 30 9 16 26 10 3 6 4 8 9 13 13 4 1 2 4 3 7 20 20 12 12 19 20 8 20 12 23 15 24 23 7 2 5 14 16 10 8 18 17 19 16 17 21
31 11 8 32 14 3 2 3 4 12 16 8 5 7 5 7 2 2 2 6 5 2 5 5 7 13 21 20 24 15 18 11 12 14 12 9 9 13 18 19 19 19 18 18 19
8 5 18 34 6 3 3 5 6 9 14 7 7 8 5 5 5 3 5 8 7 6 5 2 5 4 17 19 21 10 19 10 11 9 8 8 10 7 14 18 20 21 20 20 19
6 3 20 25 6 3 5 12 7 9 9 5 7 7 5 6 4 3 3 6 12 7 0 4 3 11 17 11 21 24 18 21 11 10 12 9 8 3 13 12 15 18 16 13 14
5 3 9 12 5 7 9 7 6 12 10 8 7 9 6 5 3 5 4 4 12 10 5 4 4 10 9 11 8 20 23 21 19 9 16 12 5 10 5 1 4 9 12 10 10
3 4 3 3 1 7 10 6 9 10 5 6 9 6 9 3 3 2 4 4 9 8 8 3 1 9 14 9 3 6 8 23 23 17 18 21 17 6 4 6 10 11 12 10 10
3 3 2 5 5 10 8 4 10 9 6 7 2 10 11 4 3 4 7 6 4 10 6 4 1 3 2 4 4 8 10 11 16 22 22 20 26 20 18 18 18 11 9 10 11
3 2 1 5 7 9 4 3 9 10 9 8 5 13 12 6 8 7 10 5 3 6 6 5 0 2 5 9 10 12 12 13 15 17 16 21 23 14 7 14 19 21 18 15 15
2 3 2 2 6 3 3 6 12 14 8 4 7 12 14 9 10 13 12 13 13 9 4 5 1 2 5 5 10 14 21 16 15 14 15 21 17 13 15 17 16 19 19 17 16

GFSSW_925_spd_024.txt.gz
Wind_Speed
25 25 25 25 25 25 24 24 23 23 22 22 21 20 19 18 17 7 16 14 15 15 18 23 23 18 18 12 8 4 6 3 6 2 7 8 5 6 5 12 7 7 9 24 32
25 26 26 26 26 26 26 25 26 27 25 22 21 20 18 17 14 20 22 20 16 25 26 28 23 21 14 12 7 8 8 5 4 6 8 4 5 10 7 12 13 9 16 31 33
27 28 29 30 29 29 29 28 28 29 26 22 19 18 15 12 9 7 7 18 25 29 26 25 22 18 15 10 12 8 9 5 5 3 6 4 7 9 8 11 14 15 21 27 30
28 29 31 32 33 32 31 32 33 28 24 21 17 14 9 5 5 3 4 11 32 29 25 25 21 20 15 13 14 10 12 8 1 2 1 3 5 9 11 6 14 17 23 26 26
30 32 34 36 38 37 39 39 32 25 25 21 14 10 3 9 11 4 3 17 30 30 28 23 22 21 19 17 11 19 11 8 9 11 10 7 6 4 11 7 16 19 23 25 23
33 35 37 39 41 42 44 37 29 32 26 19 11 6 6 15 9 11 10 22 31 31 28 27 21 20 11 11 17 11 16 12 9 9 10 9 8 11 11 14 17 20 23 24 25
35 36 38 40 42 45 41 35 32 22 16 13 14 11 10 18 6 9 16 23 29 30 25 30 19 21 9 14 13 16 13 14 14 11 8 8 10 13 9 16 19 20 20 22 24
37 39 40 42 44 46 34 34 16 15 11 7 16 11 9 7 19 7 16 20 23 23 25 24 13 21 12 1 7 16 17 16 17 16 11 11 8 18 16 18 19 19 20 21 24
37 39 40 42 44 43 32 16 9 10 9 18 11 9 7 5 13 25 20 19 24 20 18 18 17 17 19 14 13 14 15 20 16 13 7 13 10 12 16 18 18 19 19 21 21
39 40 40 43 44 32 29 5 3 5 6 1 2 6 8 6 9 25 23 16 22 19 15 15 13 17 18 17 19 20 20 17 16 16 15 14 14 8 14 17 17 18 18 20 21
40 41 41 44 43 22 21 7 4 7 9 10 2 8 0 3 9 18 29 22 21 22 19 22 19 25 27 24 20 18 19 20 16 13 11 13 13 7 11 17 17 18 19 20 22
41 41 42 42 36 19 12 5 8 6 15 18 25 25 19 1 9 17 33 19 23 27 23 18 27 23 22 21 20 21 18 22 15 9 9 15 14 12 12 16 16 18 20 21 20
39 40 43 41 15 14 9 8 10 14 8 12 15 16 15 21 11 22 33 26 27 28 31 25 15 23 23 22 23 23 24 21 15 12 15 16 17 14 12 13 15 18 19 20 22
39 39 39 34 5 17 2 16 16 8 6 7 8 6 14 14 13 20 35 30 17 29 28 28 22 22 25 26 23 25 25 21 20 17 15 15 15 18 21 16 16 18 19 21 22
40 39 35 15 12 9 19 21 15 5 7 8 8 9 10 19 7 22 31 31 26 24 27 22 27 23 29 26 26 22 18 20 21 19 18 23 13 16 12 16 18 19 20 21 22
40 39 23 9 10 11 24 21 5 6 10 6 6 9 9 18 9 13 23 27 23 24 27 27 16 24 22 20 23 15 16 14 15 17 20 24 21 19 19 18 18 17 18 20 23
41 31 9 9 12 24 23 7 7 9 5 4 3 1 9 12 19 15 29 31 24 25 29 26 27 18 16 21 21 22 17 9 12 17 20 21 20 19 11 20 20 18 18 19 22
40 19 8 8 22 20 15 8 14 2 7 17 10 16 12 11 13 21 21 27 32 26 17 22 21 30 24 28 18 27 23 12 16 14 17 19 22 21 25 22 9 20 18 18 20
33 16 6 20 22 13 7 9 9 13 14 14 19 10 11 8 6 14 22 25 33 29 23 22 26 30 20 21 26 25 25 27 6 5 9 17 19 18 10 18 24 22 16 16 19
20 11 11 24 17 11 7 8 9 10 16 13 14 7 7 1 8 8 16 2 25 32 8 16 19 19 24 25 25 20 25 22 15 17 18 13 19 12 22 21 19 22 22 19 20
12 6 16 25 11 7 5 10 13 14 12 10 14 13 12 9 9 6 4 7 6 13 5 14 14 23 22 25 26 22 19 23 18 17 13 12 11 15 17 16 21 20 20 20 19
10 6 18 21 4 4 7 11 13 11 14 11 10 12 13 11 10 4 4 7 7 7 17 17 10 11 26 25 26 29 23 27 14 23 19 14 5 4 7 15 17 19 18 18 18
7 4 9 17 6 7 9 9 9 12 11 11 9 10 14 14 5 3 1 4 10 5 1 7 14 15 16 21 23 30 28 25 25 16 21 16 4 10 7 3 5 7 5 7 7
5 5 4 4 2 12 11 11 11 8 6 14 8 15 15 15 10 4 3 5 7 9 9 5 14 23 19 20 19 26 29 27 27 19 17 17 15 11 6 5 7 3 2 4 8
3 4 4 7 9 13 13 9 11 9 10 10 3 10 11 7 12 12 6 10 1 9 6 5 14 9 15 2 6 18 28 29 30 26 23 18 20 17 7 8 7 8 11 9 5
5 4 2 9 10 12 5 9 10 14 14 11 11 8 9 6 11 12 11 6 5 9 8 5 4 6 14 10 7 10 12 13 22 27 26 25 22 11 10 5 14 14 14 15 16
2 5 3 5 8 8 7 12 15 14 9 7 14 14 12 11 8 14 14 14 14 11 8 7 3 8 15 10 10 15 20 19 18 17 17 21 16 17 17 16 17 17 16 17 16

GFSSW_925_spd_027.txt.gz
Wind_Speed
23 24 25 25 25 26 25 25 24 24 23 22 19 18 17 17 19 13 17 14 20 16 16 20 25 23 22 18 19 12 11 8 4 7 17 8 15 7 11 12 9 4 20 28 33
25 26 27 27 27 27 27 27 27 27 26 24 20 17 15 13 17 26 29 23 25 20 20 25 24 22 18 19 16 15 1 11 8 10 11 7 11 10 12 12 14 12 24 34 34
27 29 30 30 31 30 31 29 30 30 26 23 19 16 11 9 15 15 10 39 26 26 24 25 24 20 21 17 20 17 9 25 7 12 7 15 10 8 14 12 15 18 26 28 31
30 31 33 34 35 34 34 36 32 28 24 21 19 15 7 8 6 8 3 19 32 28 26 25 23 22 21 23 18 19 8 23 7 8 4 3 10 10 8 15 18 19 25 27 26
31 33 35 36 37 37 41 38 30 31 29 24 17 11 5 10 17 5 4 14 24 32 32 25 25 24 23 20 16 19 19 10 6 7 6 2 3 4 9 8 19 20 24 25 24
33 35 37 38 40 40 44 33 34 30 21 14 11 8 10 19 12 17 8 15 23 34 32 27 22 24 22 21 20 14 17 14 10 11 12 10 9 8 11 13 20 22 23 24 24
34 36 37 40 41 42 42 33 31 18 16 11 11 14 15 20 7 9 18 20 23 32 25 29 26 19 24 15 18 19 10 16 16 14 9 9 10 15 18 17 21 22 22 23 24
36 37 38 40 41 44 33 31 18 15 17 7 14 13 10 6 24 13 17 22 23 28 26 25 27 21 24 18 12 19 19 18 19 19 15 12 13 16 19 20 20 21 21 22 24
36 38 40 41 41 45 26 24 9 12 6 12 11 14 11 4 17 28 21 25 26 25 21 20 22 18 21 20 15 20 18 24 21 22 18 17 16 18 18 20 20 19 20 20 22
38 39 40 41 42 31 30 18 10 5 2 6 9 7 10 12 17 24 28 25 23 20 18 18 15 18 20 20 21 22 24 21 23 18 14 18 19 15 19 20 19 20 20 21 22
37 40 41 41 36 25 28 17 4 7 15 15 8 16 4 13 5 20 30 25 21 22 21 24 20 27 29 27 22 22 21 24 18 23 22 18 18 15 17 17 17 20 20 21 21
39 41 42 38 22 20 21 11 9 10 16 22 30 29 31 7 11 16 32 23 25 27 26 19 28 26 24 26 27 26 26 24 22 13 11 15 20 17 14 15 15 19 20 21 21
38 40 41 37 13 15 8 14 16 17 9 19 27 27 25 25 17 24 31 30 30 31 32 28 19 27 26 25 27 28 28 24 20 18 19 14 19 17 16 17 16 17 20 20 23
36 39 36 32 7 19 8 20 18 12 7 9 10 9 26 21 20 25 35 32 20 34 32 30 26 26 27 27 26 27 26 23 18 19 17 21 16 20 17 18 19 19 20 21 22
39 38 28 9 15 11 18 22 17 8 7 13 11 7 13 25 11 30 37 33 26 26 29 32 28 23 27 26 26 24 20 24 23 20 19 22 19 18 24 25 21 20 21 22 22
37 31 18 10 15 15 23 21 9 7 10 7 7 10 15 24 24 24 29 33 30 27 28 30 21 24 22 24 22 21 16 19 22 19 20 25 21 19 17 20 24 24 22 22 22
37 19 10 11 13 22 21 12 9 11 3 11 10 6 16 19 25 19 33 33 30 29 29 28 32 24 21 22 24 18 19 13 16 18 17 25 24 20 20 19 19 20 23 20 19
33 15 8 9 20 19 18 11 15 18 15 22 19 23 19 20 22 24 28 27 36 32 19 22 25 34 22 27 25 27 25 16 21 18 17 24 27 24 25 15 18 20 20 21 21
29 12 4 18 18 15 10 11 15 12 18 19 26 21 18 23 15 25 28 28 32 33 31 25 31 30 25 24 27 23 26 28 22 22 15 20 28 24 21 26 20 15 22 21 23
24 20 4 20 15 13 10 15 19 14 19 16 21 18 22 11 14 19 28 24 28 36 30 28 20 28 32 25 28 25 25 22 16 20 19 14 15 18 20 16 26 25 17 23 20
15 7 13 20 18 9 7 9 10 18 13 14 21 22 18 21 27 17 17 6 6 13 34 33 22 16 25 28 27 26 22 25 20 18 13 11 11 17 19 19 18 20 25 21 19
11 7 16 20 11 5 8 9 9 14 14 15 20 21 17 11 17 17 17 10 12 13 18 35 13 21 31 28 27 26 29 27 17 24 17 12 1 9 9 10 19 20 18 23 21
9 9 2 15 7 10 13 15 10 12 11 11 10 18 20 18 9 16 15 9 11 14 6 9 17 16 22 25 28 31 30 24 26 18 21 15 7 9 5 2 13 16 15 16 18
6 5 7 8 6 9 11 16 14 5 7 13 8 11 19 19 17 11 11 13 8 10 15 9 17 23 19 25 24 29 29 30 24 19 17 19 15 13 8 8 7 7 7 10 9
4 6 6 7 10 13 14 13 13 8 9 14 3 7 9 8 17 10 10 16 8 6 10 7 15 20 26 18 20 28 29 30 30 24 24 15 19 15 13 11 12 12 9 5 6
5 5 6 10 9 13 15 9 13 13 17 15 9 15 9 11 13 15 14 11 6 15 11 10 12 19 24 24 5 14 26 32 30 27 24 23 14 18 17 11 9 7 6 5 6
8 11 5 9 10 10 10 14 12 10 12 9 15 13 15 8 14 17 13 18 16 15 13 11 9 12 17 22 11 16 20 20 24 27 22 22 19 9 6 4 3 6 8 9 9

GFSSW_925_spd_030.txt.gz
Wind_Speed
25 26 26 28 27 26 26 25 24 25 22 22 22 20 18 17 19 14 17 17 20 21 7 12 21 24 23 19 20 20 9 12 6 14 12 5 22 16 12 17 14 12 26 31 36
27 27 29 29 28 28 28 28 28 27 26 22 20 18 16 15 20 29 34 30 23 16 19 21 21 22 18 20 17 17 3 6 9 10 14 14 5 14 14 16 22 27 29 37 35
28 30 31 31 31 31 31 33 32 27 24 23 18 15 13 10 11 14 18 35 32 26 25 23 23 21 22 18 18 20 6 13 23 22 8 15 15 14 17 17 27 28 30 29 32
31 32 33 34 35 35 35 40 33 27 28 25 21 15 10 6 6 6 5 16 38 27 25 26 21 24 23 21 20 17 16 17 14 23 8 7 18 3 13 10 26 28 28 31 28
32 33 35 36 37 37 37 41 29 32 26 20 16 11 3 10 13 17 9 4 30 26 28 23 24 24 24 21 20 21 22 22 12 26 6 23 28 4 3 22 24 27 27 29 26
34 35 37 38 39 39 41 35 29 30 20 16 9 7 7 18 18 22 8 17 23 30 30 27 21 23 22 23 22 20 18 17 21 30 9 6 20 24 17 23 24 26 27 25 26
36 38 40 40 40 41 38 27 30 25 18 16 10 11 15 24 11 11 21 19 25 30 25 32 30 23 23 22 23 21 19 16 14 14 12 12 12 15 4 25 25 25 24 23 23
37 39 41 42 41 43 31 29 29 19 17 16 11 12 10 14 27 24 17 21 22 24 31 29 27 21 24 19 22 20 20 18 18 18 13 11 13 21 25 24 25 25 23 23 23
38 40 43 43 42 34 32 33 27 14 14 3 11 13 10 6 23 29 22 24 24 24 27 30 23 22 20 21 20 21 19 22 21 20 19 18 15 14 23 16 25 23 22 22 20
39 41 44 42 40 29 33 34 17 5 3 7 16 9 12 15 15 27 29 25 22 20 21 23 17 20 21 19 21 22 21 19 22 19 22 20 13 11 16 16 25 25 24 21 23
38 38 40 41 35 25 32 24 13 4 10 20 11 15 14 11 7 19 31 24 23 23 24 24 19 25 30 26 22 23 21 24 20 22 24 22 19 18 13 20 19 22 23 23 23
40 41 43 38 30 21 22 15 16 15 23 21 29 34 41 35 16 16 29 25 26 28 26 22 28 27 26 25 26 28 25 24 23 23 19 22 20 18 23 32 32 22 21 24 23
41 41 42 36 22 18 14 19 22 23 14 23 31 30 33 28 27 20 29 31 29 30 30 28 19 27 26 26 28 28 27 24 22 22 19 19 21 19 21 23 11 27 28 25 25
44 43 38 33 8 21 17 23 24 20 8 11 13 11 27 25 29 27 30 30 27 32 30 27 32 29 27 29 26 26 27 25 25 21 18 20 14 17 19 19 19 15 18 14 25
42 39 30 20 19 15 25 26 23 12 8 8 9 6 11 28 9 35 32 31 32 25 31 30 26 30 28 28 26 24 24 25 25 23 19 20 16 14 22 22 21 24 23 35 23
44 35 25 15 16 16 25 24 16 6 10 8 11 22 9 26 32 11 32 28 28 26 28 31 26 25 25 25 26 24 22 23 23 18 17 23 19 19 18 22 20 22 21 23 21
45 35 21 17 10 24 22 12 7 9 16 18 27 28 27 19 28 30 31 31 28 31 28 29 34 29 27 22 25 22 21 14 14 16 16 21 21 15 20 25 21 22 22 20 23
47 32 18 16 19 20 18 10 11 13 25 31 24 26 23 20 18 27 26 28 33 30 17 23 26 36 23 31 25 28 25 15 22 17 17 23 25 21 23 19 26 26 24 23 22
44 23 18 4 19 15 9 10 7 18 16 20 27 20 22 29 22 19 31 30 32 34 32 23 30 31 33 26 26 23 25 24 21 20 16 18 25 22 25 24 21 16 22 23 24
31 23 24 11 17 17 10 15 9 10 18 20 21 21 23 26 24 25 17 25 27 33 31 28 18 30 33 26 28 27 22 21 17 20 19 19 22 19 22 25 22 16 16 20 22
16 7 9 16 17 10 10 13 20 17 19 17 18 20 18 20 20 24 10 10 24 18 31 30 24 22 29 31 27 22 21 25 19 16 14 13 14 17 25 22 21 22 18 18 20
12 8 15 14 12 8 9 10 7 16 20 17 13 15 10 17 14 16 19 12 30 28 16 34 23 21 27 27 30 28 28 25 13 22 15 14 4 12 15 21 17 12 21 15 15
9 12 7 18 7 10 14 15 17 13 20 11 18 15 17 13 10 14 17 27 30 28 14 12 19 20 26 23 29 32 29 26 22 18 19 14 7 8 11 12 16 16 18 19 13
6 7 9 9 11 16 15 15 18 8 15 13 12 14 16 13 13 9 17 15 28 28 15 8 10 21 19 21 19 27 29 28 25 17 16 18 7 8 8 4 10 13 9 11 12
4 5 9 8 12 14 16 14 19 18 7 14 17 10 14 15 13 9 16 26 25 22 23 8 13 19 29 24 22 26 27 29 30 21 22 18 18 15 11 9 9 9 5 9 12
3 4 7 13 17 15 12 7 14 16 12 16 17 15 16 14 11 14 16 15 10 22 20 19 8 13 17 22 19 18 31 29 29 29 23 24 18 19 15 11 10 12 8 8 8
1 7 5 9 14 12 11 15 16 17 14 15 11 18 19 15 15 15 17 15 17 21 18 14 12 9 16 17 21 19 16 28 26 24 24 20 17 17 20 17 14 12 8 6 2

GFSSW_925_spd_033.txt.gz
Wind_Speed
27 27 28 27 27 27 26 25 26 29 23 22 22 20 19 19 20 12 12 19 21 14 7 12 16 18 21 11 15 15 5 8 10 10 4 4 9 10 21 25 9 5 21 27 37
29 30 31 31 29 29 29 28 29 28 23 22 21 18 16 17 18 20 31 26 25 14 17 16 14 16 15 13 9 6 4 13 8 4 12 12 12 12 23 22 22 26 24 34 34
33 34 35 35 34 34 33 33 33 27 24 25 21 17 14 11 7 10 10 30 31 28 21 21 18 16 16 16 16 15 9 6 12 13 19 19 6 6 18 20 30 30 29 27 28
34 35 37 38 38 37 36 38 32 25 27 23 17 14 8 0 4 6 8 2 31 30 18 23 17 17 14 17 19 16 10 10 14 7 7 11 13 14 8 17 28 32 29 27 25
35 37 39 40 40 38 39 35 28 26 27 18 14 7 2 5 12 10 18 7 25 34 26 18 18 17 20 17 19 17 12 17 16 6 2 16 17 12 14 27 27 27 28 25 22
36 39 41 42 40 40 37 33 30 29 24 16 10 3 4 9 16 20 7 13 25 33 26 21 11 13 12 20 18 15 19 16 6 18 13 8 8 9 26 29 28 29 28 24 22
39 41 43 45 41 41 35 33 33 35 22 13 7 8 9 19 10 11 26 21 26 35 18 28 28 15 18 13 20 19 13 16 12 27 10 17 2 8 31 28 26 26 26 25 24
41 43 43 45 42 36 34 36 40 28 13 11 8 9 9 19 18 29 15 22 25 30 28 25 29 16 17 10 18 18 18 13 24 22 16 17 17 15 27 30 28 27 25 24 25
40 42 44 45 41 32 33 38 26 20 3 1 8 7 11 16 11 28 21 23 27 25 29 26 22 17 17 15 13 12 12 11 11 18 12 8 9 19 20 24 22 21 21 22 23
44 45 46 45 41 31 33 33 27 6 2 3 7 4 10 5 11 18 21 21 16 14 15 17 10 16 15 12 16 8 8 9 13 15 11 9 7 23 21 25 19 0 14 18 18
44 46 47 43 39 27 36 20 11 3 10 11 18 22 42 28 34 19 27 20 15 16 17 18 11 21 22 18 11 10 17 15 13 11 8 16 8 27 18 19 16 6 13 18 19
46 47 47 43 36 23 22 12 14 18 20 21 28 30 38 37 16 18 28 17 19 20 19 13 24 19 15 16 18 18 21 21 12 17 15 16 12 23 26 27 29 28 24 21 21
45 47 45 40 24 18 29 24 27 27 8 19 15 15 20 15 20 31 14 23 16 23 25 25 14 20 19 20 23 23 20 19 13 15 16 11 21 20 21 23 11 20 23 17 25
45 46 43 43 7 27 15 30 29 25 5 9 4 6 1 12 12 29 27 21 19 24 22 25 22 26 25 24 21 21 18 20 21 14 8 13 10 11 21 15 17 23 22 24 24
45 45 43 28 20 8 21 32 29 17 5 12 17 15 39 9 6 14 34 22 27 22 21 26 25 28 28 26 21 16 16 21 22 15 7 18 3 16 22 13 20 24 29 21 18
48 45 40 18 16 19 26 30 23 3 5 8 21 26 32 27 23 17 12 20 14 23 21 25 15 22 26 19 18 17 12 9 15 12 13 16 6 6 16 16 26 30 28 29 25
53 48 26 13 6 18 25 12 4 3 18 14 27 27 30 23 22 26 16 19 19 23 26 19 30 23 16 19 21 17 12 8 10 13 12 8 8 8 7 16 15 25 33 31 23
53 37 13 18 23 22 20 8 7 8 16 20 20 23 17 25 26 32 22 17 21 21 10 17 19 31 20 21 16 22 20 5 9 10 11 8 11 9 9 8 9 20 35 28 23
52 24 14 17 16 17 6 6 6 6 10 14 18 17 19 22 16 22 24 11 19 24 23 17 25 14 28 15 18 20 19 12 3 6 4 5 10 11 18 15 8 11 18 26 31
38 11 11 3 12 11 4 12 7 14 13 15 18 17 18 15 15 19 14 12 24 24 17 23 10 21 21 23 22 18 12 12 9 10 10 9 16 17 14 21 13 10 10 21 31
16 6 6 9 16 5 7 7 14 14 14 11 18 16 15 7 13 15 10 27 25 25 29 18 18 28 17 26 28 12 13 15 6 5 6 5 9 18 21 21 15 16 11 28 24
9 5 15 22 6 4 6 11 13 13 14 12 14 12 10 13 7 14 12 10 24 23 23 16 8 17 27 16 25 16 16 18 11 14 6 5 10 9 12 26 19 18 10 15 21
7 4 12 24 5 8 12 15 15 10 11 13 7 12 15 5 5 8 9 12 15 25 17 15 5 9 18 13 16 30 23 16 9 5 13 5 6 6 10 21 15 14 10 9 15
4 5 5 7 10 15 13 14 13 9 7 10 9 14 11 10 4 7 14 11 17 24 33 22 10 11 11 16 8 25 22 21 13 13 16 8 7 8 9 10 9 10 10 11 12
3 4 7 5 8 16 17 15 12 12 8 6 9 11 13 11 9 7 13 18 19 22 16 11 7 12 14 14 13 17 25 22 23 13 17 12 7 5 2 7 7 7 8 8 10
2 2 3 7 13 14 12 11 18 17 14 11 12 9 13 13 3 13 16 9 5 16 17 17 7 16 5 11 14 18 26 23 21 19 10 14 8 8 7 9 13 10 11 12 10
3 1 1 5 8 11 9 14 18 16 10 15 14 14 10 14 14 16 11 13 12 13 17 15 10 10 5 5 6 3 14 24 18 18 16 13 8 6 7 12 13 11 10 10 10

GFSSW_925_spd_036.txt.gz
Wind_Speed
27 28 29 28 27 27 26 24 26 25 23 21 21 19 17 16 18 13 11 19 24 14 9 19 16 15 14 5 8 4 2 1 4 12 7 12 8 10 3 17 4 7 8 21 35
30 31 33 32 31 29 29 28 26 25 21 21 21 19 16 14 15 16 37 31 24 26 16 19 10 11 5 5 5 6 3 6 10 10 11 8 4 4 7 11 13 18 24 33 35
35 36 37 37 36 33 32 31 28 25 23 24 19 16 13 8 5 10 4 18 32 27 23 20 16 7 6 5 10 6 6 7 9 15 12 12 12 11 14 7 15 26 27 27 32
36 37 39 41 40 38 36 32 29 26 24 22 16 12 5 0 5 3 4 2 27 31 28 11 5 8 6 11 14 6 19 12 10 13 7 8 10 13 15 9 16 26 31 27 24
38 39 41 42 41 39 37 34 32 31 27 21 11 7 2 1 12 9 9 6 31 34 26 14 10 8 10 12 14 16 21 17 16 15 12 5 8 4 8 21 20 23 24 24 20
39 41 42 42 40 38 35 34 36 39 28 12 3 2 3 5 10 10 16 12 35 30 23 14 10 12 5 9 15 7 22 18 6 7 3 11 4 3 15 25 25 25 23 20 20
39 41 43 43 39 37 32 34 37 35 23 6 4 5 4 18 6 5 10 16 31 41 13 26 21 13 10 9 23 18 18 15 12 9 5 7 4 7 22 26 25 24 21 20 18
41 43 44 44 40 37 32 35 31 28 11 2 6 7 9 15 13 20 20 13 20 39 27 31 27 5 3 7 9 11 15 16 12 12 10 12 8 14 21 23 24 23 21 19 18
44 45 46 45 42 36 33 30 26 12 10 7 8 6 11 15 3 14 19 11 22 26 23 16 10 6 3 5 5 4 8 6 12 19 6 13 8 20 24 22 24 24 23 20 19
43 45 47 45 40 32 28 22 25 4 6 2 2 4 6 3 12 30 16 18 8 11 5 10 6 5 10 5 12 6 5 6 11 12 20 18 15 27 26 26 28 24 22 24 21
44 46 46 45 40 26 26 17 10 5 13 9 16 14 25 27 31 12 11 16 12 6 9 10 11 17 25 15 6 5 8 8 10 13 7 16 17 30 29 25 23 23 23 26 28
44 48 48 44 35 16 20 4 8 13 11 11 15 13 29 19 10 20 13 11 10 17 12 4 20 21 7 12 14 14 9 11 16 16 5 6 20 30 29 28 28 25 24 23 22
46 48 46 42 22 14 21 13 27 27 2 10 3 3 6 2 4 17 4 7 6 12 17 20 6 16 16 15 17 15 14 13 9 8 5 5 10 21 16 16 18 20 21 21 23
49 48 47 37 5 24 13 25 32 24 3 6 7 6 18 15 3 29 10 7 9 19 16 17 23 22 20 21 18 17 18 18 13 8 9 7 7 14 20 19 18 18 19 24 22
50 47 45 16 13 9 19 31 37 2 3 6 6 5 12 10 13 14 34 11 18 14 10 23 24 26 24 25 19 19 12 16 16 6 3 13 2 7 24 22 21 22 22 18 23
53 51 30 4 10 14 21 36 9 5 4 5 9 17 26 16 14 16 16 19 12 21 20 22 9 23 30 21 20 10 11 9 11 4 9 21 7 4 21 27 28 24 23 21 22
55 43 13 7 5 19 27 10 5 3 10 10 13 21 13 18 16 15 20 15 9 7 22 20 22 23 11 21 16 14 8 8 7 8 10 15 6 11 27 30 33 32 26 25 24
56 29 8 12 16 21 14 5 5 9 3 7 11 11 11 18 8 17 17 17 16 21 5 17 21 24 19 9 20 17 12 6 13 6 12 4 7 7 14 30 25 29 32 29 25
52 28 7 4 9 12 5 4 2 4 4 6 7 6 13 10 10 12 11 3 13 20 11 6 20 14 26 20 20 10 19 11 6 2 3 5 5 4 11 8 14 26 22 27 28
32 15 13 24 16 5 4 5 2 5 4 5 4 4 10 5 9 11 7 6 20 21 20 7 8 28 22 19 18 21 8 10 4 7 5 5 6 10 10 13 10 24 27 29 27
11 4 7 29 17 5 3 4 1 6 7 4 3 3 6 4 4 8 7 17 11 22 17 16 5 7 1 19 29 7 15 6 6 6 7 3 11 7 12 10 13 20 28 29 27
9 4 13 35 4 2 2 5 4 4 7 3 3 3 3 3 5 5 7 5 13 15 14 14 6 6 14 8 2 20 9 11 9 11 3 5 10 4 14 15 16 14 25 30 30
5 4 11 15 4 4 6 7 3 1 2 3 3 3 3 4 3 3 3 9 13 9 8 9 4 7 6 5 6 5 15 13 6 5 11 11 11 1 7 9 17 27 24 28 30
3 4 4 4 2 2 6 5 8 7 4 4 5 3 3 2 6 5 2 5 10 11 9 10 5 7 6 4 8 4 9 13 17 9 10 14 10 9 13 17 8 16 14 18 30
0 2 1 4 5 10 3 6 9 7 4 5 4 3 4 3 6 3 9 6 9 9 5 4 6 7 18 24 21 20 6 19 14 14 15 12 7 10 11 12 6 7 9 16 25
1 2 3 4 7 6 6 4 9 14 9 6 7 13 5 4 6 7 12 5 5 5 3 5 5 9 11 12 15 11 7 7 18 15 7 8 9 6 6 11 7 7 13 17 24
1 1 2 2 3 4 3 10 18 14 8 15 12 7 6 9 8 11 11 11 10 5 5 4 3 5 6 9 7 2 10 7 14 8 13 6 9 5 9 9 12 6 14 10 13

GFSSW_925_spd_039.txt.gz
Wind_Speed
26 27 28 28 27 25 24 24 23 21 20 20 21 20 17 15 16 10 9 16 28 10 13 26 14 11 12 5 4 4 1 3 4 5 2 5 5 7 4 10 3 4 7 14 33
30 31 32 32 30 28 26 25 23 22 20 20 21 19 14 12 13 15 33 24 16 18 23 24 12 10 4 5 4 3 2 6 7 10 4 2 1 1 3 8 4 8 19 32 34
33 35 35 35 33 31 28 26 24 23 23 20 19 16 12 5 4 8 12 18 28 30 25 21 18 7 5 3 5 6 6 7 10 8 11 8 7 5 8 4 7 17 23 27 32
35 36 37 37 35 34 31 28 27 28 26 17 12 8 6 0 3 2 11 0 32 33 21 15 7 8 6 8 6 5 11 8 6 11 10 7 6 7 13 5 12 22 27 28 26
37 38 39 38 36 35 30 28 30 28 27 14 4 3 1 1 10 5 9 5 29 36 23 11 10 6 8 7 5 16 14 6 14 13 12 5 12 8 20 7 18 22 24 25 22
39 40 40 40 38 36 29 29 29 25 24 11 4 3 3 3 4 10 3 12 29 30 18 10 10 8 6 3 15 4 14 16 12 13 6 13 7 6 2 18 20 23 25 23 23
41 42 43 41 40 36 27 26 25 24 14 9 9 3 1 14 1 15 4 13 31 31 15 21 8 11 6 1 15 10 11 8 10 12 5 8 4 6 15 18 21 22 21 20 20
41 43 44 41 41 35 26 26 23 17 11 7 8 3 7 7 15 11 14 9 20 25 9 20 17 5 3 4 6 3 5 3 9 9 8 10 6 13 20 22 20 20 20 19 21
42 44 44 43 40 31 25 23 20 7 8 10 6 3 10 16 14 18 21 8 19 24 18 8 5 4 1 2 5 3 4 6 6 11 6 8 6 17 19 20 22 20 20 19 19
43 47 44 44 39 25 25 13 14 4 6 1 0 1 3 14 20 26 14 10 5 8 3 4 4 5 2 5 11 6 4 5 7 5 13 9 3 20 21 20 22 21 20 20 22
44 46 47 44 35 17 25 5 6 5 6 4 13 4 9 18 11 12 12 3 6 4 7 6 6 19 29 20 4 4 4 5 5 8 8 12 10 20 22 18 17 20 20 20 22
46 46 53 42 26 10 16 5 7 5 9 8 7 5 14 9 3 13 20 2 5 7 6 5 18 21 7 7 12 8 6 6 10 5 5 6 15 20 23 26 25 24 22 21 19
48 50 51 34 12 9 9 5 13 15 1 7 5 4 12 4 1 7 11 5 5 10 14 13 5 15 12 14 13 16 15 8 9 5 4 5 7 17 20 9 14 16 21 19 23
48 50 40 25 3 13 7 18 26 3 4 5 7 7 12 5 7 17 14 3 5 9 14 15 20 13 20 17 15 18 13 14 13 1 4 5 4 8 15 18 19 20 21 21 23
48 50 31 10 8 5 11 25 21 5 3 4 4 7 7 8 8 13 20 5 2 9 6 17 13 17 20 22 18 13 8 9 10 3 3 5 2 6 19 17 23 23 25 23 24
48 48 21 7 7 8 19 29 3 5 4 2 3 8 9 11 5 7 9 5 4 6 14 16 9 16 25 15 16 5 6 6 1 2 11 14 8 6 14 21 23 25 26 25 23
47 40 12 8 2 11 24 5 4 2 6 4 3 6 5 8 7 11 13 16 8 9 7 10 24 15 8 19 13 10 9 2 5 6 15 8 8 13 17 26 27 29 30 26 22
45 30 10 15 23 19 7 5 3 2 1 3 5 5 5 10 4 8 6 4 13 6 3 5 13 21 14 13 17 15 12 6 9 7 12 6 8 6 15 19 28 28 30 21 17
44 25 10 27 25 8 5 3 4 2 3 4 6 3 3 2 2 8 5 2 6 14 6 6 8 13 22 15 18 9 21 9 5 2 3 7 5 7 7 15 18 25 21 21 20
29 12 6 28 23 3 4 5 2 3 4 2 1 2 4 4 4 5 2 2 3 11 11 3 9 9 12 25 17 15 10 11 4 9 10 3 6 8 11 11 11 20 19 23 22
7 4 9 29 6 4 3 5 2 2 3 2 1 2 3 1 2 3 4 4 6 8 6 6 5 11 8 11 29 11 11 8 7 4 11 1 12 8 12 14 15 16 21 22 22
6 3 18 26 4 2 2 7 5 2 3 2 1 5 2 3 4 5 5 4 5 6 3 3 5 7 10 12 17 24 8 7 13 13 1 3 12 4 11 13 19 19 18 20 20
5 3 8 11 3 4 7 5 3 3 4 2 3 4 3 4 3 5 6 4 6 3 0 2 3 5 7 3 5 3 17 9 6 6 10 14 11 6 4 5 12 12 13 14 22
2 4 4 4 3 3 4 5 4 7 3 3 5 3 2 4 6 4 5 4 6 6 11 6 3 7 5 1 6 8 9 9 10 7 8 15 20 16 15 7 7 9 14 17 21
2 1 1 4 2 2 3 4 7 5 5 6 4 4 3 5 4 6 7 5 7 5 2 3 6 7 16 20 18 18 19 17 7 11 14 8 11 16 12 7 8 9 14 20 25
1 2 2 3 3 5 3 2 8 5 4 4 5 16 13 7 9 7 7 6 7 9 4 4 4 4 7 13 18 9 11 14 15 8 6 6 14 3 2 2 8 10 10 11 21
2 1 1 3 2 2 2 3 6 12 7 6 8 13 9 9 8 9 9 12 7 10 8 5 3 3 6 4 1 4 9 9 4 13 3 9 2 10 3 9 11 14 9 15 19

GFSSW_925_spd_042.txt.gz
Wind_Speed
26 28 27 26 24 23 22 20 18 18 17 18 18 18 18 13 12 6 8 16 23 15 19 25 15 15 13 3 5 4 1 3 4 5 4 4 3 7 3 9 5 4 6 16 32
30 31 31 30 27 27 24 21 20 19 19 19 17 16 12 10 9 11 17 16 16 20 28 26 9 13 6 5 3 3 2 5 5 5 5 7 4 7 5 10 4 10 18 32 32
33 33 34 32 31 29 26 23 23 23 20 20 15 11 9 6 3 6 18 8 23 27 28 21 21 7 6 5 5 5 5 4 3 6 6 8 3 5 7 7 7 14 22 26 30
34 35 35 33 32 30 26 24 25 23 21 17 11 4 7 2 1 11 21 3 28 27 24 17 11 9 6 6 6 4 8 6 3 5 2 1 4 3 9 4 11 21 27 25 24
34 37 36 36 33 31 24 23 26 23 21 13 6 2 1 1 6 19 13 8 25 29 23 8 16 6 7 6 4 11 6 4 10 8 5 5 8 5 9 9 15 21 23 23 21
37 39 38 39 36 31 22 23 27 22 14 12 2 1 1 1 4 19 6 15 26 26 17 10 10 5 5 5 9 6 15 9 8 11 7 12 5 6 5 16 18 23 23 21 21
39 39 38 40 37 30 21 23 27 18 9 11 9 4 3 7 12 9 3 6 21 24 7 10 5 9 5 2 8 10 6 4 6 5 5 3 3 6 10 16 19 20 20 19 18
40 41 40 41 37 27 21 25 19 9 8 7 7 1 4 7 12 15 14 5 16 18 1 9 2 1 2 3 4 6 5 1 3 7 6 9 7 5 16 18 18 20 20 19 19
42 43 42 40 36 23 21 20 12 5 8 10 3 1 5 17 14 14 12 3 13 19 8 2 3 1 2 1 4 5 4 6 3 8 3 6 4 9 15 17 19 20 20 19 19
42 44 46 40 32 18 21 7 9 6 5 1 1 1 7 9 17 17 12 6 4 8 2 1 3 2 3 5 6 6 4 4 4 4 7 7 6 11 13 15 19 19 19 20 20
43 45 49 40 26 16 19 1 6 5 10 0 8 3 6 14 4 19 17 4 5 4 7 5 4 17 27 9 3 3 4 6 4 5 5 9 9 14 14 11 15 17 18 20 22
45 46 49 36 15 13 19 7 7 4 6 4 5 4 12 5 3 19 24 4 3 4 5 3 12 12 5 6 6 5 3 4 4 3 6 5 13 12 18 22 23 22 20 20 18
45 46 45 29 5 9 10 11 10 3 3 7 4 3 13 2 4 14 9 5 3 4 7 6 6 11 9 6 10 12 10 6 2 3 5 5 5 6 12 8 14 14 15 17 20
44 45 40 24 3 10 2 9 19 8 4 4 5 7 12 2 5 8 12 4 3 3 7 7 14 6 10 15 11 10 11 15 8 2 3 4 5 6 10 17 19 16 18 18 19
43 45 32 14 8 3 7 23 2 3 3 3 4 4 6 6 5 8 13 6 3 5 2 6 4 11 11 17 12 12 7 12 12 4 2 5 0 7 12 12 16 19 20 19 20
43 42 24 8 9 9 22 18 3 5 4 1 2 4 5 6 4 5 6 6 3 3 2 7 5 4 11 14 17 5 2 5 3 3 11 11 10 6 7 12 17 19 20 20 20
42 36 11 9 9 17 15 3 4 4 3 2 2 4 3 5 6 7 5 11 5 7 7 8 5 5 10 4 14 10 11 1 3 5 14 8 12 10 7 14 16 22 23 23 21
40 30 5 18 22 9 4 5 3 2 1 1 2 1 3 4 3 6 4 3 12 6 2 4 6 5 7 14 8 15 12 6 8 5 13 5 8 6 19 10 19 20 23 17 18
41 22 3 24 17 5 5 3 4 1 2 2 3 3 3 3 2 3 5 3 3 5 4 5 6 11 9 5 13 6 18 10 4 1 2 10 4 7 8 17 15 20 15 16 20
30 11 6 28 9 2 4 4 4 1 1 3 3 2 2 2 1 2 1 2 6 5 6 3 8 7 11 7 12 16 9 11 4 9 5 4 6 9 8 11 12 13 16 17 19
8 4 16 27 3 5 3 4 4 4 1 6 6 4 5 3 5 4 4 2 4 6 4 4 4 9 11 7 14 10 14 10 8 6 9 1 5 8 12 15 13 17 16 18 19
6 3 21 25 4 2 2 5 6 2 2 3 4 6 6 6 3 5 7 5 8 7 3 2 4 7 9 18 9 7 6 10 12 17 3 4 9 4 11 12 10 14 15 17 20
4 3 13 13 4 4 6 5 4 3 3 2 3 6 4 5 2 5 4 5 10 7 6 7 4 6 7 10 4 5 8 9 3 6 19 15 6 2 6 7 10 11 9 13 19
3 4 4 5 2 2 5 4 5 5 1 5 4 2 2 1 3 3 4 6 9 6 7 6 6 9 7 4 6 7 12 7 3 8 11 17 10 9 8 5 5 7 8 8 9
2 0 0 4 3 3 3 4 7 5 4 7 3 4 4 3 2 4 5 3 6 9 4 3 7 12 21 21 17 17 16 14 5 7 11 8 17 13 14 10 10 9 8 8 10
2 2 2 2 2 6 2 2 5 6 2 5 7 8 7 4 6 8 6 5 7 8 7 5 6 6 11 17 18 19 17 17 14 7 8 6 6 3 4 2 1 4 6 11 15
0 0 1 2 2 3 1 4 7 10 7 15 8 6 8 14 10 11 10 7 8 9 12 6 3 3 6 5 10 8 11 5 7 10 2 8 2 9 2 4 5 8 10 10 11

GFSSW_925_spd_045.txt.gz
Wind_Speed
27 28 26 25 25 25 22 18 17 17 18 18 18 15 11 10 8 2 6 6 14 14 24 22 15 16 9 8 5 3 2 4 3 6 3 6 5 6 5 14 5 6 8 24 32
29 30 28 27 26 25 23 19 20 21 18 20 18 13 8 7 4 8 4 10 10 23 27 27 17 19 6 6 4 5 3 4 4 5 3 6 8 11 6 14 5 9 18 29 32
29 31 30 30 28 26 23 19 20 22 19 20 14 9 5 5 3 2 18 13 19 26 23 18 24 14 9 9 7 5 4 3 4 5 2 7 10 7 12 9 9 16 24 28 32
32 32 31 32 31 27 22 19 20 23 20 15 11 4 2 2 1 6 20 6 28 24 24 18 15 10 8 9 10 5 9 8 3 3 5 8 7 5 9 2 13 22 27 31 26
33 34 34 33 31 28 21 19 21 21 17 10 8 2 1 1 3 18 13 11 23 24 27 15 19 11 11 9 7 13 5 3 7 6 7 6 6 4 7 4 14 21 27 28 26
35 36 37 35 31 27 19 19 23 15 10 9 5 4 1 4 6 9 9 12 17 19 24 18 14 11 9 5 9 7 16 10 6 7 7 10 12 3 3 13 19 24 27 28 29
36 37 39 37 32 25 17 19 20 11 8 11 8 3 1 6 7 11 4 6 14 14 18 8 6 13 5 7 8 12 6 5 9 9 6 4 5 8 14 17 20 23 23 25 26
38 39 41 38 30 21 17 20 9 5 9 7 8 2 3 10 13 13 4 3 13 12 7 6 7 8 3 3 2 6 7 4 2 12 7 8 3 7 17 18 19 21 22 24 26
39 39 40 37 27 16 18 10 5 7 7 8 2 2 4 11 14 17 8 4 12 15 1 6 4 3 5 4 4 5 7 13 6 10 8 12 3 7 15 16 18 20 23 23 23
39 39 41 34 20 16 13 7 7 6 4 2 1 1 6 9 12 13 7 13 5 15 6 3 7 8 7 11 10 11 12 7 12 8 13 10 11 8 13 13 16 19 21 23 23
40 41 43 32 11 15 8 2 3 1 7 5 3 2 8 15 5 17 9 10 13 9 12 6 10 20 20 12 13 2 6 12 7 6 10 16 13 11 14 13 15 18 20 22 24
40 41 42 25 6 10 17 5 4 3 4 2 5 3 7 4 4 21 14 2 6 8 10 6 17 15 10 13 12 18 12 8 7 5 9 10 16 11 17 20 20 22 22 24 22
40 40 39 20 4 6 11 8 9 1 1 3 2 5 8 3 6 13 13 3 4 10 15 13 2 15 13 13 16 17 19 15 7 7 11 6 14 12 12 14 15 17 19 20 23
39 39 34 13 2 5 2 11 18 8 2 3 1 4 11 1 4 12 12 4 1 6 11 11 16 8 14 18 17 18 15 17 15 8 8 10 13 16 14 17 19 19 20 22 23
39 37 27 9 4 2 6 19 5 2 3 4 3 2 5 6 5 11 10 4 2 0 2 8 9 15 18 16 15 16 8 16 18 17 13 14 8 17 8 16 19 22 22 23 23
39 34 16 7 4 9 15 4 3 2 5 3 2 4 3 7 3 8 8 6 1 2 2 6 6 5 10 16 16 4 11 10 13 14 18 23 15 15 17 17 19 19 22 23 24
38 32 2 6 7 15 9 3 2 4 1 2 3 2 4 3 3 6 5 10 5 1 1 4 5 4 12 9 11 15 10 6 8 9 17 19 17 19 13 16 17 20 24 26 24
36 19 2 7 17 6 1 1 6 2 1 2 0 2 2 1 2 5 4 3 8 3 2 2 7 1 8 15 12 16 18 8 13 10 13 16 14 15 23 20 16 17 20 20 23
37 9 5 19 10 2 1 2 2 3 1 3 2 4 4 3 1 1 2 3 1 4 2 2 6 6 9 9 8 16 19 20 15 4 10 14 18 12 13 18 24 18 14 20 23
20 7 7 25 3 2 1 3 2 2 1 3 4 3 4 0 2 1 3 5 6 2 5 3 7 2 8 8 13 13 13 17 13 18 19 7 19 12 22 17 19 22 17 18 21
5 1 15 19 3 3 3 1 3 3 1 5 5 4 6 4 6 5 4 4 7 7 2 4 4 2 8 4 10 14 14 16 18 19 11 16 9 11 19 21 19 19 21 20 20
6 1 21 18 4 2 2 6 5 4 1 3 3 7 8 7 6 6 8 5 10 9 4 4 3 5 13 17 22 17 11 22 14 23 19 16 13 4 14 21 22 21 18 21 21
3 3 12 9 3 4 5 4 4 4 4 3 3 5 5 8 4 8 6 6 11 9 6 7 3 5 11 11 18 11 17 17 24 21 23 17 14 14 8 9 12 16 17 14 19
2 3 4 5 3 3 5 4 6 6 2 4 4 2 3 6 5 2 6 9 12 7 8 6 4 7 12 17 11 10 12 16 20 21 21 21 21 22 14 8 9 9 10 10 13
3 2 1 4 5 6 6 5 7 6 6 7 4 7 6 6 5 8 7 6 11 11 8 7 7 8 14 20 24 26 26 26 20 23 22 22 22 24 22 23 19 13 9 4 8
2 2 1 1 2 4 1 2 6 6 2 5 9 11 9 7 10 7 7 8 11 12 11 8 6 9 18 23 23 28 29 26 23 24 19 17 15 2 9 14 13 11 9 11 11
2 2 0 2 3 3 3 4 8 12 7 12 11 1 5 10 13 17 13 13 12 9 12 9 5 7 21 17 17 22 30 25 21 17 21 22 15 7 4 3 1 4 8 11 13

GFSSW_925_spd_048.txt.gz
Wind_Speed
26 26 25 25 23 22 20 15 13 14 17 16 16 10 8 6 6 4 7 3 6 17 22 21 20 18 19 13 9 5 5 3 2 2 7 9 6 10 9 10 6 9 3 22 35
28 27 27 27 26 24 21 16 14 15 16 16 14 9 6 4 5 10 5 6 6 26 23 26 20 20 13 14 8 9 7 3 4 1 3 9 7 13 9 14 8 8 16 34 35
29 28 29 28 27 25 22 16 16 18 15 14 10 8 4 1 5 7 10 15 9 32 24 22 21 19 15 13 13 10 10 5 2 3 8 9 12 8 9 11 12 17 25 29 33
30 31 31 29 27 26 22 17 16 20 15 7 8 5 2 3 1 7 16 8 22 27 23 23 19 19 15 13 15 11 9 8 4 5 10 3 8 6 6 6 14 20 27 31 28
31 32 33 33 28 25 21 16 17 18 10 6 9 5 2 5 5 11 14 7 28 27 27 20 21 17 15 14 8 16 8 5 6 9 8 4 5 2 9 6 14 21 27 28 25
32 33 34 36 29 24 19 16 19 13 7 7 2 4 4 4 5 8 8 13 23 24 25 21 15 13 9 7 14 3 16 8 4 9 7 10 8 7 6 12 16 22 27 27 28
33 34 35 37 29 23 17 18 15 6 6 4 5 1 5 7 5 5 2 11 18 20 19 19 6 15 5 10 12 12 6 10 15 17 10 6 11 9 14 14 17 21 23 26 25
34 35 36 36 27 17 19 14 7 5 4 5 6 3 6 5 4 6 3 12 15 11 16 12 11 16 8 2 6 15 15 13 15 17 12 9 7 12 16 16 17 20 21 24 26
34 34 35 33 20 17 15 5 3 7 5 6 1 5 5 1 9 7 2 11 17 13 8 11 11 11 13 12 11 12 12 18 10 14 12 13 7 14 14 15 16 18 20 22 24
34 34 35 29 13 17 8 2 3 5 3 4 3 5 7 6 8 7 4 15 12 18 9 14 10 11 13 14 13 15 17 13 16 13 18 15 10 12 13 14 16 17 19 21 24
33 34 35 25 7 11 7 4 5 5 7 7 6 4 5 4 5 9 4 9 10 20 14 15 15 19 19 17 16 8 12 16 14 13 14 18 14 14 14 14 15 17 19 21 24
34 34 35 21 4 8 8 4 5 5 2 3 1 1 4 2 1 11 2 8 12 17 18 11 19 18 15 14 15 16 11 13 9 8 11 18 19 15 16 16 17 17 19 20 22
33 32 32 17 2 3 7 6 7 3 5 5 1 2 7 3 5 10 9 2 11 16 18 17 5 19 14 15 17 18 18 14 11 4 14 14 16 17 17 14 16 16 18 20 23
32 30 28 11 2 4 1 8 11 7 5 8 6 3 4 2 2 7 9 3 7 11 15 17 14 6 17 18 17 18 17 14 15 12 12 20 14 21 18 18 17 18 19 21 23
33 31 21 7 5 3 8 13 1 5 5 5 4 3 3 2 4 5 6 4 5 7 7 11 13 19 18 13 20 16 12 13 14 17 16 15 12 17 24 19 19 19 20 21 23
35 31 12 2 2 5 11 6 4 7 4 5 3 1 2 3 2 4 3 1 1 6 11 16 0 7 20 19 11 4 15 13 14 14 18 23 18 18 20 22 21 21 21 21 23
33 22 2 2 4 11 7 4 6 7 3 6 3 2 0 1 1 4 3 2 5 10 14 13 15 12 11 13 21 17 13 9 12 14 20 20 20 19 13 19 19 19 20 21 22
32 7 2 3 11 8 6 7 7 4 1 3 2 3 5 2 3 1 2 5 1 6 4 10 13 15 1 17 13 23 21 12 20 14 20 20 21 22 26 18 12 17 16 20 21
19 2 2 10 8 5 7 6 4 2 3 3 5 8 6 5 5 4 3 2 1 4 6 7 10 3 3 4 9 18 22 25 23 16 13 17 18 18 22 24 26 14 19 17 20
8 2 10 15 5 7 6 5 2 3 2 4 9 3 6 6 5 3 4 6 5 1 5 3 7 4 2 8 16 18 16 18 17 23 23 17 19 16 21 21 23 24 21 18 18
4 3 12 14 3 5 5 3 3 3 4 5 7 9 8 8 7 9 3 7 4 5 3 2 3 8 3 11 17 16 19 15 16 19 18 19 16 13 16 22 22 24 22 22 18
5 1 15 11 2 2 3 5 3 5 3 7 6 12 12 10 11 11 9 5 7 7 3 1 4 8 12 10 11 11 15 18 17 24 20 19 10 15 5 14 21 24 19 22 19
4 3 12 13 2 5 6 4 3 7 5 6 7 5 8 11 7 9 6 2 9 9 3 4 4 6 8 17 16 12 20 15 16 21 23 20 19 17 12 5 11 18 22 18 19
3 1 4 7 9 8 5 8 6 2 5 6 9 10 12 12 12 6 8 6 10 11 6 2 11 12 12 14 11 10 12 14 17 17 20 23 21 17 22 16 9 11 12 16 20
4 4 5 4 6 5 3 3 4 6 5 7 5 8 9 7 14 16 12 11 12 12 11 8 10 14 17 16 16 18 19 19 20 18 22 21 24 25 19 21 15 8 6 2 7
3 2 3 3 3 5 5 5 7 5 2 6 8 10 7 7 14 7 10 15 15 14 17 15 13 13 17 16 18 23 23 26 25 25 25 24 29 29 25 20 23 22 17 9 9
5 3 2 0 1 3 3 2 5 10 4 9 13 9 8 12 13 17 17 14 12 13 17 15 10 12 18 18 20 23 21 27 30 27 27 25 25 27 14 14 19 16 14 10 9

GFSSW_925_spd_051.txt.gz
Wind_Speed
26 26 26 27 25 23 21 16 12 12 15 15 15 12 9 7 3 6 10 3 10 9 13 19 24 19 20 16 9 17 6 7 10 8 7 12 14 9 9 9 13 13 7 26 34
27 27 27 28 28 25 22 17 13 13 16 15 14 9 7 4 8 12 6 7 9 19 15 24 21 20 15 18 13 9 9 6 12 3 8 13 12 16 11 14 10 10 21 34 35
29 29 29 30 30 26 23 19 14 14 16 14 10 8 5 2 10 5 4 12 10 25 20 22 20 18 19 15 18 17 14 9 11 2 8 12 11 14 7 14 15 16 23 29 31
29 30 30 32 31 26 23 19 14 15 14 10 9 7 4 6 1 7 10 9 15 24 20 22 17 19 18 19 18 16 12 9 9 3 7 5 4 13 4 8 19 21 27 28 28
29 30 32 33 31 26 23 17 17 18 11 7 10 4 3 9 1 4 9 6 18 25 25 21 20 18 18 17 16 18 16 2 4 2 5 11 13 2 3 13 22 24 26 27 25
30 31 32 34 31 26 19 19 19 13 7 9 7 5 7 10 3 5 3 7 22 29 26 23 15 18 13 15 15 10 16 5 9 10 10 5 4 11 13 15 22 25 27 26 26
30 31 32 34 29 22 20 20 12 7 7 5 5 6 10 7 3 2 2 9 20 25 19 21 19 16 8 14 13 17 12 16 13 15 9 12 11 18 15 19 22 23 24 25 24
30 31 31 33 28 18 20 14 7 9 2 1 4 9 2 1 2 1 3 11 16 17 17 18 14 13 19 11 7 17 18 15 20 17 17 22 9 23 18 20 21 22 22 23 24
30 30 30 31 23 16 20 9 5 7 4 3 6 10 8 3 2 2 5 13 15 15 12 14 10 15 18 13 13 15 15 21 19 22 21 20 5 24 21 20 20 20 22 22 22
30 29 29 29 18 15 17 7 8 6 5 8 12 9 4 1 4 1 5 9 16 13 13 12 10 16 17 16 15 17 18 17 19 16 21 18 16 19 19 21 20 20 21 22 23
30 30 28 27 14 11 17 7 6 7 19 9 6 3 4 5 3 3 7 14 14 15 17 20 16 19 22 20 21 17 16 20 19 15 16 17 12 28 18 19 20 20 21 22 24
29 29 28 25 11 8 13 5 6 6 8 6 3 4 1 1 5 4 8 12 14 18 20 14 21 20 18 17 19 18 14 15 16 14 10 16 15 11 18 17 20 20 21 22 23
29 28 27 21 7 7 4 5 6 6 7 11 5 3 1 9 1 3 7 11 11 19 22 22 13 21 21 19 17 18 18 17 13 11 16 11 19 15 15 20 20 19 20 22 24
28 27 26 17 6 4 3 6 7 4 6 13 10 4 6 4 8 1 1 9 9 16 20 21 21 11 22 21 17 19 18 18 15 13 13 20 13 21 18 18 22 20 19 22 24
30 29 21 10 12 8 7 9 4 7 6 7 8 4 2 9 4 8 2 8 14 14 12 17 18 21 18 22 17 18 16 17 17 17 16 21 17 11 28 24 23 23 22 22 24
31 25 12 5 9 4 8 7 6 7 4 7 4 4 9 4 4 1 3 5 8 8 10 19 9 13 19 16 17 18 17 15 14 15 17 24 18 19 20 17 25 24 24 23 24
31 12 3 5 6 7 9 8 7 9 3 8 5 6 4 3 7 4 4 11 11 11 15 17 20 13 15 17 22 16 15 13 14 15 18 23 23 19 18 21 25 28 26 25 24
18 1 1 4 8 8 10 9 10 4 3 5 2 5 9 3 8 4 8 10 10 13 15 13 16 21 17 21 18 26 22 13 21 15 21 24 26 24 26 17 16 39 21 26 26
8 3 3 6 6 6 7 9 5 7 6 2 7 11 12 7 6 4 10 12 5 4 14 10 18 7 3 8 18 17 24 27 25 22 19 19 25 24 25 27 19 19 19 20 27
11 6 8 8 3 9 8 12 4 7 7 6 11 6 10 8 6 8 7 4 3 6 8 6 10 10 9 6 15 16 17 18 18 25 26 18 22 20 25 22 25 21 14 15 22
8 5 9 10 6 7 8 6 4 6 7 7 10 12 9 11 5 13 6 8 4 5 8 12 8 15 9 12 19 16 19 20 19 18 21 19 16 13 21 24 21 25 24 18 17
6 5 11 8 8 2 7 5 1 6 2 4 6 8 13 15 13 11 14 9 7 4 10 5 8 15 18 13 14 23 13 22 16 22 17 21 16 14 11 20 20 20 21 25 23
6 3 14 13 3 1 4 2 2 6 5 6 8 9 10 8 8 11 15 5 6 7 4 4 10 12 17 15 16 16 17 17 17 21 25 18 20 20 5 6 5 13 20 20 22
5 2 4 7 6 5 2 5 4 6 6 6 9 12 12 15 13 7 12 5 4 9 8 2 13 14 15 5 12 9 21 21 18 16 20 21 19 25 11 4 5 9 13 22 17
4 5 5 3 6 5 3 3 4 8 10 9 2 6 9 7 10 14 14 10 9 10 8 10 16 16 19 18 13 15 13 12 17 18 22 22 22 24 15 12 11 9 10 14 16
4 2 3 6 2 2 7 8 8 9 4 5 6 9 8 9 12 17 6 11 16 10 15 14 16 16 22 15 17 19 18 19 19 20 22 24 27 23 22 22 24 24 13 8 9
6 4 5 3 5 5 6 6 7 6 2 6 6 7 9 10 10 15 14 13 12 14 15 16 14 14 20 19 19 21 21 21 22 23 21 23 25 24 25 25 27 25 18 19 13

GFSSW_925_spd_054.txt.gz
Wind_Speed
27 27 28 28 29 27 23 19 16 14 15 18 16 13 11 10 7 8 12 5 15 8 14 14 18 23 20 17 19 12 6 8 3 6 4 18 16 16 15 13 16 13 17 28 35
27 28 29 29 30 28 24 21 17 14 14 19 15 10 10 6 10 17 12 10 11 11 14 19 19 22 16 17 15 8 7 6 8 12 9 9 18 19 11 16 12 14 25 35 36
28 29 30 30 31 29 25 22 17 14 15 16 15 8 8 4 9 3 12 12 13 16 17 20 22 19 18 16 17 19 15 12 16 10 18 16 16 18 10 17 19 21 25 28 31
27 28 30 31 32 29 25 20 17 17 17 15 11 9 7 5 2 8 2 10 13 17 18 21 17 20 17 19 19 19 20 17 2 10 8 9 14 5 15 10 11 24 26 24 25
28 29 30 30 32 29 22 20 21 18 15 12 10 8 1 7 4 5 3 7 13 18 22 18 20 18 18 18 19 19 20 7 6 12 7 16 8 6 13 19 8 25 28 23 24
29 29 30 30 31 28 21 22 19 14 9 9 10 5 6 10 4 1 2 9 15 23 23 22 15 16 15 19 18 17 18 16 2 10 11 13 9 15 18 16 22 25 28 25 23
30 30 31 31 30 25 20 23 15 10 9 8 4 5 11 10 3 2 5 10 19 25 19 24 21 16 16 13 16 14 19 11 14 10 10 9 5 9 23 16 25 24 26 26 23
30 30 31 32 30 23 18 22 11 10 5 3 2 5 8 2 4 5 5 8 13 22 25 20 19 15 17 13 17 12 17 16 17 16 13 15 10 13 15 6 23 25 23 25 25
29 29 31 30 30 22 19 17 9 8 6 4 5 10 8 3 6 1 7 11 16 20 21 16 15 14 12 16 14 14 15 20 21 24 18 18 10 10 16 19 23 21 24 22 21
30 30 31 30 28 21 21 18 12 11 8 9 15 11 10 4 2 3 6 8 11 14 12 12 10 13 13 15 15 16 17 18 18 18 22 15 6 14 9 10 25 23 23 22 20
31 30 31 31 27 17 23 8 4 6 12 12 2 9 2 3 7 3 8 12 12 14 14 18 13 16 20 21 20 21 19 19 17 17 20 14 12 5 11 9 15 21 22 23 25
31 30 31 31 26 16 17 8 7 7 9 15 9 9 3 6 4 5 6 11 13 14 16 13 20 20 19 19 20 21 20 19 14 17 19 20 17 18 10 16 22 23 24 24 25
31 30 31 30 24 15 13 5 8 8 7 14 12 12 6 7 11 9 7 13 14 16 18 21 14 22 21 19 19 19 19 17 19 14 12 13 19 17 15 16 17 25 24 23 25
31 30 30 29 13 14 8 4 8 4 5 14 11 4 5 7 8 5 3 11 11 17 19 21 22 19 20 22 19 19 16 18 19 17 12 16 15 26 21 21 5 24 24 24 24
33 31 27 14 17 10 8 8 8 5 5 11 10 5 1 11 8 11 2 10 15 14 11 17 22 21 21 18 21 18 17 14 17 18 18 18 15 17 29 18 17 28 23 25 24
33 27 20 4 11 12 8 9 6 6 5 6 6 8 10 9 5 1 5 10 10 12 18 16 19 17 20 18 17 18 14 19 16 15 16 21 19 16 15 20 14 13 19 16 26
32 14 10 10 9 9 11 9 6 9 10 9 8 7 10 12 7 5 8 11 10 10 12 15 19 17 13 17 21 17 15 12 13 13 17 20 18 16 20 26 34 20 12 33 26
26 9 8 8 10 11 11 9 10 11 6 9 2 3 7 9 8 4 5 9 12 12 12 12 14 20 15 17 14 19 18 14 18 14 18 20 20 18 24 16 33 33 29 9 26
25 14 13 6 7 7 8 8 3 11 17 9 2 6 10 9 3 3 9 13 10 5 9 11 17 5 23 17 18 21 20 22 23 20 17 17 18 24 21 21 13 16 20 23 11
19 15 7 5 4 9 7 12 6 14 12 10 8 11 12 8 11 6 9 1 4 4 8 10 15 16 9 5 9 14 14 14 15 22 23 18 20 14 20 18 14 14 14 14 12
8 6 8 9 4 6 7 4 8 11 10 10 12 12 13 12 14 6 10 6 0 1 3 13 12 19 9 9 14 13 16 14 14 13 19 16 16 17 13 22 19 20 18 23 30
11 3 12 6 6 6 8 7 3 10 7 2 4 6 7 12 15 16 14 9 13 7 5 9 9 13 19 13 14 16 20 18 13 17 15 14 17 22 17 14 17 16 13 23 22
5 3 10 6 4 6 7 7 8 12 11 7 6 9 12 9 7 9 11 12 5 3 6 9 7 9 16 15 18 13 17 18 19 18 22 15 14 22 15 15 8 12 12 6 24
5 2 5 5 6 10 6 9 7 11 10 11 9 7 7 7 6 5 9 7 12 7 10 6 10 14 13 10 14 11 16 18 19 15 15 20 23 20 13 19 22 18 16 9 8
4 5 5 6 8 8 13 11 14 10 11 6 2 6 7 7 12 11 5 5 8 13 6 6 14 17 20 22 18 18 18 21 24 23 21 18 23 22 18 17 18 20 20 20 13
6 5 6 5 3 7 5 8 7 9 6 8 8 11 11 9 11 15 14 12 8 11 13 12 15 17 21 21 21 23 20 20 20 17 22 20 25 24 13 10 17 16 19 22 22
5 2 3 3 9 5 6 5 5 9 8 8 11 9 10 9 14 14 13 15 12 13 11 14 11 12 20 19 20 23 20 20 19 19 15 17 23 21 18 15 17 18 18 21 25

GFSSW_925_spd_057.txt.gz
Wind_Speed
26 27 27 28 28 28 25 21 19 16 15 15 17 15 12 12 10 5 7 9 13 11 12 8 14 18 20 10 16 15 2 5 6 5 2 1 4 7 10 11 5 7 12 27 33
27 27 28 28 28 29 27 22 18 16 14 16 17 13 11 11 9 14 11 12 12 16 10 12 13 16 12 13 11 12 4 8 5 4 7 7 11 10 10 11 6 11 22 27 30
28 29 30 30 29 29 27 21 18 17 17 16 16 10 10 7 6 5 15 21 14 13 15 18 20 14 13 14 15 13 14 15 17 7 14 17 15 11 9 11 7 19 23 23 22
28 29 30 31 31 30 26 21 21 19 17 16 12 7 8 1 2 4 10 20 18 14 15 9 9 16 13 14 17 15 18 20 21 12 14 16 5 4 2 6 4 20 27 23 19
27 29 30 30 30 30 28 21 21 18 14 12 7 6 1 4 8 7 5 13 15 16 18 13 10 15 15 12 15 15 17 19 5 13 21 15 13 10 8 8 7 16 21 22 16
29 29 29 30 30 30 29 22 22 15 12 9 9 2 2 4 4 8 5 12 13 18 18 18 10 12 11 14 14 15 17 16 11 12 19 18 9 7 9 14 10 20 23 20 16
29 29 31 32 30 30 28 22 22 13 12 8 3 4 5 12 1 5 7 15 15 21 10 23 25 15 8 10 13 13 12 13 8 8 7 12 4 4 13 14 20 19 20 19 15
30 30 32 32 31 30 28 22 19 13 9 3 2 5 7 6 9 8 11 16 18 20 23 24 26 16 10 9 14 10 8 6 10 7 7 8 7 18 16 13 17 20 17 19 18
31 31 32 33 32 31 28 22 19 13 9 4 3 5 7 8 5 8 5 11 18 19 23 24 20 11 8 6 6 7 6 8 13 14 6 8 12 17 24 17 17 21 21 18 15
32 32 32 33 31 30 29 24 15 10 6 6 11 5 8 9 4 3 8 13 13 11 14 16 10 5 6 3 8 9 8 8 12 17 15 15 14 18 18 19 14 18 22 21 18
32 32 33 34 30 27 30 9 1 1 5 8 5 6 6 5 3 8 11 9 6 7 9 8 4 9 10 10 12 16 15 14 11 16 17 18 20 21 22 23 18 14 17 23 20
32 32 32 34 29 24 17 4 6 6 7 12 19 15 6 5 3 5 4 6 6 7 8 6 13 11 10 15 16 19 16 16 15 13 8 20 18 16 22 22 20 12 24 26 20
32 32 33 33 27 13 8 16 9 11 4 10 14 10 8 6 7 7 6 6 9 10 11 11 11 19 16 16 17 16 11 12 11 16 8 12 5 6 12 15 17 5 5 12 24
33 32 34 30 9 14 10 4 9 5 3 5 10 3 5 1 4 9 4 3 5 11 12 10 16 17 17 17 13 10 10 12 13 8 2 5 3 7 7 6 12 12 4 10 16
34 33 29 16 15 7 16 13 9 8 3 10 7 3 3 6 2 3 7 4 8 10 6 10 14 16 18 15 17 13 10 10 10 7 7 13 1 7 15 7 9 11 12 22 15
34 30 23 5 7 11 19 19 12 2 5 6 6 6 4 6 6 6 4 4 6 8 11 11 14 11 14 16 11 12 10 11 6 4 7 11 4 1 13 18 16 22 25 28 18
32 24 14 8 5 12 16 9 2 3 10 6 7 7 10 8 6 3 6 7 4 1 5 9 12 10 11 9 11 7 2 3 3 5 8 7 5 8 16 19 24 29 23 20 18
31 19 8 10 9 16 15 3 4 8 13 5 8 5 1 7 5 8 1 6 7 9 5 5 7 11 7 6 4 7 9 5 8 6 7 8 6 7 11 25 26 26 21 24 18
26 8 7 11 11 7 2 3 6 10 14 13 2 2 3 4 1 4 2 6 7 13 1 6 6 16 12 14 8 6 5 9 5 12 4 6 8 10 12 11 26 21 17 10 9
18 7 8 4 1 9 2 3 8 13 11 9 8 8 8 12 1 7 6 5 4 9 8 7 6 7 13 5 7 8 4 5 4 6 6 6 9 5 6 18 24 22 22 17 18
4 3 6 8 4 2 2 5 6 11 10 7 7 6 9 9 10 11 12 15 17 11 9 5 2 11 9 4 3 1 2 1 0 1 4 6 8 8 3 18 23 29 26 22 18
8 1 10 4 2 1 4 5 9 13 12 8 5 7 11 12 8 7 9 9 7 9 6 8 3 6 10 18 15 11 3 0 3 7 3 3 8 11 12 18 5 11 22 25 24
5 2 9 11 4 4 7 16 12 12 15 13 10 11 9 7 5 8 11 13 16 8 5 7 4 5 10 6 5 6 6 6 4 4 10 5 8 4 16 17 14 13 16 15 18
3 2 4 6 7 12 6 12 12 17 13 10 9 10 12 9 8 4 5 5 10 10 9 6 3 3 6 7 9 12 19 17 5 2 5 6 8 9 11 12 15 14 19 16 10
2 4 4 4 5 7 12 9 11 9 9 12 7 13 11 6 8 5 10 9 12 7 5 4 4 7 12 13 14 16 18 19 13 9 4 11 14 4 10 11 14 13 14 13 12
3 3 4 3 5 11 8 8 10 11 8 9 10 13 10 5 7 11 11 9 5 6 6 3 4 7 13 12 17 17 17 20 19 16 15 13 16 6 11 12 14 15 15 12 10
10 3 2 4 7 6 3 5 10 8 7 7 6 4 6 9 9 10 11 10 10 8 3 1 3 5 7 8 13 12 12 16 18 18 11 12 10 10 9 12 10 11 14 17 15

GFSSW_925_spd_063.txt.gz
Wind_Speed
22 22 23 23 23 23 21 21 18 16 16 15 13 11 11 9 9 6 7 9 12 10 17 15 9 7 8 3 3 3 1 3 3 3 2 7 5 2 5 6 4 3 6 22 30
23 23 24 24 24 23 23 21 19 16 18 15 14 11 9 8 9 12 14 15 15 22 19 16 6 8 3 4 3 3 1 6 5 0 5 10 5 10 5 9 7 12 21 28 27
23 24 25 25 25 24 23 23 21 16 17 15 11 8 4 6 3 7 3 20 20 24 15 14 14 5 2 2 4 5 4 3 2 3 6 9 6 6 10 9 6 19 23 23 26
24 25 25 26 25 24 24 23 22 18 16 12 8 4 3 2 1 2 7 23 22 22 14 11 5 6 4 5 5 4 7 9 4 3 6 7 5 6 6 4 11 20 25 23 19
24 25 25 26 26 25 25 23 22 18 15 8 6 3 1 1 8 4 16 23 21 20 13 7 6 5 6 5 4 8 6 7 9 10 6 9 5 5 6 3 12 19 22 20 17
25 26 27 27 27 27 26 24 21 16 12 7 5 2 2 2 1 12 20 22 20 19 12 9 8 7 3 3 3 3 6 10 8 6 5 3 2 4 7 7 15 21 19 18 18
26 27 28 28 28 28 27 24 21 16 8 5 2 5 2 9 3 15 20 22 24 24 7 16 6 5 2 3 4 10 9 10 6 9 3 4 4 5 13 13 17 20 18 16 18
28 29 29 29 28 28 26 23 21 14 6 2 6 3 6 2 2 14 18 8 19 19 8 19 11 1 2 4 6 4 4 1 3 10 3 5 4 8 13 15 17 18 17 18 17
29 29 29 29 28 29 26 23 14 3 7 7 5 2 8 7 6 17 20 9 14 13 14 9 11 4 2 1 4 6 1 1 1 15 4 7 4 10 12 16 15 17 18 18 12
30 30 30 29 30 29 24 8 6 11 9 3 4 3 6 3 5 8 21 17 5 8 4 4 3 4 2 4 4 2 2 0 2 4 3 10 8 11 14 15 20 18 17 18 17
29 28 30 30 28 26 18 3 3 2 4 7 5 4 4 12 4 7 12 10 5 5 5 4 4 6 7 8 7 3 3 4 2 6 6 12 8 17 15 12 15 17 17 18 18
30 29 31 31 29 12 2 1 1 2 6 10 9 7 14 5 3 3 11 5 5 4 4 5 4 8 5 4 5 5 4 4 7 5 4 4 6 8 12 11 11 12 12 14 14
30 29 32 29 13 1 8 2 15 7 1 7 6 5 5 9 5 2 6 4 5 5 5 5 4 6 5 3 3 3 6 3 6 5 2 5 2 5 3 1 6 9 11 9 17
30 30 27 26 2 12 5 19 19 5 4 6 3 7 4 5 1 2 6 4 4 9 6 4 6 6 5 5 6 6 5 5 5 1 3 3 3 7 6 6 8 12 14 16 20
31 26 21 12 9 4 10 23 10 5 1 1 1 5 3 7 4 4 2 4 6 4 6 5 2 5 6 8 6 10 6 7 4 4 2 2 3 5 8 11 20 17 17 16 18
29 22 15 3 6 7 20 17 3 5 1 2 2 3 6 3 2 2 4 6 2 4 2 5 3 5 7 6 11 3 1 4 4 4 1 6 5 3 8 17 14 13 17 18 16
20 13 6 2 3 12 18 4 4 2 7 7 2 3 4 2 2 2 3 3 3 4 1 2 3 2 2 2 3 5 6 2 2 2 5 2 4 8 13 13 19 22 20 19 13
16 6 6 7 9 14 6 5 8 6 4 5 3 7 6 3 1 5 5 7 7 2 3 3 1 2 4 1 5 5 9 6 5 5 4 1 5 2 8 13 9 14 18 16 16
9 7 6 6 8 5 5 6 2 5 6 7 3 8 8 7 5 4 7 8 6 5 4 2 3 5 1 2 2 3 3 5 8 2 3 2 5 3 13 12 10 14 14 16 17
7 8 8 14 4 6 6 5 3 8 7 6 5 5 7 8 5 5 7 6 7 9 2 1 2 2 4 5 7 5 3 2 3 6 4 2 4 3 13 15 15 7 16 18 14
5 4 22 6 3 6 4 3 4 8 8 7 4 5 3 4 5 4 8 3 12 6 8 3 3 6 2 6 5 7 6 4 3 3 6 4 1 5 6 8 10 9 11 14 10
4 4 25 5 5 2 3 6 6 11 9 7 5 6 4 7 7 4 6 7 12 4 4 3 4 3 4 6 11 16 4 4 4 5 3 3 2 7 7 8 11 13 7 6 5
3 2 18 7 4 3 4 5 8 11 7 6 8 7 6 5 5 6 5 8 13 6 3 4 4 3 4 6 8 7 7 5 2 2 2 2 3 7 8 10 13 15 17 14 11
3 4 5 5 2 5 3 6 4 8 8 5 5 5 6 8 8 4 4 5 7 10 15 5 4 5 4 3 3 3 5 5 5 4 5 2 6 8 11 9 12 13 15 15 13
4 1 1 3 5 6 6 3 5 5 5 8 6 6 2 5 4 4 5 6 6 12 7 5 4 2 3 2 2 1 4 5 4 2 1 3 4 7 8 8 8 10 14 17 16
3 3 4 2 3 7 6 3 4 3 4 3 4 3 6 4 3 1 3 3 1 6 5 5 1 3 5 5 4 3 4 5 7 5 6 6 1 6 6 8 13 12 13 14 13
5 2 4 5 3 4 3 0 1 3 5 3 3 3 3 1 5 6 6 3 2 2 3 3 3 3 4 6 7 5 6 5 2 1 3 4 4 8 9 13 9 10 12 12 12

GFSSW_925_spd_066.txt.gz
Wind_Speed
21 21 21 21 21 20 20 19 19 18 15 14 13 11 10 9 7 6 7 8 13 18 16 18 10 8 5 3 3 2 1 2 3 3 2 8 3 4 4 6 3 4 9 20 27
21 21 21 22 21 20 20 19 19 17 16 15 12 10 9 7 7 11 10 14 16 21 24 18 6 9 2 3 2 1 0 4 3 1 3 8 8 9 4 7 7 12 22 28 26
21 22 22 23 22 21 20 19 18 18 14 15 10 7 6 6 2 6 2 18 22 26 22 18 17 4 2 2 3 3 3 2 1 3 6 7 3 7 6 5 5 21 24 22 24
22 23 23 24 23 23 22 20 18 17 14 11 8 4 4 2 1 4 5 24 28 22 20 13 5 6 4 4 4 1 7 6 3 5 4 5 7 3 7 2 18 23 23 22 18
23 24 25 25 24 24 22 21 19 16 12 9 6 2 1 1 7 1 23 25 25 18 16 6 7 5 5 4 3 2 6 7 8 4 3 7 5 4 6 5 19 21 19 18 17
24 24 25 25 25 24 23 21 19 15 10 6 4 2 1 2 3 13 23 26 25 19 11 8 7 5 4 2 4 3 6 11 9 2 6 5 3 3 4 11 17 21 19 17 17
25 26 26 25 25 25 24 22 19 16 9 4 2 3 1 8 2 17 24 21 24 20 6 9 5 4 3 1 2 5 4 7 4 3 4 7 4 5 10 17 21 21 17 16 17
26 26 26 26 26 26 24 22 19 13 5 5 8 2 6 1 4 21 19 12 16 15 3 13 3 3 1 3 4 3 3 3 2 4 3 2 3 3 10 16 20 23 19 17 16
26 26 25 25 27 26 25 17 9 1 10 11 5 3 8 1 8 19 21 11 14 8 10 2 5 2 2 3 4 5 2 0 4 5 4 2 3 5 9 14 18 18 17 17 16
26 26 25 26 27 28 21 4 15 13 11 5 0 1 4 2 4 16 19 19 6 6 4 4 3 3 3 4 4 3 3 2 2 3 1 3 7 6 10 12 14 16 18 17 17
26 26 26 27 27 24 6 5 3 3 3 6 4 3 3 12 4 7 15 9 6 4 4 3 4 7 6 7 4 2 3 2 3 3 2 5 7 10 10 10 12 13 13 16 17
26 26 27 26 26 6 5 1 3 1 6 8 6 5 10 2 3 5 24 7 5 5 5 4 5 6 7 5 4 4 2 2 4 3 4 1 5 5 11 11 12 15 16 13 12
27 27 25 23 8 2 3 1 8 4 2 6 5 4 5 9 4 5 9 5 7 6 6 6 5 8 6 5 5 2 3 2 3 5 2 2 1 3 3 1 6 9 12 10 15
30 25 20 18 1 7 3 14 12 12 4 5 3 6 4 4 1 1 7 7 3 9 9 4 3 8 5 4 5 1 6 4 2 2 2 1 3 3 4 6 5 9 10 12 13
26 18 18 9 6 1 7 17 4 3 2 0 3 2 2 6 6 4 3 4 8 6 6 6 6 5 3 5 6 6 7 6 4 3 2 3 3 4 3 7 14 12 14 15 13
21 18 10 0 3 4 15 11 2 5 2 5 2 3 6 4 2 3 4 7 2 4 2 5 1 5 9 6 8 5 5 7 5 3 2 5 5 5 2 6 4 15 14 16 15
19 8 4 2 2 10 14 3 4 4 6 8 4 3 5 5 5 4 5 7 4 4 3 1 2 2 3 3 2 5 6 1 2 2 5 1 4 4 8 8 12 11 16 14 16
14 9 8 8 13 11 3 5 8 6 4 4 5 7 6 6 8 8 4 6 6 5 3 5 1 3 4 2 6 6 8 5 5 5 4 1 4 4 4 9 9 4 11 13 15
11 7 15 15 12 5 5 6 0 4 7 7 2 8 7 6 5 5 4 6 3 5 4 4 0 4 5 4 2 4 3 3 7 2 3 2 5 4 18 16 19 14 5 13 16
6 6 14 16 5 3 5 4 1 4 7 3 5 3 4 7 5 5 6 4 7 6 1 1 4 4 5 4 7 5 1 2 3 4 3 3 3 4 14 17 20 19 12 8 10
5 4 19 11 6 6 4 2 4 9 4 7 4 5 4 4 5 4 6 1 9 7 7 2 3 4 5 7 5 6 5 5 4 3 6 4 3 5 7 10 15 16 14 5 7
4 3 20 8 5 2 3 4 5 6 7 7 4 5 4 6 6 4 4 4 13 3 4 5 4 5 2 4 5 5 3 3 4 3 2 4 2 5 8 9 12 17 16 17 13
3 1 14 6 4 3 4 5 6 11 7 6 7 7 6 4 5 4 4 6 12 6 2 2 4 4 3 5 5 6 4 3 4 2 2 4 4 6 10 14 14 17 19 16 17
3 4 5 5 2 4 3 5 4 5 4 5 5 4 6 7 8 3 4 5 8 7 12 6 3 3 6 4 3 4 4 3 5 4 1 2 2 6 10 11 13 15 16 17 17
4 1 2 3 5 6 5 4 5 6 5 9 6 6 3 5 4 4 5 6 5 13 6 4 4 3 5 4 3 2 1 3 1 4 4 5 1 3 6 6 9 10 12 16 17
4 3 4 2 3 5 6 5 5 5 5 5 5 5 7 4 2 1 2 3 2 6 5 4 3 3 2 4 0 3 5 6 5 1 2 4 3 4 4 5 8 10 12 12 13
4 3 4 4 3 4 3 1 2 2 5 4 2 3 4 1 4 3 2 4 2 2 3 3 4 2 3 1 2 3 4 2 2 5 2 4 2 7 6 9 8 6 7 9 12

GFSSW_925_spd_069.txt.gz
Wind_Speed
18 18 19 19 18 17 16 16 15 15 13 11 13 10 7 8 6 6 7 6 11 22 18 18 10 12 8 4 2 1 2 2 5 8 5 8 5 2 3 13 3 8 7 20 29
17 18 19 19 19 18 17 15 15 15 14 11 10 10 6 6 6 11 10 14 16 26 21 19 13 15 5 5 2 2 2 2 2 4 4 8 7 6 4 11 7 13 18 30 30
17 18 18 19 19 18 18 16 14 13 14 11 9 6 5 4 3 4 3 18 22 25 18 13 18 9 6 4 4 2 2 2 4 5 7 11 10 12 8 6 7 20 24 27 30
18 19 19 20 19 18 18 17 15 14 12 9 6 4 2 2 0 4 5 22 25 23 20 15 12 10 7 7 7 3 6 6 1 2 3 5 9 8 10 3 9 19 25 30 24
20 20 20 20 20 19 18 18 15 13 11 9 4 2 1 2 5 7 17 25 24 21 19 12 16 8 9 7 5 9 5 5 5 5 4 6 8 4 10 9 18 23 23 23 22
21 21 21 20 20 20 19 19 17 13 10 7 3 3 1 3 3 10 20 24 19 16 15 17 11 5 7 6 7 2 6 12 5 3 5 7 5 5 8 16 20 23 23 22 21
22 22 21 21 20 20 22 20 17 14 9 6 4 4 2 1 2 18 20 14 18 9 9 7 12 4 4 5 2 3 6 4 5 5 5 9 6 5 15 20 19 17 20 21 22
23 22 22 21 21 22 22 20 14 11 6 9 9 4 4 1 6 17 16 11 15 8 6 6 6 3 1 3 2 3 3 3 5 6 4 5 3 7 19 20 20 19 19 19 21
24 23 22 21 22 22 21 7 12 6 12 13 7 2 1 5 7 14 13 14 12 3 5 6 4 4 2 3 5 2 5 4 3 3 5 5 4 8 16 15 17 18 20 20 19
23 24 23 23 23 22 5 11 14 12 9 4 1 2 3 5 7 15 10 20 7 9 7 5 3 6 4 7 10 8 5 3 4 4 2 2 3 8 13 14 15 16 18 19 19
23 23 23 23 22 15 13 6 2 3 4 5 1 1 1 2 10 11 15 10 13 9 6 7 9 15 16 8 4 3 3 3 2 2 2 3 6 6 13 14 16 18 19 20 20
24 25 23 20 15 4 8 2 4 3 5 8 8 7 7 3 5 11 16 6 11 13 9 7 16 9 10 8 4 4 4 2 1 4 3 3 6 3 11 15 17 19 20 20 20
26 24 19 15 1 1 1 3 1 6 2 2 4 4 3 9 5 13 22 8 15 12 12 9 5 12 13 9 8 6 6 4 0 3 2 1 2 1 4 8 13 16 18 19 20
23 19 17 7 3 3 1 6 12 11 2 1 3 4 5 4 4 8 20 10 5 14 13 5 6 15 14 12 8 8 7 5 3 2 3 2 1 2 5 10 12 15 18 19 21
21 17 11 2 0 1 5 14 7 2 1 6 1 2 2 4 13 4 8 4 11 9 7 6 10 17 15 12 10 4 7 4 3 2 2 4 4 4 3 2 10 13 16 21 21
18 13 9 5 3 4 14 6 3 3 2 4 3 4 7 2 2 5 4 6 3 6 3 5 3 11 12 8 10 10 7 4 3 2 5 5 4 4 5 7 7 10 17 19 21
14 13 10 4 4 14 13 1 3 2 4 8 4 2 8 7 6 4 5 6 3 7 10 4 5 2 4 9 6 9 10 5 6 5 6 2 6 7 7 8 10 14 15 21 20
9 8 17 8 13 10 2 2 4 4 4 5 4 7 6 5 7 6 6 6 11 3 3 9 7 1 5 3 6 12 13 5 7 8 9 3 7 7 10 9 12 12 6 13 19
3 2 14 21 8 4 1 5 4 5 7 8 4 6 3 4 4 5 8 5 5 8 1 6 3 4 10 3 2 6 8 1 4 2 8 4 3 5 15 18 19 19 13 5 14
2 2 10 18 9 2 5 5 3 9 8 3 3 5 3 6 4 5 6 7 6 6 4 2 6 6 5 2 10 1 4 7 3 7 9 3 4 5 16 18 19 20 19 10 8
4 2 12 14 5 6 4 4 3 9 8 7 6 4 6 4 7 4 5 4 8 7 5 2 1 4 1 7 6 1 3 2 1 2 6 7 5 6 10 12 14 16 18 18 11
3 3 21 10 5 3 4 4 6 13 10 7 5 7 5 7 6 4 4 5 13 5 4 4 4 5 5 2 4 8 4 1 7 6 2 1 5 7 10 12 13 16 17 19 19
3 2 13 7 4 4 3 4 7 10 10 7 7 7 6 4 5 4 3 5 12 7 4 4 3 5 3 4 2 4 6 3 2 1 2 6 6 8 11 14 15 16 16 16 19
2 3 4 5 3 3 3 5 3 7 8 7 6 3 3 6 8 4 3 5 8 9 10 1 3 3 1 4 2 3 5 7 3 2 7 3 11 8 11 12 13 14 15 15 15
4 2 1 3 7 7 4 3 7 5 4 10 6 9 3 3 3 4 4 3 7 11 5 3 4 4 7 5 2 3 1 4 5 4 2 10 8 6 8 9 9 10 12 15 15
2 2 3 3 2 6 5 5 9 5 6 7 7 9 10 6 5 3 2 3 3 6 4 3 4 4 3 4 3 3 4 2 1 1 3 5 6 3 5 4 7 10 11 13 15
3 2 2 2 2 2 3 3 4 2 6 7 4 6 10 7 3 5 5 4 3 3 3 2 4 3 4 3 2 5 1 2 4 5 2 5 5 6 4 9 10 10 8 11 14

GFSSW_925_spd_075.txt.gz
Wind_Speed
13 14 14 14 14 14 13 13 12 11 11 11 11 11 10 9 8 8 11 5 12 14 17 16 16 13 15 12 7 10 3 5 8 11 14 17 10 12 5 10 4 6 13 28 31
14 15 15 15 14 14 14 13 12 12 11 11 11 10 8 7 11 19 12 11 12 21 17 19 17 16 13 13 6 3 2 10 9 16 12 11 9 10 8 11 12 9 27 32 30
14 15 16 16 15 15 14 14 13 13 12 11 10 9 6 5 12 4 21 16 18 26 19 18 16 16 15 9 8 2 1 4 12 14 18 12 6 5 5 8 12 17 25 27 28
16 16 15 15 16 15 15 14 14 14 13 10 9 6 5 6 1 7 4 19 22 24 20 18 14 16 14 13 9 8 10 6 10 11 16 17 13 9 4 4 2 14 24 25 24
17 17 17 16 16 16 16 16 16 14 13 11 7 4 5 8 8 1 10 20 21 22 21 16 16 17 15 13 12 6 7 5 5 8 7 6 10 12 8 9 8 16 24 24 22
18 18 17 17 17 17 17 17 17 15 13 11 6 4 9 13 4 4 14 19 24 23 20 18 13 15 11 9 11 9 6 4 5 6 6 8 11 10 15 15 12 20 25 23 22
19 18 17 18 18 18 19 20 18 14 11 10 6 6 11 5 2 8 15 20 23 21 17 18 11 9 12 8 12 5 11 10 9 8 8 8 10 7 15 15 17 21 23 22 21
19 18 18 19 18 18 19 17 10 10 10 7 8 8 8 5 7 11 15 17 19 19 15 14 8 14 11 6 10 13 15 14 11 10 11 12 8 17 16 15 17 20 21 20 19
17 18 19 20 20 18 17 6 9 6 5 8 7 13 7 8 15 15 15 16 15 15 12 8 12 16 12 13 14 14 14 16 13 13 14 11 15 18 16 14 16 12 19 18 18
19 19 20 20 18 16 5 3 4 5 6 7 9 8 8 14 19 17 16 16 14 13 9 11 10 14 14 14 16 18 20 19 14 11 12 13 3 17 18 17 18 16 9 16 17
21 20 18 15 14 8 5 3 6 7 13 8 9 10 9 18 19 17 18 17 14 12 15 16 13 17 20 20 22 16 18 15 11 16 15 14 13 16 19 18 15 12 12 16 15
20 18 16 11 7 3 4 7 10 8 8 14 5 4 3 13 16 16 21 15 15 15 18 12 18 17 17 17 17 18 19 15 13 6 11 7 8 16 15 20 19 19 15 17 16
19 15 10 6 4 5 10 6 6 9 7 9 11 14 13 16 16 18 21 16 17 18 19 15 14 19 15 14 13 16 15 15 15 10 15 12 11 14 15 16 20 15 18 16 18
15 11 4 5 3 3 6 3 7 3 6 10 11 9 16 15 14 22 23 13 11 17 17 16 15 18 12 16 16 18 16 12 10 16 12 15 7 19 20 16 18 16 19 18 18
11 6 3 6 11 9 4 6 6 6 6 5 10 13 13 19 15 20 22 15 13 13 11 16 16 14 16 18 16 12 13 8 11 15 13 15 9 4 21 20 16 16 14 19 22
5 4 1 4 8 7 7 8 6 7 3 7 5 12 17 18 12 21 18 20 10 14 14 17 12 13 17 19 17 7 9 11 12 14 15 10 17 11 8 8 15 16 13 14 13
4 3 3 7 9 7 8 8 7 5 4 5 12 17 17 14 14 17 19 16 13 14 13 16 9 17 16 20 16 13 14 10 11 12 11 18 16 12 11 8 6 15 16 18 12
6 8 8 7 10 8 10 12 9 6 11 3 8 14 17 16 13 18 18 17 18 14 10 16 14 19 14 20 13 17 20 12 12 13 14 16 11 10 11 11 8 2 14 19 20
3 11 7 7 7 5 9 3 9 8 5 7 8 14 11 8 4 18 18 13 9 7 7 13 12 14 8 16 17 18 19 24 14 14 14 13 15 12 13 12 12 11 10 15 17
6 10 7 8 7 12 8 9 7 6 8 8 9 2 7 14 13 12 9 2 1 3 10 11 9 12 11 8 12 12 14 20 11 17 15 16 19 11 12 10 11 12 14 18 18
9 5 7 8 11 10 3 10 5 6 7 10 2 3 2 10 5 11 4 7 2 7 6 11 10 12 8 14 15 12 12 16 13 16 13 10 9 12 12 9 11 11 12 16 16
8 4 8 7 8 4 9 5 4 4 6 5 7 4 7 11 8 5 5 9 2 5 6 2 8 10 17 4 4 14 15 17 12 19 15 7 8 12 13 13 14 11 11 14 15
3 4 6 11 4 6 5 8 8 3 5 2 3 1 5 7 2 9 1 3 4 1 3 3 9 5 6 6 10 12 10 11 15 18 14 16 10 13 16 14 15 13 12 13 15
4 2 4 3 4 5 5 3 6 3 5 3 2 3 11 9 9 4 6 2 2 5 5 5 7 7 6 3 16 19 9 11 14 11 12 8 23 16 17 16 14 13 13 13 14
4 5 5 7 7 7 4 3 2 3 2 1 2 4 8 6 12 9 6 6 5 5 5 6 10 12 3 8 9 12 14 9 16 17 13 20 19 17 15 16 18 14 13 13 14
3 2 4 4 1 4 3 7 5 6 5 4 4 2 4 4 9 9 5 5 6 5 5 6 3 10 10 5 5 5 6 6 8 5 8 20 19 16 13 14 12 12 13 13 13
2 3 5 4 3 3 6 4 5 2 6 6 4 2 5 5 5 7 6 4 4 8 4 6 9 7 14 13 4 10 12 10 8 6 11 14 18 11 12 10 8 10 11 10 10

GFSSW_925_spd_078.txt.gz
Wind_Speed
14 15 16 15 15 14 14 14 14 13 13 13 13 13 13 12 11 8 12 7 18 8 10 13 18 22 19 15 15 4 3 3 0 13 12 15 14 13 9 8 9 4 21 28 30
15 15 16 16 16 16 15 14 14 14 14 14 13 12 12 11 12 20 16 15 12 11 15 20 17 13 13 15 12 5 3 8 12 19 16 15 12 14 10 3 8 12 26 31 29
16 16 16 16 16 16 15 15 15 15 14 13 13 11 9 8 11 5 24 22 15 17 18 18 15 15 16 12 7 9 4 6 13 18 17 15 10 4 5 10 15 23 27 26 27
17 18 18 17 16 16 15 15 15 16 15 13 11 10 8 6 2 5 14 19 13 19 19 18 16 16 16 13 7 4 9 9 13 18 16 15 11 8 13 6 8 23 25 23 22
17 18 17 17 18 17 16 16 17 16 15 12 10 8 6 8 11 6 9 15 15 20 20 17 16 16 17 14 12 8 17 13 10 21 21 16 14 9 7 3 10 21 23 23 19
18 18 18 18 17 18 19 17 18 17 14 11 7 5 6 11 4 7 12 16 17 22 20 18 12 15 15 10 14 11 13 8 11 13 11 14 16 14 3 8 14 21 23 21 19
18 17 18 18 18 18 19 19 18 14 11 7 6 4 10 16 2 6 14 17 19 23 17 18 17 15 8 14 10 12 20 10 9 12 12 16 12 8 17 17 19 24 22 21 17
18 19 19 19 19 19 18 18 11 10 8 6 6 7 8 10 8 10 13 17 20 22 19 16 16 11 15 13 11 14 12 14 17 14 15 14 9 15 17 16 19 25 22 19 17
20 21 21 20 20 19 15 10 3 4 3 10 7 9 9 8 13 14 17 19 20 18 16 12 8 11 15 15 11 13 14 20 1 14 18 11 10 14 13 18 19 20 21 17 15
22 21 21 20 17 15 10 5 2 3 4 5 14 9 10 12 16 17 17 16 18 16 13 7 7 12 15 13 14 18 19 13 20 17 17 14 10 13 16 17 17 16 17 16 18
21 20 17 17 13 10 2 3 5 6 15 12 9 12 7 13 18 14 16 17 17 14 14 14 11 16 20 20 19 20 18 18 16 11 15 16 18 21 14 16 17 18 6 12 12
19 16 14 11 8 6 6 7 9 12 8 21 18 18 3 20 16 15 20 14 15 17 17 13 17 17 18 18 18 22 21 16 12 15 22 19 14 13 15 20 21 20 11 8 8
20 16 9 6 3 4 11 16 7 8 8 12 15 12 6 12 15 17 17 18 16 18 19 19 14 19 17 17 18 20 18 11 17 7 19 16 17 22 24 19 21 19 18 16 15
14 12 7 1 5 12 17 2 8 5 6 15 13 11 17 13 14 20 22 17 10 18 18 18 17 19 19 17 16 17 19 20 22 21 11 17 9 21 22 21 20 20 21 20 18
10 8 5 8 13 12 7 8 9 6 6 12 12 10 14 15 15 20 20 19 14 16 14 17 18 13 18 16 16 16 18 15 9 16 12 18 8 12 9 23 22 22 24 22 19
10 8 8 9 10 13 8 9 9 6 3 7 9 9 14 16 21 20 16 17 13 15 16 17 14 17 15 11 15 18 16 14 5 11 12 16 15 11 9 10 12 20 18 7 17
10 12 11 12 12 11 9 7 6 5 9 5 9 14 17 15 11 20 17 17 15 10 14 15 18 17 10 13 19 18 15 8 9 10 9 17 14 11 14 10 8 19 23 24 26
11 15 17 20 12 8 8 8 6 16 15 8 6 13 16 18 18 13 16 16 18 18 12 12 15 14 16 19 18 19 18 10 16 13 13 18 14 12 22 28 34 15 15 18 24
15 15 12 16 8 4 8 4 7 13 9 10 4 11 15 17 10 13 17 16 16 18 7 10 20 20 18 19 21 19 18 20 18 19 15 10 13 17 16 11 12 14 21 20 20
11 19 21 5 2 7 6 12 8 7 11 8 10 8 8 8 5 5 12 6 8 8 6 4 11 15 17 18 13 3 14 17 14 10 18 12 19 14 17 13 12 13 16 16 16
9 6 7 8 10 5 6 2 4 6 10 12 10 11 2 11 13 8 10 11 3 8 2 13 4 1 12 11 15 8 13 11 16 15 15 6 6 13 13 12 9 13 17 15 15
16 10 5 5 8 4 4 10 4 7 2 6 8 9 4 10 6 5 6 5 7 11 7 7 6 7 15 10 15 14 14 16 13 20 14 8 4 11 13 13 10 10 14 18 16
5 3 5 9 4 5 5 4 9 11 6 0 2 1 11 4 2 13 5 2 7 7 9 12 8 8 6 10 6 10 15 15 16 18 18 6 10 12 13 13 9 10 11 16 16
6 2 4 2 6 5 1 4 2 2 3 7 5 4 7 5 4 9 9 2 4 8 5 3 12 5 3 15 12 18 18 15 13 11 13 8 22 14 12 13 11 11 12 15 16
4 5 5 7 8 9 9 4 3 2 0 2 3 9 5 6 8 12 6 5 4 2 3 5 10 9 7 9 16 11 20 17 10 14 9 18 19 17 14 13 13 12 12 14 16
6 5 1 3 2 5 5 6 7 6 10 3 3 4 5 11 4 7 17 4 6 7 5 8 9 8 11 11 10 16 4 2 11 12 10 20 18 20 21 16 14 12 12 13 13
8 2 7 6 6 4 7 7 6 2 3 8 7 6 2 11 9 6 10 3 4 10 5 8 5 0 10 12 8 10 8 1 5 10 20 10 15 16 15 14 14 13 12 12 13

GFSSW_925_spd_081.txt.gz
Wind_Speed
14 14 15 15 15 15 15 16 15 15 15 14 14 15 15 14 14 8 8 8 12 6 10 6 12 18 19 12 10 2 3 2 5 13 9 11 7 9 4 7 9 11 17 21 35
15 15 15 15 15 15 15 15 15 15 15 15 14 14 14 14 12 15 19 13 9 13 10 14 12 16 8 12 5 7 3 3 4 11 12 14 7 12 3 4 6 20 22 26 44
16 16 15 16 16 15 15 15 15 15 14 15 14 13 12 11 6 8 7 21 14 16 15 20 22 15 10 10 6 6 5 7 14 17 16 15 8 9 8 7 20 22 24 20 36
17 17 17 16 15 16 15 15 15 15 15 14 13 12 10 3 1 1 3 20 18 14 16 20 14 8 8 9 11 8 12 14 15 18 16 12 14 9 6 2 14 23 20 16 22
18 18 18 17 16 16 17 16 16 16 15 13 10 9 3 4 9 5 11 19 15 14 18 13 14 9 11 7 5 3 4 2 13 16 15 13 16 17 10 10 19 21 19 11 8
18 19 18 18 17 17 17 17 17 17 16 11 7 3 2 5 9 10 13 18 14 18 18 17 9 10 8 15 12 6 7 9 13 14 16 14 13 8 6 16 19 20 15 11 10
18 18 19 19 19 19 18 16 17 16 12 7 5 3 5 14 10 6 13 17 19 20 11 22 25 7 7 12 7 21 7 16 6 21 11 19 7 8 10 8 20 19 14 12 13
21 20 20 19 20 19 18 15 14 11 8 6 6 4 7 15 17 11 15 13 17 19 25 22 19 9 5 9 12 7 7 4 8 18 16 9 6 8 7 10 16 19 14 12 13
22 21 20 19 19 17 13 13 6 5 2 7 5 5 7 5 15 14 18 17 19 22 26 23 12 5 8 5 6 6 6 9 5 15 18 6 9 8 9 13 19 18 15 11 12
22 21 19 18 16 13 12 5 4 2 3 4 10 3 9 12 15 17 20 22 14 10 13 8 2 0 5 3 6 6 8 7 12 7 14 17 14 10 11 5 20 18 16 11 13
22 20 19 15 13 11 6 4 1 2 9 9 9 8 6 17 16 17 21 19 15 9 7 7 4 7 11 11 13 10 8 13 6 8 13 18 3 20 13 4 20 17 15 14 12
22 20 16 14 10 7 2 4 11 11 6 18 19 18 27 13 10 10 18 6 7 8 8 5 8 12 16 15 16 15 12 5 7 13 12 10 11 13 10 9 19 16 12 16 13
19 18 13 10 9 9 9 12 14 14 4 12 14 12 11 16 12 9 10 10 8 9 10 8 12 18 17 15 15 13 8 6 9 8 17 2 5 9 10 13 13 11 8 9 16
17 14 12 10 9 8 11 16 16 15 3 6 10 10 5 1 6 14 17 9 6 11 11 12 19 17 15 12 11 8 10 13 18 12 9 16 5 6 11 16 16 15 12 9 8
15 14 12 11 14 8 15 10 11 8 3 14 9 10 6 6 5 10 19 10 9 9 7 10 14 13 13 13 10 9 10 2 8 5 4 17 1 7 17 13 15 11 12 13 12
15 13 12 8 10 19 18 21 10 2 5 13 6 7 10 8 13 10 12 9 10 10 10 13 10 11 8 9 12 10 9 8 8 7 5 9 15 4 16 17 15 5 10 13 14
17 16 15 13 7 14 19 6 3 5 16 8 4 9 8 8 13 11 11 8 6 3 6 10 14 9 10 6 7 5 4 3 1 2 3 13 1 1 13 14 14 14 22 14 17
20 20 18 23 21 19 17 5 6 11 11 13 15 9 9 11 14 16 11 7 10 9 5 6 6 8 8 6 8 7 6 4 4 3 6 6 6 4 9 16 18 8 13 10 9
22 16 9 22 11 11 4 5 6 5 8 8 18 3 11 11 8 10 9 9 9 12 5 2 7 6 8 4 5 8 10 10 3 6 2 6 7 10 9 9 14 14 13 14 10
13 9 15 17 16 3 3 7 6 9 9 12 11 3 7 2 5 9 3 9 4 10 7 4 5 7 9 9 10 9 3 6 1 2 3 7 7 9 10 14 13 12 11 12 12
3 3 4 1 20 5 3 4 4 5 7 4 11 11 7 6 14 11 6 10 16 12 10 6 1 7 5 7 11 1 2 1 2 1 5 4 3 7 13 14 14 10 9 9 11
6 3 13 2 1 3 5 3 4 7 3 4 4 8 9 7 6 3 3 2 8 9 6 7 2 3 5 8 3 4 6 8 4 6 4 3 2 7 10 12 14 11 10 8 9
3 4 6 8 2 3 3 4 5 9 11 9 4 5 7 5 3 10 2 5 4 9 4 6 5 3 8 7 4 4 6 6 2 1 6 8 4 11 9 11 10 11 11 8 9
3 3 3 3 5 9 5 5 3 6 3 8 7 5 3 4 5 4 5 2 2 5 4 1 4 2 4 5 5 7 16 9 4 1 3 6 11 13 13 11 9 10 11 8 9
3 1 2 4 4 4 5 7 4 5 3 3 3 5 5 6 7 4 11 3 3 3 4 2 1 3 7 5 8 9 16 12 8 4 5 16 14 13 13 12 12 11 10 9 9
2 3 6 0 5 1 3 4 10 9 9 9 8 9 6 5 5 4 5 7 4 1 3 3 5 2 5 10 11 8 16 9 8 10 12 17 15 15 14 14 11 12 12 10 7
12 9 3 5 4 6 5 6 7 3 3 9 7 5 9 8 2 4 6 6 0 3 6 3 3 3 3 8 11 5 6 10 11 12 10 11 14 19 16 15 12 12 10 8 10

GFSSW_925_spd_084.txt.gz
Wind_Speed
13 13 13 13 14 14 14 13 14 13 14 14 14 15 14 15 16 8 7 8 11 9 13 5 9 9 5 3 2 3 1 1 3 11 10 8 5 4 4 18 18 5 19 25 36
15 15 15 15 15 13 14 14 13 13 13 13 13 13 13 14 14 13 17 14 11 12 12 11 6 7 3 5 1 2 2 3 4 7 15 14 10 6 4 16 9 20 20 35 36
15 15 15 15 16 15 14 13 13 13 13 13 13 11 10 11 4 8 1 21 16 15 13 15 6 3 4 3 4 2 3 6 6 12 15 13 10 7 6 6 17 24 25 25 31
16 16 16 16 15 15 15 15 13 13 13 13 12 9 7 3 3 3 4 21 18 15 13 5 3 4 4 7 5 3 4 3 8 14 14 12 16 9 2 2 17 20 26 27 21
16 15 15 16 16 15 16 15 15 13 14 13 10 5 2 0 9 7 4 22 17 16 14 6 5 4 6 3 6 2 4 2 9 14 13 16 13 8 11 5 11 23 24 19 20
18 18 17 16 17 16 15 16 15 14 14 11 6 1 2 2 5 9 12 20 17 17 14 10 6 8 6 6 10 8 9 10 7 12 10 13 10 9 3 4 18 20 22 18 19
18 18 19 19 18 17 16 15 14 14 12 7 4 3 2 11 3 11 15 21 22 19 5 23 14 1 6 7 7 4 6 13 14 10 7 16 6 9 16 14 21 17 14 19 23
18 18 18 18 18 17 15 11 12 10 9 4 3 3 7 9 13 9 12 8 16 16 22 14 9 5 6 4 2 4 3 5 10 14 14 5 8 4 6 12 17 18 12 9 14
18 18 18 17 17 15 10 9 4 5 3 5 6 3 9 11 10 19 21 8 15 15 17 14 7 6 3 2 4 1 5 3 5 18 10 2 10 11 9 6 17 16 10 9 14
20 19 17 15 13 13 7 2 1 3 6 4 5 3 7 4 7 12 25 14 5 3 3 3 2 1 4 4 5 6 4 2 9 16 7 7 10 18 16 12 17 16 11 11 12
21 21 19 14 11 10 4 0 3 1 4 8 7 5 8 6 11 9 23 13 4 4 5 3 3 6 7 6 6 3 4 4 8 16 8 7 15 19 14 6 15 13 12 11 14
21 21 18 13 11 10 6 2 6 2 7 14 15 11 20 9 3 7 13 6 5 5 3 5 5 7 6 7 7 6 3 1 6 10 7 10 9 6 8 12 15 16 13 13 11
19 18 16 15 17 7 6 13 16 17 3 8 7 6 6 10 7 9 10 6 6 6 5 6 6 7 6 8 8 7 4 4 6 9 7 13 6 9 8 4 10 11 13 14 18
18 17 15 16 5 9 8 13 22 16 4 7 3 6 4 7 4 10 9 6 2 9 5 6 6 6 9 10 7 8 8 8 14 5 6 2 4 7 7 10 12 11 12 11 15
18 17 15 13 12 3 9 26 29 3 3 12 3 3 2 6 7 4 12 3 5 6 6 8 5 7 9 16 8 11 6 8 10 7 7 2 4 6 9 12 9 7 7 4 11
18 15 14 9 12 13 15 29 6 5 3 9 2 3 4 2 1 2 7 4 2 2 3 8 7 8 10 11 12 10 2 3 4 4 3 7 5 3 13 16 15 5 8 11 9
19 17 16 11 7 8 26 5 5 4 6 6 5 5 4 7 5 5 6 4 5 2 3 5 5 7 5 7 5 4 6 1 1 1 5 9 8 7 11 17 18 16 17 11 9
19 17 15 22 20 21 13 5 7 3 6 6 8 10 8 7 7 6 6 4 5 4 2 2 6 6 3 9 7 5 8 5 5 4 5 8 4 4 6 7 7 4 7 3 1
16 9 10 10 8 1 5 5 4 4 6 5 11 8 6 5 4 6 9 5 5 5 7 1 4 4 4 5 8 3 3 7 2 1 2 5 4 7 11 12 13 12 11 8 8
10 5 9 7 10 6 5 2 3 4 3 2 6 6 4 7 6 5 3 3 3 4 2 3 3 1 7 1 2 7 4 2 3 2 3 3 3 2 2 5 8 10 9 8 10
5 3 7 7 13 4 2 4 5 4 6 2 4 5 4 4 5 5 4 4 4 7 6 4 4 8 3 1 8 4 2 5 4 4 5 5 1 4 6 5 6 5 6 7 8
4 2 5 18 3 1 1 4 1 6 6 7 3 3 4 6 5 5 4 4 7 3 3 1 3 2 4 6 4 5 2 5 5 4 2 4 2 4 10 7 5 4 6 7 6
2 3 8 5 1 2 5 1 4 6 5 7 6 4 4 3 4 3 3 4 7 6 2 4 3 3 9 6 9 6 5 4 2 2 5 6 4 5 10 9 6 6 5 5 5
1 3 4 4 1 6 4 4 3 5 5 4 3 7 7 7 6 5 6 3 3 3 2 3 4 5 4 3 1 5 11 6 5 3 3 4 10 8 11 11 8 8 9 6 6
2 3 4 1 4 4 6 4 9 5 7 10 10 5 5 4 4 5 5 6 3 7 3 4 2 2 6 7 5 3 8 14 2 5 4 11 14 16 13 13 9 9 11 10 8
3 3 5 3 4 7 6 6 7 4 4 5 7 9 6 4 2 1 1 5 2 6 5 6 2 3 6 6 9 7 14 12 6 9 11 14 9 12 11 12 9 9 10 10 9
7 5 4 4 4 5 1 3 5 5 6 7 5 5 7 3 2 3 1 1 2 2 5 4 3 3 1 4 3 5 7 8 5 6 16 8 9 16 15 14 14 13 12 11 9

GFSSW_925_spd_087.txt.gz
Wind_Speed
13 14 13 13 13 12 12 12 12 12 12 11 11 11 12 13 14 7 7 10 11 8 14 11 8 6 3 1 3 1 2 1 3 10 8 7 6 3 1 12 5 3 7 19 27
14 14 14 14 14 14 13 12 12 12 12 12 12 10 10 13 12 12 15 13 13 18 17 11 5 7 0 3 1 2 1 2 4 8 11 9 7 6 9 13 13 16 16 28 29
14 15 15 15 15 15 14 13 12 11 11 12 11 9 8 9 4 7 4 20 20 18 10 9 8 6 3 3 4 2 2 4 5 16 15 13 7 3 17 8 20 21 21 23 26
14 15 14 14 14 14 15 15 14 12 12 12 11 7 5 3 2 1 9 22 22 16 12 8 3 5 3 3 4 2 2 3 10 16 14 15 11 8 10 3 17 22 23 25 19
17 18 17 16 15 14 14 15 15 13 12 13 9 3 1 1 8 6 3 24 20 17 15 6 4 4 2 3 4 3 3 6 14 12 12 13 11 9 10 4 19 22 23 21 19
18 18 18 18 17 16 15 14 15 13 13 11 6 1 1 3 4 5 13 23 18 18 12 8 7 7 3 5 5 7 1 7 9 12 13 10 8 10 11 6 23 21 21 18 18
18 18 18 17 17 16 14 13 11 12 11 8 3 2 0 11 7 4 17 20 18 18 5 12 3 4 3 6 4 10 5 9 4 9 7 9 6 6 5 13 21 20 18 14 18
18 18 18 17 16 14 11 7 8 8 8 3 2 2 7 2 4 11 12 9 15 12 9 3 9 3 3 5 3 6 6 3 6 7 8 2 6 1 1 7 20 20 16 15 15
16 16 17 16 15 11 7 5 2 5 2 3 4 2 8 7 6 21 14 5 12 11 4 3 2 4 2 3 4 4 5 5 8 14 8 1 6 8 9 8 17 18 16 16 14
17 17 17 14 11 9 6 1 3 5 8 5 4 2 6 2 5 10 18 10 4 6 4 3 2 2 3 4 5 3 0 4 7 13 11 7 6 13 9 5 14 15 16 16 16
18 17 17 14 11 10 3 3 3 1 3 8 6 5 5 6 6 7 12 7 2 5 5 4 4 5 9 5 4 3 2 5 6 11 8 7 5 14 6 2 12 10 9 14 18
17 17 16 15 15 13 3 3 4 2 7 12 12 7 12 2 4 3 18 5 4 4 4 5 4 7 5 6 3 2 2 1 7 8 4 8 6 10 11 6 7 11 8 15 14
17 17 16 16 16 3 6 7 7 10 0 7 5 5 5 10 6 5 13 5 3 4 4 5 3 5 3 1 1 1 3 3 4 5 4 9 1 9 8 2 2 5 3 13 18
16 14 13 14 4 6 8 6 22 2 4 6 3 5 4 5 3 6 12 6 2 8 6 4 5 3 2 3 5 2 6 3 10 5 4 4 4 5 9 8 5 8 8 12 17
19 15 13 11 12 3 4 21 15 4 3 14 5 4 2 6 3 3 8 4 7 5 6 6 5 4 5 7 6 8 5 7 9 5 6 3 2 3 13 10 14 15 13 14 16
21 15 15 9 9 10 11 27 3 5 4 8 4 6 2 1 1 2 4 4 3 4 2 6 3 6 8 6 9 5 2 6 5 4 1 7 6 4 7 17 15 13 13 17 17
21 14 14 10 4 8 21 5 4 4 2 6 4 5 4 3 3 3 4 4 5 4 3 5 4 4 5 2 2 4 6 1 3 1 5 6 4 2 8 6 15 15 11 11 8
17 13 13 17 16 12 6 5 7 2 3 5 5 4 5 3 3 4 6 4 1 4 2 3 2 7 3 9 7 7 9 5 6 5 4 5 5 3 8 8 11 9 8 6 6
12 8 7 9 2 5 5 5 6 4 4 5 6 6 5 2 3 2 4 5 2 6 6 5 5 3 2 4 9 4 3 7 6 3 4 1 2 1 8 12 11 10 10 9 9
10 5 6 7 8 6 5 3 2 4 3 2 3 2 5 5 3 4 5 3 3 2 4 3 1 2 4 1 4 7 6 4 3 4 3 3 1 4 2 4 5 8 7 7 7
4 3 0 5 8 5 2 4 4 5 3 0 3 4 4 5 4 3 3 2 2 3 6 2 2 6 1 5 1 3 2 6 5 4 5 4 5 1 5 5 5 5 5 6 7
3 2 4 15 3 1 1 4 3 5 4 6 3 2 2 2 4 4 4 3 6 2 4 2 4 1 1 6 2 6 3 3 5 3 3 3 4 2 5 7 6 6 5 6 5
1 2 3 5 1 2 4 2 3 6 6 5 6 5 4 3 5 4 4 4 7 4 3 1 3 3 5 6 8 8 5 2 3 3 6 6 4 5 5 5 4 5 4 7 6
2 3 4 4 1 5 4 3 3 7 4 2 3 5 6 8 7 4 5 4 8 4 4 5 3 5 5 4 3 3 5 3 3 4 5 5 6 9 8 8 6 6 4 5 8
2 0 2 2 4 4 4 4 3 3 4 8 6 5 2 4 4 4 6 6 5 10 4 4 3 1 1 6 6 5 6 10 4 4 4 6 9 11 8 8 7 5 7 5 8
2 3 4 0 2 5 3 2 2 2 3 5 6 5 5 4 1 2 1 4 2 6 4 4 2 1 5 3 8 8 13 13 7 5 8 10 0 6 6 7 6 6 7 8 8
3 2 4 4 2 3 2 3 2 5 4 2 4 4 7 3 1 2 2 2 3 2 4 4 3 3 1 5 6 6 5 6 2 5 6 5 6 14 10 10 8 7 6 8 9

GFSSW_925_spd_090.txt.gz
Wind_Speed
13 13 13 13 12 12 12 12 11 10 11 11 10 10 10 12 13 8 7 9 13 11 12 15 9 4 4 2 4 2 2 1 4 8 7 7 6 3 3 10 2 2 11 16 23
13 14 14 14 13 13 12 12 12 12 11 11 11 9 10 12 12 11 16 11 11 17 19 17 5 5 1 2 1 2 2 2 3 5 11 8 10 6 6 6 9 13 19 23 24
13 13 14 14 14 13 12 12 11 11 11 12 11 9 8 9 4 6 6 16 16 22 17 13 18 5 1 2 3 2 3 1 4 9 14 7 5 1 13 4 14 17 17 18 19
14 14 14 13 14 13 13 12 11 11 11 11 12 7 5 3 1 1 8 21 21 21 13 11 5 4 3 2 2 2 3 1 9 14 12 12 5 10 4 5 14 20 19 18 15
15 14 14 14 14 13 13 13 12 11 10 11 10 4 1 1 8 7 6 23 22 18 11 6 8 5 3 3 2 3 0 9 13 16 13 15 9 8 3 12 14 19 18 14 13
16 16 15 15 14 13 13 13 12 11 9 9 6 2 1 2 5 7 6 27 19 15 9 5 7 7 3 3 1 2 4 14 9 11 8 11 7 12 10 11 16 18 15 13 15
16 15 15 14 14 14 12 11 9 9 10 6 1 2 1 9 4 2 18 19 17 12 5 5 8 4 5 2 3 5 5 6 9 8 6 13 5 5 8 15 18 16 15 13 14
16 16 16 14 13 11 10 8 8 7 6 3 3 3 6 3 5 8 16 8 9 9 5 11 4 3 2 4 2 5 4 5 6 8 3 2 8 6 11 21 18 17 14 13 11
15 15 16 15 13 10 7 4 2 3 2 4 3 3 8 6 4 11 13 5 9 6 5 4 7 2 1 3 4 7 4 3 5 4 5 3 3 6 11 18 16 16 16 13 13
16 15 14 13 13 11 5 2 2 6 6 4 1 1 6 2 2 9 13 9 4 6 2 2 4 3 3 4 4 4 2 3 7 7 2 4 2 12 8 15 16 14 15 14 12
16 14 14 13 14 12 1 3 3 2 3 7 5 3 4 8 3 4 12 7 5 4 5 2 4 6 8 5 5 5 6 4 1 11 11 14 3 8 6 5 16 15 14 16 15
19 15 14 14 14 9 2 1 2 2 7 9 6 6 10 4 3 3 18 6 4 4 6 5 5 7 7 5 5 3 2 2 4 10 5 2 4 8 10 3 10 13 16 16 13
20 15 14 15 14 3 3 5 2 9 0 6 5 4 3 10 6 7 6 5 6 4 4 6 3 7 5 4 5 1 3 3 5 4 4 8 4 5 3 1 1 2 12 12 15
22 16 13 13 2 4 4 1 16 5 4 5 4 2 4 4 1 6 13 6 2 7 7 3 2 6 3 4 5 4 6 3 11 5 4 2 4 5 8 9 5 8 8 13 14
28 16 12 10 9 3 0 15 3 4 4 11 6 1 3 6 6 2 10 4 6 6 7 6 5 5 3 5 6 7 5 5 4 4 4 4 2 2 11 12 16 13 10 10 13
31 18 11 7 7 6 7 13 3 5 3 6 3 5 3 3 2 4 3 4 3 5 3 6 2 5 8 5 9 5 4 6 5 3 1 6 5 3 6 12 15 12 12 10 14
29 17 10 7 3 6 14 3 5 3 4 6 3 5 3 1 3 3 4 2 4 5 1 2 3 3 4 4 1 4 6 2 3 2 5 4 5 3 4 8 10 15 8 8 10
27 13 7 12 9 6 2 5 4 4 5 4 4 3 2 1 2 2 5 2 2 6 3 5 3 7 3 7 7 6 8 5 5 4 4 3 5 3 3 8 5 9 10 9 7
20 8 7 4 1 5 5 5 4 4 4 6 3 6 5 4 2 4 3 6 3 5 6 4 4 3 5 4 8 4 4 6 7 3 3 2 3 2 4 8 10 10 11 10 7
12 6 5 5 8 5 5 3 3 5 3 3 3 2 3 5 4 2 3 1 1 1 2 4 1 2 3 3 4 5 5 4 3 4 2 3 4 4 4 5 6 8 8 7 8
4 3 5 4 2 5 2 4 4 3 1 2 1 2 1 2 4 2 2 2 2 3 3 4 3 4 2 4 4 2 1 6 6 4 5 4 6 3 5 8 8 7 6 5 5
3 2 6 7 3 1 2 4 4 4 5 1 2 2 3 1 4 2 3 2 5 1 1 1 4 2 2 4 1 2 3 4 5 4 1 3 4 3 4 6 7 7 6 4 4
1 2 1 3 2 2 3 0 4 6 5 6 4 4 3 4 3 1 2 1 8 4 3 5 2 3 6 6 6 7 5 4 4 3 5 6 4 3 6 5 3 6 4 5 5
3 2 4 4 1 5 1 1 2 3 3 2 4 3 4 5 3 1 3 3 6 6 7 3 3 4 6 4 2 4 6 4 4 3 5 5 5 8 6 6 5 5 4 4 3
3 1 2 1 3 2 3 2 2 4 4 7 5 5 2 3 2 3 4 6 6 9 4 4 4 3 4 6 4 4 7 8 4 1 3 5 8 6 10 9 6 5 6 6 5
2 2 3 1 3 2 4 3 1 1 4 4 5 5 4 5 2 4 1 4 1 6 4 4 2 3 3 5 6 4 9 7 6 2 2 2 3 2 7 7 6 6 6 6 6
3 1 3 3 1 3 2 3 1 2 3 3 3 3 7 3 1 2 2 4 3 2 4 4 3 2 1 5 5 3 5 3 2 2 3 1 2 4 6 8 7 7 7 6 6

GFSSW_925_spd_093.txt.gz
Wind_Speed
11 11 11 11 11 10 10 11 11 10 10 11 10 10 10 12 12 7 7 7 10 14 15 16 8 9 5 4 3 3 2 2 5 13 9 10 7 8 7 13 7 3 12 19 24
12 12 12 12 12 11 10 10 10 11 11 11 9 9 10 11 11 10 11 8 11 19 17 18 11 12 3 2 2 3 2 1 3 10 13 14 13 11 9 12 10 14 20 23 23
12 13 13 13 12 12 11 10 10 10 11 11 10 8 9 8 4 3 3 15 16 19 14 11 15 5 3 3 3 2 2 1 5 11 17 17 11 7 16 7 10 22 24 22 23
12 12 12 12 12 12 12 11 10 10 10 10 11 7 4 3 1 1 10 16 18 18 16 15 9 5 1 2 1 3 5 3 10 18 13 13 11 12 6 1 15 22 25 24 20
13 13 12 11 11 11 11 11 10 9 9 9 8 3 1 2 6 5 3 20 24 17 13 11 14 5 4 2 3 4 2 7 16 15 15 10 11 11 6 14 19 22 20 19 18
15 14 13 13 11 10 9 9 9 9 8 8 4 3 2 3 6 7 13 23 20 11 8 12 7 6 6 2 4 2 6 13 17 16 14 13 11 5 3 17 19 19 18 17 17
15 14 13 13 12 10 9 6 6 6 7 6 1 3 2 6 4 2 17 14 19 10 6 2 13 5 8 3 2 7 16 13 14 13 7 16 6 5 9 16 19 18 16 15 15
15 13 12 12 11 9 6 4 4 6 5 3 4 1 5 2 3 7 13 14 13 8 5 4 6 4 2 5 3 3 9 10 10 12 1 1 10 12 16 16 19 18 16 14 15
14 12 11 10 11 10 6 4 4 4 3 6 2 1 3 2 3 9 6 12 10 4 2 5 2 0 4 7 4 2 7 5 12 12 9 5 2 8 13 19 20 17 16 15 13
16 13 12 11 11 9 3 2 3 7 5 3 2 3 3 2 3 14 6 16 5 7 6 5 3 4 3 6 7 6 5 7 11 12 7 12 6 10 15 19 20 18 16 16 16
19 14 12 11 12 8 3 4 2 2 3 5 4 4 5 3 5 5 10 6 8 7 6 5 7 12 9 3 5 10 7 5 3 10 12 7 8 12 14 16 16 17 17 16 16
23 18 13 12 12 3 2 1 3 2 6 7 8 7 9 2 2 4 15 4 8 14 8 7 14 8 8 4 5 7 8 6 3 14 5 9 1 3 9 16 17 18 19 18 16
22 21 13 11 8 2 3 4 2 4 3 3 3 3 1 9 5 9 16 8 8 13 13 13 6 9 9 7 7 4 6 7 5 13 12 11 3 7 9 9 15 18 19 18 20
23 22 12 9 3 3 4 3 10 6 2 6 1 2 4 2 4 6 14 7 5 12 12 8 5 14 9 11 8 8 8 5 12 10 4 7 1 6 11 14 14 19 19 20 19
25 21 12 5 4 2 2 8 2 4 2 10 2 2 2 3 7 8 9 4 7 7 6 7 12 12 12 9 7 2 5 6 9 5 9 6 7 4 10 15 19 19 17 19 19
27 20 9 3 4 3 3 5 3 2 4 4 3 4 3 2 4 6 9 2 2 6 3 5 3 8 7 7 11 6 8 8 5 4 4 11 6 6 8 21 17 17 16 14 17
28 16 6 5 1 2 7 2 2 3 2 5 3 5 3 1 6 9 11 8 4 8 11 5 6 3 3 7 5 7 8 3 6 5 3 3 8 3 10 4 11 16 19 16 15
25 11 3 6 4 2 1 1 3 2 3 2 2 2 1 2 3 3 10 8 3 3 5 11 9 10 8 9 6 12 13 5 8 6 9 5 9 2 2 5 10 15 17 17 18
20 4 2 4 4 6 1 3 0 2 3 5 3 1 2 2 2 3 1 11 6 5 2 8 8 2 7 6 11 6 10 5 3 1 7 4 3 4 4 1 3 7 14 17 17
11 3 3 3 7 2 2 1 1 3 3 2 3 1 0 1 4 3 2 1 4 3 1 4 5 4 6 5 2 6 11 9 3 8 10 5 4 3 9 6 6 9 9 7 8
3 1 9 4 3 2 1 1 2 3 2 2 2 1 3 1 5 5 1 2 1 2 5 6 3 4 4 4 11 6 6 1 5 3 9 7 5 1 5 11 9 6 7 6 6
2 2 3 2 1 1 2 2 3 3 4 2 2 3 3 3 3 3 3 2 3 4 5 4 2 1 3 3 1 2 4 4 9 7 0 3 3 2 2 8 10 10 8 6 5
1 1 2 0 1 1 1 1 3 4 5 5 4 4 1 2 3 3 4 2 5 2 3 6 1 5 6 5 3 4 2 2 3 2 7 8 3 2 5 8 6 8 6 4 4
1 2 2 3 2 1 2 1 1 3 3 2 3 1 1 4 5 3 4 3 8 3 6 2 3 2 5 5 3 5 5 3 2 5 7 4 4 8 10 10 8 6 5 4 3
2 2 2 2 2 2 1 1 2 3 4 7 2 6 2 3 3 3 1 5 3 10 4 2 4 11 11 11 11 12 8 5 5 3 5 1 4 1 12 11 10 8 6 5 4
1 1 2 2 1 1 2 2 2 1 4 3 4 8 4 4 2 2 1 1 2 4 4 6 4 4 2 2 3 10 10 10 8 4 2 2 3 1 10 9 9 9 8 7 6
3 1 1 1 2 2 1 2 3 1 2 4 1 1 7 5 1 2 3 6 5 1 3 3 5 5 3 4 2 3 5 7 5 3 1 2 3 9 12 10 11 11 10 9 8

GFSSW_925_spd_096.txt.gz
Wind_Speed
8 9 9 9 9 9 8 8 8 9 10 9 8 8 9 12 11 5 9 5 8 13 16 14 11 12 11 6 2 5 2 3 7 11 10 14 14 11 6 12 6 3 12 26 26
11 11 11 11 10 9 9 8 9 8 8 8 9 9 9 11 9 13 10 8 9 20 18 18 14 14 7 6 5 4 3 4 3 9 16 18 14 12 12 12 11 16 24 29 26
11 11 11 11 11 10 10 10 9 9 9 7 7 7 8 7 8 4 4 8 16 24 17 14 13 12 8 7 5 1 2 0 6 13 18 17 13 11 13 11 15 21 25 26 25
11 11 11 11 10 9 9 9 9 9 9 8 7 6 4 4 1 4 7 13 19 19 15 14 14 11 5 6 3 5 1 3 9 16 17 16 12 11 11 6 14 22 26 26 22
12 11 11 12 12 11 11 9 9 8 8 8 6 2 1 7 4 6 3 18 18 17 20 15 14 10 11 4 4 7 0 7 15 16 13 11 11 13 6 9 17 26 24 21 19
13 13 12 11 10 10 9 10 9 9 7 6 2 2 5 8 3 4 10 19 18 18 17 15 11 9 5 3 5 3 4 14 17 18 12 12 15 10 10 17 21 22 20 18 18
14 12 12 11 11 10 9 7 6 6 8 7 3 1 8 3 4 3 13 15 19 15 13 12 9 12 9 4 1 10 13 13 16 15 13 14 10 10 15 19 20 20 18 16 17
13 12 11 10 10 9 7 5 4 5 4 1 5 4 4 3 2 7 11 12 13 11 9 5 9 6 5 6 6 8 15 14 15 15 6 2 13 10 8 18 20 19 16 15 14
14 12 10 9 9 7 3 3 3 4 4 7 2 5 5 4 6 11 13 13 13 10 7 7 9 6 7 10 8 3 10 12 14 10 8 5 4 15 9 8 19 17 16 15 14
18 15 11 8 8 6 1 1 2 6 2 4 6 5 4 5 9 13 9 13 11 12 10 10 8 10 11 11 8 5 9 17 15 12 12 8 5 9 11 12 19 18 17 16 16
19 19 12 9 8 2 4 1 5 5 7 7 5 5 2 7 12 12 12 12 9 14 11 15 11 15 15 13 1 15 9 10 12 18 13 13 7 10 14 13 18 19 17 17 16
20 22 14 10 11 3 2 5 6 5 6 4 6 7 7 1 10 12 12 9 11 15 13 10 16 17 4 6 8 12 15 9 10 15 9 13 10 6 10 14 19 19 19 18 17
19 22 14 8 5 2 6 4 2 6 6 4 2 3 5 11 8 15 17 7 13 15 16 14 14 6 10 11 9 9 10 12 16 12 8 14 7 5 3 7 14 20 19 18 19
20 22 13 5 1 2 3 2 4 3 4 5 5 5 7 6 7 17 19 8 7 14 16 15 6 12 14 14 11 10 2 4 16 12 4 5 2 4 1 8 14 17 18 17 17
20 22 11 5 6 4 1 3 1 5 0 3 5 2 4 7 14 11 18 7 10 11 11 9 15 17 16 14 9 4 3 5 11 8 13 8 3 4 4 11 17 20 21 21 21
21 21 11 3 5 5 2 3 4 6 4 2 1 0 8 9 7 14 14 10 1 8 15 4 10 13 14 9 12 0 7 6 6 8 6 12 5 7 8 17 13 19 20 20 21
22 17 6 6 2 2 4 5 6 4 2 3 2 1 4 6 9 16 15 14 9 11 13 9 12 9 9 14 13 11 10 6 7 7 2 13 8 7 21 14 18 19 21 20 18
21 8 2 8 4 4 6 7 2 2 2 1 2 2 9 6 6 10 15 14 7 11 12 13 15 15 13 14 11 19 15 8 8 11 7 8 6 5 7 8 6 9 22 20 19
13 0 3 2 5 6 7 2 4 2 4 7 5 5 6 9 4 8 13 14 11 11 7 13 12 18 12 14 9 15 17 16 11 2 10 12 6 4 5 5 7 14 18 22 22
4 4 3 1 4 8 6 4 2 5 7 4 6 2 4 11 10 10 10 5 11 5 9 4 11 12 16 11 16 12 15 16 10 12 12 7 10 6 11 9 4 7 16 19 18
3 5 3 3 3 6 1 5 2 3 6 6 6 3 1 4 9 10 8 5 4 9 9 6 9 11 14 15 16 12 12 14 16 15 10 12 12 5 6 10 10 7 4 2 8
4 5 3 2 5 1 2 2 1 3 1 2 4 5 5 2 5 5 6 3 4 6 13 12 7 10 19 5 9 18 17 18 13 17 11 12 3 4 6 9 10 9 9 8 7
2 2 2 4 4 5 5 4 2 3 4 6 3 4 2 1 1 2 1 5 9 5 3 8 9 7 8 9 7 14 12 13 16 15 18 14 6 5 8 8 6 9 10 8 8
3 5 4 3 2 4 2 1 2 3 2 3 4 3 4 3 3 4 6 5 3 7 6 4 5 11 10 15 14 10 11 15 15 12 12 13 8 9 10 10 9 9 7 6 5
2 1 3 5 5 1 2 1 2 2 0 2 3 3 4 3 4 3 2 1 6 5 4 4 1 6 6 8 7 8 12 14 16 16 9 8 10 7 10 10 11 10 9 8 7
3 3 3 3 4 5 4 1 2 0 3 2 2 3 2 1 6 6 2 2 1 5 14 6 4 1 8 5 7 9 5 4 3 5 5 5 4 3 9 9 11 11 8 8 6
2 2 5 4 6 6 2 1 2 1 3 2 2 1 5 7 5 4 4 6 4 6 8 6 8 5 9 3 4 8 6 5 5 2 3 10 8 6 9 9 10 10 10 8 8

GFSSW_925_spd_099.txt.gz
Wind_Speed
9 9 10 10 10 10 11 11 11 12 11 10 9 10 10 11 11 9 12 4 9 8 11 12 12 13 13 6 8 4 3 5 6 16 13 17 15 12 8 10 8 5 21 24 24
11 11 11 11 11 11 11 11 11 11 12 12 10 9 9 11 12 17 12 10 11 15 14 15 14 13 11 11 5 6 3 9 2 9 18 18 15 14 11 10 10 14 25 28 23
12 12 12 11 11 10 10 10 11 11 12 11 10 10 7 8 14 4 11 9 14 21 17 15 11 12 11 9 8 1 2 6 6 10 20 21 14 12 16 11 16 21 24 24 24
12 12 11 11 11 11 10 10 10 10 10 10 9 9 7 8 2 7 3 8 17 19 19 16 12 14 11 12 3 1 6 5 3 11 20 17 16 13 11 12 17 22 24 23 19
13 12 12 11 10 10 10 9 9 9 9 8 7 5 6 8 8 2 5 12 17 20 19 15 14 13 10 10 5 6 2 4 5 17 16 14 12 13 12 8 20 23 22 20 17
12 12 12 11 10 10 9 9 7 6 6 6 5 2 9 14 3 0 8 14 17 21 18 18 11 12 6 12 6 4 7 8 11 14 9 11 15 11 9 13 22 23 21 19 17
14 12 11 11 10 9 8 6 5 5 6 5 3 3 11 6 2 3 11 15 17 19 14 17 16 11 5 3 4 6 4 11 5 15 7 5 13 10 14 18 23 22 19 18 16
16 14 12 11 11 9 7 5 4 6 3 1 4 6 7 2 3 7 13 13 14 15 13 15 8 16 12 11 5 10 14 8 13 16 6 4 12 14 16 19 22 21 18 16 15
17 17 13 11 11 9 4 3 3 2 2 5 4 9 6 3 10 10 12 14 13 11 9 5 17 14 11 11 3 9 6 12 14 14 8 5 13 8 14 18 20 18 17 16 15
18 19 14 12 11 9 4 3 4 1 2 6 11 8 6 8 9 10 12 14 14 12 10 12 9 14 12 14 12 11 3 19 15 11 14 9 2 3 7 5 17 16 18 16 17
18 19 16 11 10 7 2 3 6 7 13 12 1 7 4 5 8 12 11 15 12 13 15 17 14 15 19 20 16 3 3 6 16 14 10 10 7 3 8 6 10 16 15 17 18
18 19 17 10 10 6 5 7 10 9 7 6 4 8 3 8 11 13 14 12 13 15 19 12 17 18 19 14 9 19 18 9 19 23 8 13 5 4 9 10 11 10 19 19 21
18 19 17 9 8 5 11 11 7 9 8 7 3 6 11 11 11 15 16 16 12 17 18 15 15 18 14 10 14 15 11 2 6 13 13 14 5 5 5 12 19 20 18 17 17
18 19 17 7 3 4 8 2 7 6 6 12 9 5 6 10 8 20 18 11 11 15 16 16 16 18 7 14 15 14 18 9 17 18 8 5 5 12 8 7 9 20 16 18 18
19 20 16 7 12 12 5 7 11 5 2 4 7 4 8 14 13 12 19 13 12 13 10 16 17 13 15 17 15 5 16 27 22 12 18 14 6 10 14 5 7 18 10 18 15
18 21 13 5 8 12 9 11 6 8 2 4 4 5 10 12 7 13 16 15 10 14 15 19 8 12 16 15 13 5 10 8 12 10 2 14 12 12 12 10 5 16 15 16 22
20 20 12 7 2 6 9 10 8 2 2 3 1 4 10 8 10 11 17 16 11 11 14 16 9 13 15 17 8 13 15 6 7 2 5 14 9 7 19 20 16 19 22 18 10
21 12 8 13 7 9 11 11 7 4 3 2 3 4 10 6 9 15 15 15 18 16 11 14 13 18 10 18 12 16 18 7 7 6 7 16 5 13 23 24 23 25 22 22 23
16 5 11 7 9 9 8 12 6 3 4 8 7 11 11 3 5 11 14 15 17 10 17 15 17 18 14 13 16 15 17 15 7 5 6 7 9 5 16 18 14 16 23 19 18
8 14 11 5 8 11 11 5 2 5 8 8 12 14 9 9 8 8 14 14 13 13 18 11 12 17 15 13 18 16 15 16 11 14 8 6 5 7 17 17 16 15 15 23 22
9 7 8 6 7 8 10 8 1 5 9 7 11 6 15 7 7 6 5 5 6 14 6 9 10 14 13 15 18 14 12 14 17 14 12 6 4 4 13 18 13 9 13 17 20
17 7 10 8 9 5 2 2 3 4 1 7 6 11 2 14 6 4 4 6 14 6 14 16 9 13 18 15 18 17 17 16 12 18 14 9 2 12 11 11 15 9 6 6 10
9 3 9 10 9 8 8 5 4 6 6 6 7 4 4 9 2 5 3 4 4 7 9 7 12 13 10 16 13 13 15 20 16 15 17 14 7 12 9 10 13 13 8 6 8
6 6 6 7 10 10 4 4 3 6 6 6 9 4 9 8 7 7 7 6 1 10 12 8 14 16 9 5 17 19 20 21 19 14 16 13 20 16 15 13 12 13 11 9 6
6 5 2 9 8 2 2 4 3 2 3 4 5 9 8 1 9 7 5 4 5 4 8 7 15 17 6 15 22 19 21 10 15 16 12 3 6 16 15 14 13 14 10 11 11
5 5 6 1 2 5 8 4 4 2 2 1 8 3 6 5 5 10 2 6 2 8 7 10 7 13 12 9 10 13 16 21 18 17 18 2 9 4 15 15 13 12 13 11 10
3 8 6 9 7 9 3 4 3 1 2 5 4 8 3 10 8 7 6 2 3 6 12 10 6 7 15 9 10 9 10 10 11 8 7 7 15 10 10 11 12 11 8 9 8

GFSSW_925_spd_102.txt.gz
Wind_Speed
11 11 12 12 12 12 12 12 12 12 11 12 12 12 12 13 15 10 12 10 16 11 9 10 13 17 14 8 7 5 4 5 5 17 16 23 15 9 11 13 16 8 22 23 21
12 12 12 12 12 12 12 12 12 12 12 11 11 11 12 14 17 21 18 17 10 9 11 14 13 13 11 8 5 8 4 11 15 9 16 19 16 13 11 9 11 21 27 29 27
12 12 12 12 12 12 12 12 12 12 11 11 10 10 10 10 11 5 14 16 13 14 17 16 15 14 11 6 10 5 4 9 14 6 15 21 14 17 9 10 12 23 22 19 23
13 12 12 12 12 12 12 12 12 12 11 9 9 10 10 5 3 7 9 9 12 14 17 19 15 12 10 9 6 10 5 13 12 20 19 17 14 18 14 9 21 21 21 19 18
13 12 13 13 12 12 12 12 11 10 9 7 7 8 5 8 13 4 5 9 13 15 19 16 15 13 12 3 11 6 3 6 4 16 20 17 19 15 3 14 23 22 20 19 17
16 14 13 13 13 13 11 10 8 7 7 6 6 5 7 12 4 3 5 10 15 18 20 17 13 14 5 11 4 3 3 9 6 9 17 20 16 18 11 14 23 22 20 17 17
18 16 15 15 14 13 11 9 7 7 7 6 4 4 11 16 2 5 8 11 15 19 17 16 18 11 9 9 14 4 6 3 6 13 8 8 14 8 14 21 23 21 18 15 15
17 18 16 15 14 13 10 8 7 8 6 3 3 4 8 4 8 7 11 13 17 17 19 15 16 15 16 4 3 3 9 8 2 4 9 7 6 2 13 20 22 21 17 16 14
18 19 19 16 14 14 12 8 8 8 4 2 4 9 13 1 10 14 14 15 15 17 17 10 11 13 17 16 5 9 6 10 8 12 9 5 8 10 15 18 21 17 15 16 14
18 19 21 17 14 15 11 10 11 7 5 8 14 10 10 12 10 12 12 13 12 11 9 8 8 14 16 13 10 7 7 13 11 10 14 13 5 5 7 13 14 14 11 13 14
18 20 21 18 14 15 12 7 5 6 11 11 5 11 4 1 2 9 13 13 14 11 15 16 13 15 18 19 14 9 3 4 8 17 12 12 5 4 5 5 6 17 13 12 16
19 20 21 18 14 14 10 6 10 11 13 19 7 10 9 2 8 13 12 12 14 14 17 15 17 18 19 10 17 16 16 6 7 13 10 12 10 1 8 5 4 5 11 17 15
20 21 21 18 14 14 13 16 12 11 10 7 2 9 9 10 13 14 14 16 13 15 17 19 15 19 19 17 11 11 16 8 2 12 19 15 6 8 4 12 11 12 9 11 13
20 21 21 17 10 13 18 2 7 11 5 8 9 5 4 8 13 14 17 14 9 14 18 17 19 17 18 14 10 13 19 16 14 12 9 9 5 6 9 13 13 19 12 13 11
21 20 21 13 15 12 8 7 10 9 4 1 6 4 4 10 4 13 17 17 18 15 13 16 16 19 12 18 10 15 22 21 23 11 9 13 5 7 18 18 19 20 17 16 20
22 22 22 9 11 16 12 12 10 5 3 5 4 8 7 13 9 12 12 16 13 14 15 17 13 17 16 9 11 21 11 16 12 5 7 18 14 12 17 20 19 21 15 15 17
22 25 23 13 11 10 11 9 5 5 5 6 1 4 11 11 11 9 12 16 13 11 14 16 20 9 7 11 14 15 15 4 2 4 5 6 11 9 22 22 25 17 9 16 9
23 26 14 19 14 14 12 9 6 7 7 2 5 6 8 10 9 10 11 14 16 18 13 12 14 12 14 15 14 13 18 4 1 6 2 12 7 11 22 18 22 20 22 11 16
25 10 8 14 15 9 7 7 6 10 11 9 12 12 8 8 2 6 13 15 16 18 18 10 14 14 18 12 18 12 14 14 12 3 7 7 11 18 19 14 19 19 25 19 18
16 14 19 14 10 9 8 12 9 6 9 13 14 4 6 14 9 9 12 12 14 18 15 16 10 16 14 11 15 15 11 13 6 5 6 1 4 5 21 17 16 16 21 24 23
6 6 14 9 9 6 9 6 5 6 6 8 15 16 12 9 14 16 4 7 20 3 11 14 11 19 14 11 14 11 12 10 15 13 5 4 6 8 19 18 17 15 19 26 26
9 9 13 10 7 9 9 8 3 6 4 7 6 9 10 9 6 12 8 5 11 8 10 15 11 6 11 12 13 16 15 15 9 15 11 8 8 8 13 11 12 7 15 6 17
5 11 10 13 10 6 12 3 2 7 11 8 11 9 11 3 1 8 6 6 6 9 6 9 9 9 14 10 13 14 17 16 14 13 14 11 6 10 19 18 8 10 9 10 11
5 5 5 8 11 14 12 8 2 8 6 3 11 12 7 3 4 3 4 7 7 9 8 4 13 16 11 8 14 16 19 13 14 12 12 12 20 22 17 14 14 11 10 10 11
5 5 7 8 12 13 2 8 2 6 3 4 6 7 14 3 5 16 4 11 5 2 9 8 14 16 17 7 16 19 16 16 17 18 11 2 17 17 12 15 11 9 9 10 9
5 8 10 6 2 4 6 9 6 4 1 9 2 11 6 11 11 12 6 22 3 6 9 9 9 12 16 10 17 19 21 17 22 15 13 15 6 10 17 16 14 13 8 9 10
12 15 9 6 6 9 5 5 3 4 2 7 8 8 10 12 6 7 10 7 9 7 9 3 6 7 11 17 14 15 15 15 12 11 10 15 6 11 9 12 7 15 14 10 11

GFSSW_925_spd_105.txt.gz
Wind_Speed
12 12 12 12 13 12 12 12 12 13 12 12 12 12 13 16 17 9 7 11 8 11 3 5 9 18 21 11 5 4 4 2 4 8 10 16 9 6 11 15 15 9 16 16 30
12 12 13 13 13 13 12 12 12 12 12 12 11 11 13 16 16 13 19 14 9 12 7 11 12 16 9 4 4 4 3 7 8 5 3 15 11 10 9 11 19 19 19 26 22
13 13 13 13 12 13 13 12 12 12 11 11 10 10 11 12 6 6 7 20 18 13 12 17 21 12 10 3 4 4 3 6 7 16 15 9 12 5 13 9 23 22 19 19 25
14 13 14 14 15 13 13 12 12 11 10 9 9 10 10 3 1 1 4 16 17 12 10 12 11 11 7 7 3 3 14 11 4 16 7 14 13 9 11 15 25 22 21 20 16
17 15 15 14 14 15 13 12 11 9 8 8 8 9 3 4 9 5 6 10 9 12 15 12 11 10 8 6 3 7 8 14 16 22 16 8 13 7 9 26 21 16 11 19 16
18 18 17 16 15 15 14 12 10 9 8 7 6 5 2 5 3 7 7 9 11 15 14 18 9 11 6 6 9 1 6 14 14 7 13 17 9 7 4 23 22 19 12 12 15
19 19 19 17 16 15 13 12 9 8 8 7 4 3 5 14 4 6 9 5 15 16 8 24 25 8 7 8 6 6 6 9 10 6 5 17 10 9 15 21 21 18 14 13 11
19 21 21 20 16 15 14 12 11 10 9 6 1 0 7 10 8 17 13 12 10 19 22 27 19 9 5 5 2 1 1 4 7 4 9 8 5 12 17 17 18 16 13 14 16
19 21 22 22 17 16 15 13 12 10 6 3 2 4 8 5 8 16 14 15 20 19 24 24 16 8 9 6 6 2 2 4 7 4 7 1 5 7 19 20 17 14 9 13 13
19 21 23 23 19 18 17 15 12 10 4 4 8 6 9 4 14 9 17 19 10 11 11 10 4 2 5 3 5 6 4 2 8 8 16 0 4 4 9 11 16 15 10 14 17
20 21 23 23 20 18 19 6 1 1 5 9 6 6 14 6 5 2 8 13 10 4 6 4 3 7 12 15 16 8 9 9 10 9 7 12 4 0 9 9 9 10 7 10 15
21 22 23 23 21 18 13 4 8 11 7 16 19 15 12 11 3 7 14 6 5 8 7 6 8 13 16 4 13 10 5 7 12 10 7 9 5 3 4 3 2 7 7 2 14
22 23 23 24 21 16 10 16 14 19 4 11 13 7 8 6 11 8 8 8 6 8 8 9 13 17 17 10 8 8 4 8 7 8 1 2 5 2 0 2 3 5 4 3 2
22 23 23 26 12 11 12 21 18 13 3 6 6 4 4 6 7 14 16 10 7 10 12 8 17 15 15 10 5 4 9 11 13 9 3 5 1 3 6 9 6 6 7 2 3
22 24 23 24 18 7 13 20 12 9 4 3 5 5 3 5 7 12 19 7 12 12 4 10 11 12 12 11 14 6 17 7 8 8 6 2 4 3 4 10 15 15 12 4 6
23 23 25 9 12 17 20 21 19 2 4 6 7 7 7 8 14 9 8 6 8 12 14 10 9 8 7 1 21 25 18 11 4 2 3 10 5 7 13 25 28 16 12 9 3
25 24 25 17 7 11 20 8 3 4 5 5 2 9 9 7 9 9 8 7 5 3 6 10 10 9 9 14 22 20 12 4 1 2 4 5 6 12 17 16 17 19 13 10 5
27 25 23 23 17 12 18 4 3 9 10 9 6 7 3 4 6 11 7 5 10 10 8 6 7 8 3 4 16 17 12 6 6 4 2 3 2 6 14 19 14 17 13 9 9
30 15 9 17 11 12 2 3 4 12 10 10 12 5 4 11 11 1 4 8 9 11 8 4 4 5 8 9 7 7 4 10 7 1 4 2 2 11 4 5 12 13 13 13 9
17 9 15 20 16 14 2 8 10 1 10 7 9 9 4 8 5 10 6 2 4 6 10 10 6 6 7 9 8 6 5 3 2 4 3 5 3 5 4 4 11 13 14 19 15
3 3 12 15 22 3 5 9 11 3 5 3 9 8 4 3 0 4 8 9 14 12 8 5 1 10 9 6 7 3 3 5 5 5 5 5 5 9 11 4 8 12 16 17 16
8 3 9 17 3 4 8 14 4 10 5 5 6 8 6 4 3 4 4 7 18 12 7 7 2 5 8 3 10 6 7 7 4 4 4 5 3 4 15 23 18 15 18 20 22
4 5 21 11 5 7 5 13 7 3 6 4 6 9 10 5 4 6 3 7 13 11 4 7 4 5 8 7 2 6 8 6 4 1 5 4 4 11 16 15 16 16 20 18 14
3 3 4 3 6 8 11 11 9 6 3 4 3 8 8 5 9 6 10 9 17 11 2 1 2 4 1 5 9 7 7 9 3 3 5 4 7 7 7 5 6 9 10 11 18
3 5 9 3 5 12 13 5 7 3 3 4 2 6 6 4 6 2 2 8 13 5 2 2 4 6 6 10 8 13 13 8 8 8 2 6 7 7 4 8 10 7 10 12 12
3 4 5 11 13 5 6 2 7 4 4 7 7 12 9 6 5 8 5 5 7 8 8 5 4 3 6 13 13 6 10 13 11 10 12 20 7 3 6 12 8 8 7 7 9
8 7 3 8 8 2 5 2 4 6 5 2 5 5 6 5 7 13 15 7 4 5 4 3 3 5 1 11 11 6 12 16 7 23 2 6 10 12 5 10 8 13 8 8 13

GFSSW_925_spd_108.txt.gz
Wind_Speed
13 13 13 13 13 13 13 12 13 12 12 11 11 11 12 14 15 8 7 9 3 7 0 3 4 7 5 3 4 4 3 2 4 5 1 6 10 8 13 16 10 4 15 21 27
14 13 13 14 13 13 13 13 13 12 12 11 10 10 11 14 13 12 15 10 10 5 9 6 5 6 3 5 4 4 2 7 8 6 6 8 6 12 10 16 9 18 17 27 27
16 15 15 15 15 14 13 12 12 11 11 10 10 9 11 10 4 7 6 16 14 7 9 8 10 3 7 3 5 5 5 9 14 14 8 6 11 8 20 12 21 21 21 21 26
18 18 16 15 15 14 13 13 12 11 10 8 8 8 9 3 2 2 2 13 17 11 8 1 2 3 4 7 4 4 8 11 8 12 6 8 7 11 19 12 20 20 25 22 19
19 19 19 16 15 14 14 12 11 10 9 8 8 7 2 1 8 5 3 10 14 13 10 5 4 5 4 7 7 6 11 11 2 8 7 9 9 14 18 17 18 17 17 19 19
20 20 20 19 16 15 14 13 11 10 10 9 7 4 2 3 2 7 8 12 11 15 10 9 7 1 7 8 7 8 10 8 3 3 6 5 6 5 16 22 22 17 14 20 16
19 20 21 22 20 16 14 13 11 10 10 9 4 3 1 12 7 7 9 6 15 14 5 20 12 2 7 8 5 9 7 12 7 8 3 15 9 12 23 19 21 18 16 14 22
19 20 21 22 22 19 15 15 11 8 9 6 2 2 6 7 11 11 17 9 8 12 19 16 8 5 5 4 4 1 3 5 8 10 6 7 15 17 21 22 18 17 16 16 24
19 21 22 23 23 21 17 17 13 7 6 3 1 1 9 10 6 15 15 14 14 15 18 15 5 6 5 2 5 1 3 3 9 7 3 1 1 15 17 17 16 12 8 17 18
19 21 21 22 24 24 18 18 10 3 0 2 5 4 7 4 6 7 14 16 5 3 4 4 2 1 4 4 5 3 2 10 7 6 5 9 7 4 7 17 18 12 11 17 16
20 21 21 21 23 24 22 6 4 2 3 8 6 5 10 7 4 2 8 7 4 3 4 4 4 4 8 7 0 4 7 10 4 3 6 8 10 5 5 8 6 7 14 17 17
21 22 22 22 25 22 16 1 6 1 8 13 13 8 20 13 4 5 4 3 3 5 2 4 5 11 8 4 7 11 14 5 3 2 0 2 9 8 5 2 3 6 13 17 11
22 24 24 21 22 8 11 13 15 21 3 9 5 5 6 7 5 7 5 5 1 3 3 7 12 8 6 4 8 6 8 8 5 6 2 5 4 5 4 5 3 2 3 5 12
22 23 25 25 6 10 12 13 23 7 4 7 2 5 3 5 4 10 10 6 1 9 7 7 12 10 8 10 6 3 9 15 11 2 1 2 3 7 6 10 3 6 4 6 9
23 23 22 22 15 5 11 28 30 5 4 4 3 8 4 7 2 4 14 3 8 6 3 10 6 5 8 11 8 6 8 17 8 2 3 4 2 1 3 7 10 7 8 7 8
24 24 23 13 15 15 18 29 5 5 3 4 4 5 3 3 3 2 6 1 2 2 4 10 7 8 8 1 12 21 16 10 7 1 1 4 2 1 5 13 16 10 11 8 7
26 24 25 17 6 8 22 6 5 3 7 7 2 4 5 4 1 8 7 4 3 1 3 7 6 5 19 20 8 3 6 4 2 1 4 8 4 6 10 11 14 10 10 9 6
29 25 14 17 15 14 10 5 3 5 6 6 6 4 3 4 3 6 5 4 5 4 1 2 8 4 8 11 12 13 6 5 7 4 2 8 3 5 4 11 19 14 13 11 8
29 11 9 8 7 7 5 3 5 2 4 5 8 7 7 5 3 6 5 3 6 7 5 2 6 7 4 7 13 7 5 5 6 3 3 1 4 9 3 2 6 15 16 13 10
17 8 7 7 7 7 4 4 3 3 2 6 3 2 3 4 4 4 5 3 8 4 4 6 4 5 7 6 10 13 8 3 2 5 3 2 2 6 9 5 6 12 16 16 15
7 3 6 11 13 5 2 6 6 7 2 3 3 4 5 2 3 4 5 4 11 9 7 5 4 8 2 1 8 2 4 4 5 5 5 5 5 9 13 9 13 13 15 18 19
6 2 6 24 3 2 3 5 3 7 1 3 4 4 3 5 5 4 4 2 9 10 6 3 3 2 8 7 8 7 8 6 5 3 2 4 6 7 14 11 14 13 12 11 18
3 3 5 13 4 4 6 8 6 7 3 3 2 2 3 2 4 2 3 4 5 4 4 5 3 4 10 7 8 6 5 1 4 3 5 5 5 2 8 6 2 9 8 8 9
2 3 4 4 1 7 5 7 6 6 4 4 4 0 4 3 6 3 2 4 6 4 5 2 3 4 3 6 5 5 12 9 3 3 2 5 5 4 7 4 4 7 7 7 9
2 4 3 3 4 6 1 4 9 4 3 5 4 5 2 3 3 3 2 6 4 4 4 3 2 3 2 4 5 10 15 15 6 4 5 5 6 6 9 10 9 9 8 9 11
1 1 5 3 4 6 4 9 9 3 4 1 6 5 8 6 6 6 5 4 5 5 5 4 2 3 5 7 8 5 19 14 10 13 4 5 2 3 11 12 10 12 13 10 12
4 5 2 4 4 4 2 7 8 9 4 6 7 5 5 2 6 7 9 4 2 1 2 3 3 3 1 5 4 7 10 11 1 11 6 4 3 7 6 9 7 8 10 12 13

GFSSW_925_spd_111.txt.gz
Wind_Speed
13 13 13 12 12 12 12 12 12 12 11 11 11 11 12 13 15 9 6 6 5 7 2 2 3 2 0 2 2 3 3 2 3 1 2 3 6 4 6 14 4 2 7 13 24
16 15 14 14 13 13 12 12 11 11 11 10 10 10 11 14 12 11 11 8 9 8 5 2 2 3 1 2 2 3 2 2 2 3 5 7 13 8 7 12 8 14 16 23 26
18 18 17 16 15 13 13 12 11 11 10 9 9 9 10 11 4 6 4 14 12 6 8 4 2 2 1 2 4 4 5 6 7 6 3 6 2 4 17 6 15 21 19 19 22
18 18 19 18 16 15 13 12 12 11 10 10 9 9 9 3 3 1 5 12 15 10 5 5 3 3 2 4 5 4 6 6 7 4 2 4 6 3 16 8 17 20 23 22 15
18 19 19 19 18 16 15 13 11 10 10 10 9 8 2 2 7 3 1 15 15 10 7 4 4 3 2 2 5 3 6 7 3 4 2 4 8 3 13 18 18 21 19 19 16
18 19 20 20 19 17 15 14 12 10 9 9 6 5 2 3 3 2 5 14 12 15 9 6 6 5 3 4 7 5 8 5 2 4 3 3 5 3 10 17 20 20 19 17 17
18 19 20 20 20 19 15 14 13 10 8 8 3 3 1 9 5 4 7 6 13 14 4 9 7 5 3 7 4 12 7 4 1 1 3 4 7 7 16 17 21 19 16 17 19
18 19 20 21 21 19 16 15 14 10 6 5 2 2 6 3 5 11 12 12 7 15 13 1 10 3 3 5 6 5 4 2 3 3 1 6 4 2 18 20 20 19 16 17 18
19 19 20 21 22 21 18 17 16 7 3 1 2 2 8 5 7 9 15 9 7 8 5 5 2 4 1 1 4 6 2 3 3 8 3 2 3 6 14 20 18 18 16 16 16
19 20 21 21 22 22 19 18 6 1 3 1 2 3 6 4 5 2 11 17 2 3 2 3 3 2 3 4 3 2 4 7 3 4 3 5 7 6 4 14 19 15 13 18 19
20 21 22 22 22 23 19 4 5 3 4 6 5 4 7 8 6 2 9 9 3 3 2 1 3 5 8 4 4 5 5 10 3 3 3 3 3 9 9 3 11 10 17 17 20
21 23 23 22 24 20 7 3 2 2 8 9 9 6 12 3 3 6 7 4 4 5 3 4 5 7 2 3 2 9 9 4 4 3 1 5 9 6 9 4 2 7 18 19 15
22 23 24 23 20 5 11 6 7 14 1 7 5 5 5 10 6 6 6 3 2 3 4 6 6 4 4 2 4 2 6 7 6 6 3 1 3 4 6 1 4 4 11 19 20
21 23 24 24 6 11 10 3 22 1 4 6 3 5 3 5 2 5 7 5 1 6 3 4 6 6 5 5 6 5 6 8 14 6 2 1 3 6 7 6 4 3 4 14 20
21 23 23 20 14 5 4 18 9 4 3 2 3 1 2 5 2 4 6 3 5 4 4 7 4 4 6 9 7 4 12 11 5 4 5 5 2 3 9 7 7 8 6 7 20
22 23 25 13 11 11 12 20 3 5 2 4 1 1 2 2 3 3 3 4 3 4 2 8 4 5 6 1 13 17 9 6 0 2 2 5 3 4 7 19 13 7 7 7 15
24 26 26 17 5 2 16 4 4 3 4 5 4 1 3 3 3 4 5 5 3 2 3 5 1 3 7 12 5 6 5 2 1 2 3 4 2 9 9 9 18 14 7 9 7
28 25 14 17 9 5 5 5 3 3 5 4 3 2 3 3 3 3 4 4 1 2 1 1 3 7 5 6 10 7 6 5 6 4 3 3 5 5 6 9 15 5 8 10 8
25 11 8 6 8 7 5 3 5 4 4 2 4 6 4 4 2 4 3 1 1 1 1 2 5 4 4 5 10 6 4 4 7 3 3 3 6 5 9 5 15 20 22 15 10
17 7 6 4 13 6 4 4 4 4 3 2 3 2 4 4 4 4 5 2 3 0 2 2 4 4 2 4 2 7 6 2 2 5 3 4 6 4 8 11 12 14 20 20 22
5 3 2 16 6 5 3 6 5 6 4 3 4 2 1 2 2 2 1 2 3 5 5 1 4 7 3 4 7 1 2 5 5 4 5 3 6 8 14 13 15 14 19 19 20
5 2 1 17 3 1 2 5 4 3 4 2 4 3 1 3 3 1 2 3 1 3 1 1 3 4 8 2 5 2 0 4 5 4 2 4 6 4 8 7 10 12 14 13 16
2 3 3 3 3 3 5 4 4 4 4 2 2 2 3 3 2 3 3 1 3 3 3 1 3 4 8 6 7 5 5 1 3 4 5 5 6 2 8 8 7 10 9 13 13
2 2 3 2 0 5 2 5 4 5 5 4 4 4 4 2 3 3 3 4 6 2 7 2 3 4 5 4 1 4 7 4 5 4 3 6 6 1 5 9 7 8 9 12 15
1 3 2 2 2 1 3 3 10 4 2 2 4 2 6 3 1 3 2 5 4 3 2 3 2 1 4 1 6 0 5 9 6 3 5 4 6 5 2 7 7 8 10 12 14
0 2 4 3 3 3 2 4 6 4 6 1 6 3 6 7 8 6 5 4 2 6 6 6 5 3 2 2 8 3 10 6 6 6 5 6 5 5 6 5 5 7 11 13 14
2 3 3 4 3 0 3 3 7 9 3 7 9 6 5 4 7 4 6 6 3 2 2 2 2 3 4 6 8 4 5 6 1 5 4 5 2 6 7 9 8 9 8 9 4

GFSSW_925_spd_114.txt.gz
Wind_Speed
14 13 12 11 11 11 12 11 11 11 11 11 11 10 11 14 15 8 6 4 4 7 6 5 5 6 3 1 3 1 3 2 2 5 3 9 5 6 6 10 2 2 5 12 22
16 16 15 14 13 12 11 11 10 10 10 10 10 10 11 14 13 9 8 7 5 12 4 4 4 5 2 1 3 2 2 2 4 3 3 2 11 8 6 6 4 10 15 24 22
16 17 17 16 14 13 12 10 10 10 10 10 9 9 11 11 3 4 4 11 10 9 6 4 5 3 1 2 2 2 2 6 3 4 4 4 6 2 14 3 8 17 15 18 18
16 17 17 17 17 15 14 13 11 11 10 9 9 9 8 4 4 2 9 11 13 9 6 6 4 3 2 1 1 2 4 7 6 10 3 1 5 5 6 5 14 17 20 18 14
16 17 17 17 17 16 14 12 11 10 9 9 8 7 3 3 6 7 5 17 14 10 4 3 4 3 1 2 3 3 3 7 9 13 4 1 3 2 8 14 15 16 18 16 14
16 17 18 18 17 17 15 13 11 11 9 8 7 5 2 2 5 3 4 14 9 8 3 2 5 4 0 2 2 2 5 8 5 6 2 2 2 3 6 15 17 18 16 15 15
17 18 19 19 19 18 16 14 12 10 9 7 4 3 2 7 4 5 6 5 5 5 4 6 1 4 1 4 3 10 4 9 8 3 3 7 5 3 2 15 19 16 14 13 15
17 18 19 20 20 18 18 16 14 12 6 3 2 1 5 2 7 7 8 3 2 7 7 2 4 2 2 4 3 3 4 3 6 5 1 4 5 4 11 17 18 15 14 14 12
18 19 20 21 22 21 21 17 11 1 1 0 2 2 5 3 7 7 13 4 6 6 4 2 4 2 2 3 4 6 3 5 4 5 2 6 4 8 5 18 17 16 14 14 12
19 20 21 21 22 22 20 10 6 6 4 2 1 2 2 2 4 2 9 9 3 4 2 3 4 2 4 4 3 2 4 3 4 3 7 7 8 6 5 5 16 16 13 14 14
21 22 23 23 24 20 13 1 4 3 1 5 4 4 5 8 2 1 5 8 3 3 3 2 4 4 2 5 4 4 3 5 3 5 4 2 1 5 7 4 6 9 12 14 16
21 23 24 23 25 12 6 4 2 2 7 5 4 6 9 4 2 1 12 4 3 3 4 5 1 4 4 3 2 5 7 2 1 4 2 4 3 2 6 3 4 4 13 15 11
21 23 25 25 17 4 8 3 2 7 2 6 5 4 3 8 5 4 6 3 2 2 3 5 3 4 3 2 4 4 5 5 3 5 3 3 4 5 4 5 6 7 8 13 17
21 22 24 25 3 12 4 2 17 5 5 6 3 4 4 3 2 5 7 4 3 4 5 2 3 3 3 4 5 3 7 9 10 5 2 3 2 4 9 6 7 12 9 15 16
21 22 22 21 15 3 1 14 3 2 4 2 2 1 1 4 1 1 2 5 5 3 6 6 2 3 4 7 8 5 11 6 2 3 2 4 2 3 11 13 15 16 8 16 16
22 22 22 11 10 8 9 10 3 5 1 5 1 1 2 1 2 1 3 5 2 3 1 6 3 5 6 2 9 11 7 7 5 3 2 7 5 5 11 22 14 13 11 12 17
23 25 21 13 4 3 12 3 5 3 3 5 2 1 1 3 2 2 4 2 3 3 3 4 3 1 4 8 6 5 7 3 2 0 5 4 4 8 17 14 19 18 13 12 15
27 21 12 13 2 8 2 5 2 2 4 4 3 2 3 5 4 3 3 2 1 4 1 1 5 8 4 5 7 4 6 6 6 4 2 1 5 6 9 17 16 19 15 12 12
24 10 7 3 13 6 5 3 6 4 3 3 3 6 5 4 2 4 4 2 2 4 6 1 5 1 5 5 9 6 5 5 5 2 1 4 6 5 2 8 11 15 15 11 12
16 7 5 2 13 7 4 5 4 4 2 2 3 2 2 5 4 4 0 1 2 2 2 2 3 3 2 4 2 5 7 2 2 4 4 4 5 5 11 9 15 11 14 11 11
5 3 6 14 6 5 3 6 5 6 4 4 3 3 0 3 2 1 1 2 1 3 1 3 2 6 1 2 7 2 2 1 4 4 5 2 6 5 11 15 19 24 24 23 19
5 2 5 10 3 1 3 5 4 3 2 2 4 2 3 2 2 3 3 4 1 1 1 0 4 3 6 7 2 4 6 6 4 4 2 3 6 7 6 7 19 12 15 18 19
2 2 4 3 3 2 4 3 3 2 3 4 4 3 2 4 1 1 2 2 3 3 3 3 1 3 5 4 4 4 3 2 3 3 5 5 6 6 5 4 7 9 8 11 14
2 1 3 2 1 5 3 4 3 2 4 3 5 4 4 2 1 2 2 3 5 2 7 4 2 5 4 6 1 5 5 3 4 3 4 5 6 8 5 2 4 7 7 7 8
1 2 2 2 2 3 3 2 3 3 1 2 1 4 7 4 1 3 2 4 2 6 2 4 5 4 5 3 6 8 4 7 1 3 4 5 4 5 7 5 4 4 7 10 11
1 2 4 3 2 3 5 5 4 3 6 4 5 4 5 6 8 8 5 3 2 3 3 3 1 2 1 3 4 1 8 3 4 4 1 4 2 3 5 5 8 6 5 6 7
1 2 2 3 2 2 4 3 3 4 5 7 9 6 5 6 6 3 3 3 2 1 1 2 3 2 5 6 4 4 0 3 1 4 3 2 3 5 6 9 6 5 6 7 6

GFSSW_925_spd_117.txt.gz
Wind_Speed
14 14 13 13 12 11 11 11 10 10 9 10 9 9 10 12 13 5 5 3 3 8 8 9 5 4 2 2 2 0 1 4 4 7 3 9 5 5 3 12 4 3 8 13 19
15 15 16 15 13 12 12 12 11 9 9 8 8 9 10 13 10 6 4 5 7 11 8 9 7 6 2 2 2 3 1 3 7 8 5 4 10 7 7 10 4 10 14 20 18
14 15 16 16 15 14 12 11 11 9 8 8 8 9 11 10 3 1 4 9 9 9 5 5 8 2 2 1 2 4 2 7 6 8 6 3 5 6 13 8 7 21 19 19 18
14 15 16 16 15 15 12 11 10 9 9 9 9 9 9 3 4 2 6 12 10 8 6 6 4 3 2 1 2 2 7 6 8 7 3 5 3 5 11 3 12 20 21 19 16
14 14 15 15 15 14 14 12 11 9 9 9 9 8 3 1 2 8 3 16 12 9 4 3 7 3 3 0 2 2 7 4 6 10 10 10 7 1 8 10 17 18 18 16 15
15 15 16 16 16 17 16 15 12 10 9 7 7 6 1 2 4 3 12 12 8 6 3 2 3 2 3 1 0 3 10 9 5 8 6 7 6 3 10 16 17 19 17 16 16
16 17 17 18 18 17 17 17 14 11 9 6 5 4 1 1 5 8 10 6 5 4 4 2 2 2 1 1 4 11 8 8 4 6 4 5 4 6 12 17 17 18 16 15 17
17 18 19 20 21 20 18 17 14 11 5 2 3 2 3 1 3 4 7 5 3 4 2 2 4 2 1 1 3 2 2 3 4 5 3 2 3 6 8 17 18 19 15 15 16
17 18 20 21 21 21 19 13 7 2 4 2 2 2 3 1 3 2 9 4 5 5 3 4 3 1 2 1 3 3 2 3 3 3 5 5 3 5 5 15 18 18 17 15 14
18 19 21 22 21 21 14 4 6 5 4 1 0 2 1 1 0 4 9 10 4 6 3 2 2 3 3 3 5 3 2 2 3 2 2 8 7 3 6 16 18 17 16 16 16
19 20 22 22 22 14 6 1 1 2 1 2 3 4 4 4 2 4 7 7 4 2 3 2 5 8 4 3 4 3 3 3 4 3 1 2 2 12 1 8 13 10 11 16 17
20 21 22 22 19 5 5 3 5 3 6 2 5 6 7 3 1 4 11 4 3 3 3 4 6 5 4 6 6 5 5 3 3 4 4 7 5 5 5 4 9 11 11 17 14
20 22 23 22 10 4 3 4 6 7 2 3 4 3 1 6 2 6 9 4 3 4 4 5 3 7 5 5 6 5 8 6 1 6 0 1 4 6 8 5 7 8 13 17 18
20 21 22 22 2 9 0 1 12 5 2 2 1 2 4 1 2 3 7 2 2 4 7 2 2 4 5 5 7 6 9 5 9 8 2 3 3 8 12 12 13 14 14 14 19
20 21 21 18 10 2 2 10 3 2 2 2 2 2 3 3 5 3 3 2 4 4 4 4 5 4 3 4 10 2 7 9 7 3 2 7 4 3 13 15 20 18 19 16 19
21 22 22 10 7 4 5 4 2 2 1 1 1 1 2 1 1 3 3 3 2 3 1 4 1 3 1 4 8 14 10 9 6 2 4 5 8 6 10 23 24 19 20 23 20
23 23 19 11 2 6 7 1 2 2 2 1 1 2 1 2 3 2 6 6 2 3 0 2 4 3 4 8 10 4 7 2 5 4 5 1 6 13 15 20 21 18 22 22 21
27 20 11 10 5 10 1 2 3 1 2 1 2 2 2 4 2 2 5 5 4 2 2 3 4 10 9 4 6 12 7 5 7 4 1 3 7 5 6 18 15 13 16 18 22
23 10 5 2 16 5 2 3 4 4 1 1 2 3 2 2 1 2 2 2 1 5 4 3 4 2 8 5 6 6 8 2 1 1 4 4 6 13 7 11 15 15 17 18 17
15 5 3 5 13 4 2 3 3 3 1 2 3 2 1 0 2 2 1 1 0 1 3 2 4 1 4 5 5 5 8 4 3 4 5 4 5 7 6 10 11 13 18 21 16
4 1 8 10 9 1 4 4 4 6 4 5 4 3 2 1 1 2 2 1 2 1 2 0 2 2 3 7 9 6 5 3 2 2 4 4 3 2 11 14 14 13 16 20 16
4 2 3 6 3 1 3 4 2 2 3 4 3 2 3 2 1 2 2 2 1 1 2 1 3 5 5 2 6 5 6 12 8 10 3 4 6 8 10 10 13 15 18 18 17
3 2 2 2 5 3 2 2 3 3 3 5 5 2 2 4 2 4 2 2 1 1 1 3 2 6 4 4 2 2 4 3 5 2 10 8 6 7 11 4 10 14 16 16 15
2 2 1 1 1 3 4 3 3 3 3 3 3 4 4 3 0 3 4 1 2 1 4 5 3 6 9 2 1 1 7 7 4 8 10 11 11 9 10 8 1 7 12 11 13
1 1 2 3 5 5 3 1 3 2 3 5 2 6 6 5 3 4 3 2 1 2 3 3 6 4 4 1 6 3 8 7 1 4 6 3 6 8 9 7 4 2 7 10 12
2 2 1 2 2 6 6 6 11 7 4 5 6 11 9 6 8 6 6 3 2 2 2 1 2 3 4 7 5 5 5 5 3 4 8 6 4 5 9 3 2 6 8 11 11
2 1 2 1 1 3 5 5 7 3 7 7 11 7 8 7 7 2 4 5 1 2 2 2 3 4 6 5 2 6 9 7 1 5 4 4 5 7 5 3 3 3 5 7 8

GFSSW_925_spd_120.txt.gz
Wind_Speed
14 14 15 15 13 12 11 10 9 8 8 8 8 8 9 11 10 4 6 2 4 8 9 8 9 9 8 3 1 2 4 6 6 9 7 9 8 4 2 12 7 3 6 21 23
14 15 15 15 14 12 11 10 10 9 8 8 8 8 10 12 7 8 4 3 6 11 8 12 11 11 5 3 2 2 3 5 4 7 3 6 7 7 8 11 9 10 17 22 21
13 14 15 15 14 14 12 11 10 8 8 8 9 9 10 8 6 6 2 7 12 9 5 8 10 9 5 4 4 3 2 11 6 8 3 2 6 4 7 9 9 15 20 19 20
13 14 14 14 14 14 13 12 11 10 9 8 9 9 8 4 2 3 5 10 15 5 6 9 11 9 5 4 5 3 8 5 8 6 6 2 5 4 7 6 7 17 19 18 16
14 14 15 15 15 15 13 13 12 10 9 8 8 8 3 6 5 6 5 14 9 9 8 9 11 5 4 2 3 4 10 3 9 10 10 9 8 3 10 1 13 19 17 15 14
15 15 16 17 17 17 16 15 13 11 8 7 6 6 5 5 3 5 11 10 8 7 7 8 6 2 3 2 2 5 7 5 5 6 9 11 7 7 10 12 15 18 17 14 13
16 16 17 18 19 19 18 17 15 11 8 5 4 3 5 7 4 8 7 6 5 5 7 6 4 9 3 6 3 11 8 5 3 6 6 6 11 9 12 14 15 16 15 15 13
17 17 18 20 20 21 19 15 12 8 2 1 2 2 4 5 4 5 6 6 3 4 3 4 3 4 4 3 6 8 6 3 4 6 5 6 8 5 8 14 15 15 14 14 14
17 19 19 20 21 21 17 9 5 4 4 2 1 5 9 5 5 6 6 2 5 6 3 4 6 4 6 9 7 5 3 1 3 5 4 8 6 5 2 12 16 14 15 15 14
18 20 20 21 22 20 10 1 3 4 1 2 5 5 6 5 5 5 8 7 3 9 7 7 8 9 8 9 8 5 5 2 1 5 8 13 6 4 4 12 15 18 16 16 15
19 21 21 21 22 12 4 2 5 5 7 5 4 3 5 4 6 4 10 9 7 7 8 8 10 13 13 9 3 2 2 3 4 4 5 9 11 13 5 7 16 16 14 16 17
19 21 21 21 19 5 4 3 5 5 3 3 3 5 5 3 6 8 12 9 7 8 5 8 13 7 4 6 9 8 8 4 4 5 5 7 11 7 14 11 15 18 13 17 18
19 20 21 21 11 3 3 3 1 6 5 5 3 2 3 8 1 10 13 4 6 7 10 9 4 8 10 9 9 10 11 4 7 6 6 7 13 14 12 16 13 18 18 18 17
19 20 21 20 2 6 2 1 8 4 5 7 7 5 7 4 5 5 10 5 6 6 6 6 9 9 11 11 10 11 8 8 6 5 5 5 5 10 16 19 16 18 18 19 20
20 21 20 18 11 4 1 6 1 4 4 6 7 4 3 5 8 8 7 6 7 7 8 7 10 9 8 10 10 8 2 8 9 7 7 9 7 6 16 16 23 21 22 20 24
20 22 22 8 6 7 4 5 4 6 2 7 5 6 8 6 5 9 9 7 2 4 6 3 2 5 8 2 8 3 5 5 3 4 10 12 8 11 11 23 22 23 23 24 25
23 23 18 8 2 2 4 5 6 8 6 7 5 6 4 5 6 8 9 9 5 8 8 8 13 9 7 9 7 13 11 8 8 8 10 4 7 15 6 10 20 23 25 25 24
26 20 10 10 5 6 6 7 8 3 9 5 4 9 5 6 4 6 8 7 5 5 3 6 11 13 12 15 10 14 15 11 6 9 5 3 7 3 4 6 14 18 19 22 23
23 5 4 4 13 6 7 10 7 8 6 7 8 10 6 6 3 7 8 2 2 6 7 4 6 4 5 6 11 11 9 12 12 9 8 8 9 14 6 8 12 18 18 18 24
12 6 4 3 10 8 9 13 4 2 5 6 9 5 6 6 7 5 7 3 5 0 6 2 7 3 8 6 8 11 5 8 9 8 13 10 5 3 13 10 9 16 17 14 19
5 4 3 5 13 6 10 11 6 8 4 7 5 5 2 2 6 5 3 7 2 3 3 5 5 7 7 12 11 9 11 9 9 9 8 8 2 5 11 12 8 11 14 15 13
5 4 4 7 8 10 12 6 1 11 7 6 4 2 2 1 5 5 3 2 3 3 4 4 6 9 11 7 5 13 14 12 10 16 12 12 10 5 9 11 4 4 4 12 13
5 3 4 4 8 10 7 10 6 11 11 10 10 7 4 3 3 4 4 5 3 3 4 2 8 8 13 11 9 8 7 9 10 7 9 15 5 7 9 9 4 6 7 6 10
4 4 4 6 7 10 15 14 11 7 8 7 6 7 8 7 5 3 5 5 3 4 3 3 13 13 13 9 1 6 4 5 10 10 11 15 18 3 10 11 7 4 5 10 11
3 1 6 8 13 11 9 10 15 10 9 8 9 14 13 7 6 7 5 5 6 5 5 6 12 13 11 10 9 11 5 4 7 6 7 13 10 10 7 6 11 5 8 9 13
4 3 2 6 6 14 11 11 14 13 8 11 12 16 12 11 6 3 6 5 7 7 7 6 8 7 12 11 12 11 9 13 1 1 6 7 11 7 8 6 8 3 4 9 11
3 3 4 1 6 10 14 16 14 13 10 13 12 12 14 13 2 0 1 1 1 7 5 5 7 7 13 7 14 16 17 13 9 6 3 8 12 9 6 6 7 4 1 2 3

GFSSW_925_spd_123.txt.gz
Wind_Speed
14 14 14 14 14 13 11 10 9 8 8 8 8 8 9 10 10 7 10 2 5 7 9 9 11 12 11 9 3 4 3 5 6 14 12 4 8 8 3 10 6 3 14 21 21
14 15 15 14 13 13 12 11 10 9 8 8 8 8 10 12 11 13 5 6 7 10 10 12 12 12 13 6 1 4 3 3 7 10 11 4 3 5 8 10 9 12 20 22 20
14 14 15 15 15 15 13 11 9 9 9 9 9 9 10 9 11 9 3 7 9 11 11 12 10 12 10 4 3 3 2 5 9 10 6 3 6 5 5 3 11 14 17 19 18
14 14 15 16 16 15 13 13 12 10 9 9 9 9 10 6 1 7 2 9 12 9 9 11 12 12 15 6 8 4 2 1 8 7 4 4 12 5 5 11 6 17 18 17 16
14 15 15 16 17 16 15 14 13 13 10 8 8 8 5 9 4 3 6 11 13 8 11 11 12 12 12 2 6 11 9 3 7 10 7 12 16 5 6 5 14 17 16 16 14
15 15 16 17 18 17 17 16 15 13 10 8 7 7 7 10 4 5 9 10 10 12 10 10 10 5 4 2 6 5 8 4 6 6 7 15 10 20 9 2 15 16 15 14 12
15 16 17 18 19 19 19 17 15 13 9 6 5 4 12 6 5 8 8 6 8 9 8 11 7 8 4 7 2 8 7 7 4 4 6 9 7 6 10 13 14 14 13 13 12
15 17 18 19 20 20 20 15 13 7 3 3 3 5 3 6 4 6 6 5 5 7 9 4 9 14 9 6 8 12 10 8 7 6 6 4 7 7 6 12 15 13 13 12 12
17 17 19 19 21 22 17 11 5 1 2 2 4 9 9 6 10 9 7 6 4 6 5 5 12 14 11 12 13 7 9 6 8 5 8 11 4 6 13 4 10 9 14 14 14
18 18 18 19 21 20 12 5 4 1 3 6 11 8 10 7 8 5 9 5 4 7 8 10 9 12 11 13 11 9 8 3 6 7 9 13 7 12 9 10 4 15 13 15 17
19 19 18 19 20 15 9 4 6 7 13 11 3 2 8 8 6 9 9 10 8 10 13 14 11 14 17 14 12 6 5 5 11 3 5 10 14 13 14 11 15 13 13 17 16
21 20 20 19 19 8 10 6 8 7 6 4 2 3 2 3 8 5 11 11 10 13 13 9 14 15 13 4 5 10 9 8 4 4 7 6 11 10 18 18 18 15 15 18 16
22 20 20 18 13 5 8 6 6 8 8 9 7 6 10 12 3 10 14 11 10 12 10 15 10 4 3 9 12 13 12 6 1 6 10 9 15 17 16 18 18 14 12 18 20
22 20 20 19 5 5 8 1 8 5 6 12 11 6 7 7 5 4 13 6 4 9 10 12 9 3 11 13 12 13 11 8 3 6 5 7 8 14 18 17 19 20 14 19 16
23 21 18 15 14 9 4 6 8 7 6 11 10 8 8 9 11 7 8 6 12 8 7 11 8 10 13 13 10 12 6 6 9 12 12 10 7 13 17 15 19 22 22 20 23
24 22 21 2 8 12 8 10 8 8 3 9 9 11 11 9 6 8 6 9 6 3 10 13 6 11 11 4 6 8 4 12 9 10 11 18 14 11 5 12 15 20 21 19 26
25 24 19 10 6 3 7 10 7 10 6 10 12 10 12 10 7 11 11 12 9 10 13 13 12 11 10 8 12 12 13 9 11 10 13 8 7 8 12 18 11 20 23 23 19
29 22 12 13 7 9 10 9 13 10 12 6 4 10 10 7 5 7 8 11 4 8 5 8 13 16 11 15 9 14 16 13 8 8 6 7 6 3 9 9 4 11 22 22 20
27 10 10 7 15 10 8 13 15 10 7 8 10 11 9 7 7 7 10 8 5 4 9 2 7 7 4 10 14 12 14 19 18 17 14 11 15 7 11 15 4 9 13 18 23
15 14 16 10 12 14 10 19 16 5 4 9 13 12 10 12 9 7 11 4 3 2 7 5 7 11 9 11 9 18 4 8 9 16 13 9 11 2 6 10 12 5 16 20 20
8 6 8 9 14 9 13 20 19 7 9 11 12 5 10 2 7 5 2 9 1 7 7 12 6 5 5 12 15 11 12 12 12 11 7 13 5 8 11 13 8 4 1 16 15
8 7 6 14 10 12 15 23 11 11 11 9 7 9 6 6 8 6 4 2 7 4 8 5 8 11 12 2 10 7 12 21 11 10 6 14 2 11 13 11 12 13 4 6 12
5 8 7 14 8 13 20 22 8 17 16 15 12 7 5 6 4 5 3 11 3 8 2 6 7 10 15 15 15 10 16 14 13 11 13 8 1 3 16 6 9 10 7 1 9
5 5 5 8 14 18 14 19 14 19 14 15 12 11 8 7 4 4 5 7 3 9 10 5 14 15 14 17 4 11 17 17 16 12 16 11 1 8 5 15 6 6 4 5 6
4 4 7 5 13 17 17 17 19 16 15 13 13 12 13 9 11 8 5 7 11 9 7 10 14 14 16 18 15 15 7 8 21 37 16 9 12 7 8 17 5 3 4 10 9
4 5 9 13 13 14 16 17 18 20 16 19 16 16 14 13 9 3 7 7 7 14 8 11 11 10 13 17 16 14 14 27 33 18 2 18 12 7 13 5 7 7 9 9 13
5 9 5 10 11 11 13 16 18 15 15 14 16 16 16 14 11 1 3 5 3 5 9 9 10 11 14 12 11 16 14 15 18 18 4 10 12 18 14 9 8 12 4 5 11